[[{"header":{"parameterUnit":"m.s-1","parameterCategory":1,"la1":31.0,"la2":29.5877,"lo1":-88.7671,"lo2":-86.6584,"dx":0.0162,"dy":0.0185,"nx":115,"ny":88,"refTime":"2022-11-22T18:00:00:Z","depth":0,"parameterNumber":2,"parameterNumberName":"U-component_of_WINDS"},"data":[0.0,0.0,0.0,0.0,0.0,0.0,0.0,0.0,0.0,0.0,0.0,0.0,0.0,0.0,0.0,0.0,0.0,0.0,0.0,0.0,0.0,0.0,0.0,0.0,0.0,0.0,0.0,0.0,0.0,0.0,0.0,0.0,0.0,0.0,0.0,0.0,0.0,0.0,0.0,0.0,0.0,0.0,0.0,0.0,0.0,0.0,0.0,0.0,0.0,0.0,0.0,0.0,0.0,0.0,0.0,0.0,0.0,0.0,0.0,0.0,0.0,0.0,0.0,0.0,0.0,0.0,0.0,0.0,0.0,0.0,0.0,0.0,0.0,0.0,0.0,0.0,0.0,0.0,0.0,0.0,0.0,0.0,0.0,0.0,0.0,0.0,0.0,0.0,0.0,0.0,0.0,0.0,0.0,0.0,0.0,0.0,0.0,0.0,0.0,0.0,0.0,0.0,0.0,0.0,0.0,0.0,0.0,0.0,0.0,0.0,0.0,0.0,0.0,0.0,0.0,0.0,0.0,0.0,0.0,0.0,0.0,0.0,0.0,0.0,0.0,0.0,0.0,0.0,0.0,0.0,0.0,0.0,0.0,0.0,0.0,0.0,0.0,0.0,0.0,0.0,0.0,0.0,0.0,0.0,0.0,0.0,0.0,0.0,0.0,0.0,0.0,0.0,0.0,0.0,0.0,0.0,0.0,0.0,0.0,0.0,0.0,0.0,0.0,0.0,0.0,0.0,0.0,0.0,0.0,0.0,0.0,0.0,0.0,0.0,0.0,0.0,0.0,0.0,0.0,0.0,0.0,0.0,0.0,0.0,0.0,0.0,0.0,0.0,0.0,0.0,0.0,0.0,0.0,0.0,0.0,0.0,0.0,0.0,0.0,0.0,0.0,0.0,0.0,0.0,0.0,0.0,0.0,0.0,0.0,0.0,0.0,0.0,0.0,0.0,0.0,0.0,0.0,0.0,0.0,0.0,0.0,0.0,0.0,0.0,0.0,0.0,0.0,0.0,0.0,0.0,0.0,0.0,0.0,0.0,0.0,0.0,0.0,0.0,0.0,0.0,0.0,0.0,0.0,0.0,0.0,0.0,0.0,0.0,0.0,0.0,0.0,0.0,0.0,0.0,0.0,0.0,0.0,0.0,0.0,0.0,0.0,0.0,0.0,0.0,0.0,0.0,0.0,0.0,0.0,0.0,0.0,0.0,0.0,0.0,0.0,0.0,0.0,0.0,0.0,0.0,0.0,0.0,0.0,0.0,0.0,0.0,0.0,0.0,0.0,0.0,0.0,0.0,0.0,0.0,0.0,0.0,0.0,0.0,0.0,0.0,0.0,0.0,0.0,0.0,0.0,0.0,0.0,0.0,0.0,0.0,0.0,0.0,0.0,0.0,0.0,0.0,0.0,0.0,0.0,0.0,0.0,0.0,0.0,0.0,0.0,0.0,0.0,0.0,0.0,0.0,0.0,0.0,0.0,0.0,0.0,0.0,0.0,0.0,0.0,0.0,0.0,0.0,0.0,0.0,0.0,0.0,0.0,0.0,0.0,0.0,0.0,0.0,0.0,0.0,0.0,0.0,0.0,0.0,0.0,0.0,0.0,0.0,0.0,0.0,0.0,0.0,0.0,0.0,0.0,0.0,0.0,0.0,0.0,0.0,0.0,0.0,0.0,0.0,0.0,0.0,0.0,0.0,0.0,0.0,0.0,0.0,0.0,0.0,0.0,0.0,0.0,0.0,0.0,0.0,0.0,0.0,0.0,0.0,0.0,0.0,0.0,0.0,0.0,0.0,0.0,0.0,0.0,0.0,0.0,0.0,0.0,0.0,0.0,0.0,0.0,0.0,0.0,0.0,0.0,0.0,0.0,0.0,0.0,0.0,0.0,0.0,0.0,0.0,0.0,0.0,0.0,0.0,0.0,0.0,0.0,0.0,0.0,0.0,0.0,0.0,0.0,0.0,0.0,0.0,0.0,0.0,0.0,0.0,0.0,0.0,0.0,0.0,0.0,0.0,0.0,0.0,0.0,0.0,0.0,0.0,0.0,0.0,0.0,0.0,0.0,0.0,0.0,0.0,0.0,0.0,0.0,0.0,0.0,0.0,0.0,0.0,0.0,0.0,0.0,0.0,0.0,0.0,0.0,0.0,0.0,0.0,0.0,0.0,0.0,0.0,0.0,0.0,0.0,0.0,0.0,0.0,0.0,0.0,0.0,0.0,0.0,0.0,0.0,0.0,0.0,0.0,0.0,0.0,0.0,0.0,0.0,0.0,0.0,0.0,0.0,0.0,0.0,0.0,0.0,0.0,0.0,0.0,0.0,0.0,0.0,0.0,0.0,0.0,0.0,0.0,0.0,0.0,0.0,0.0,0.0,0.0,0.0,0.0,0.0,0.0,0.0,0.0,0.0,0.0,0.0,0.0,0.0,0.0,0.0,0.0,0.0,0.0,0.0,0.0,0.0,0.0,0.0,0.0,0.0,0.0,0.0,0.0,0.0,0.0,0.0,0.0,0.0,0.0,0.0,0.0,0.0,0.0,0.0,0.0,0.0,0.0,0.0,0.0,0.0,0.0,0.0,0.0,0.0,0.0,0.0,0.0,0.0,0.0,0.0,0.0,0.0,0.0,0.0,0.0,0.0,0.0,0.0,0.0,0.0,0.0,0.0,0.0,0.0,0.0,0.0,0.0,0.0,0.0,0.0,0.0,0.0,0.0,0.0,0.0,0.0,0.0,0.0,0.0,0.0,0.0,0.0,0.0,0.0,0.0,0.0,0.0,0.0,0.0,0.0,0.0,0.0,0.0,0.0,0.0,0.0,0.0,0.0,0.0,0.0,0.0,0.0,0.0,0.0,0.0,0.0,0.0,0.0,0.0,0.0,0.0,0.0,0.0,0.0,0.0,0.0,0.0,0.0,0.0,0.0,0.0,0.0,0.0,0.0,0.0,0.0,0.0,0.0,0.0,0.0,0.0,0.0,0.0,0.0,0.0,0.0,0.0,0.0,0.0,0.0,0.0,0.0,0.0,0.0,0.0,0.0,0.0,0.0,0.0,0.0,0.0,0.0,0.0,0.0,0.0,0.0,0.0,0.0,0.0,0.0,0.0,0.0,0.0,0.0,0.0,0.0,0.0,0.0,0.0,0.0,0.0,0.0,0.0,0.0,0.0,0.0,0.0,0.0,0.0,0.0,0.0,0.0,0.0,0.0,0.0,0.0,0.0,0.0,0.0,0.0,0.0,0.0,0.0,0.0,0.0,0.0,0.0,0.0,0.0,0.0,0.0,0.0,0.0,0.0,0.0,0.0,0.0,0.0,0.0,0.0,0.0,0.0,0.0,0.0,0.0,0.0,0.0,0.0,0.0,0.0,0.0,0.0,0.0,0.0,0.0,0.0,0.0,0.0,0.0,0.0,0.0,0.0,0.0,0.0,0.0,0.0,0.0,0.0,0.0,0.0,0.0,0.0,0.0,0.0,0.0,0.0,0.0,0.0,0.0,0.0,0.0,0.0,0.0,0.0,0.0,0.0,0.0,0.0,0.0,0.0,0.0,0.0,0.0,0.0,0.0,0.0,0.0,0.0,0.0,0.0,0.0,0.0,0.0,0.0,0.0,0.0,0.0,0.0,0.0,0.0,0.0,0.0,0.0,0.0,0.0,0.0,0.0,0.0,0.0,0.0,0.0,0.0,0.0,0.0,0.0,0.0,0.0,0.0,0.0,0.0,0.0,0.0,0.0,0.0,0.0,0.0,0.0,0.0,0.0,0.0,0.0,0.0,0.0,0.0,0.0,0.0,0.0,0.0,0.0,0.0,0.0,0.0,0.0,0.0,0.0,0.0,0.0,0.0,0.0,0.0,0.0,0.0,0.0,0.0,0.0,0.0,0.0,0.0,0.0,0.0,0.0,0.0,0.0,0.0,0.0,0.0,0.0,0.0,0.0,0.0,0.0,0.0,0.0,0.0,0.0,0.0,0.0,0.0,0.0,0.0,0.0,0.0,0.0,0.0,0.0,0.0,0.0,0.0,0.0,0.0,0.0,0.0,0.0,0.0,0.0,0.0,0.0,0.0,0.0,0.0,0.0,0.0,0.0,0.0,0.0,0.0,0.0,0.0,0.0,0.0,0.0,0.0,0.0,0.0,0.0,0.0,0.0,0.0,0.0,0.0,0.0,0.0,0.0,0.0,0.0,0.0,0.0,0.0,0.0,0.0,0.0,0.0,0.0,0.0,0.0,0.0,0.0,0.0,0.0,0.0,0.0,0.0,0.0,1.0335,0.0,0.0,0.0,0.7545,0.0,0.0,0.0,0.0,0.0,0.0,0.0,0.0,0.0,0.0,0.0,0.0,0.0,0.0,0.0,0.0,0.0,0.0,0.0,0.0,0.0,0.0,0.0,0.0,0.0,0.0,0.0,0.0,0.0,0.0,0.0,0.0,0.0,0.0,0.0,0.0,0.0,0.0,0.0,0.0,0.0,0.0,0.0,0.0,0.0,0.0,0.0,0.0,0.0,0.0,0.0,0.0,0.0,0.0,0.0,0.0,0.0,0.0,0.0,0.0,0.0,0.0,0.0,0.0,0.0,0.0,0.0,0.0,0.0,0.0,0.0,0.0,0.0,0.0,0.0,0.0,0.0,0.0,0.0,0.0,0.0,0.0,0.0,0.0,0.0,0.0,0.0,0.0,0.0,0.0,0.0,0.0,0.0,0.0,0.0,0.0,0.0,0.0,0.0,0.0,0.0,0.0,0.0,0.0,0.0,0.0,0.0,0.0,0.0,0.0,1.0261,0.9151,0.9028,0.8551,0.7657,0.0,0.0,0.0,0.0,0.0,0.0,0.0,0.0,0.0,0.0,0.0,0.0,0.0,0.0,0.0,0.0,0.0,0.0,0.0,0.0,0.0,0.0,0.0,0.0,0.0,0.0,0.0,0.0,0.0,0.0,0.0,0.0,0.0,0.0,0.0,0.0,0.0,0.0,0.0,0.0,0.0,0.0,0.0,0.0,0.0,0.0,0.0,0.0,0.0,0.0,0.0,0.0,0.0,0.0,0.0,0.0,0.0,0.0,0.0,0.0,0.0,0.0,0.0,0.0,0.0,0.0,0.0,0.0,0.0,0.0,0.0,0.0,0.0,0.0,0.0,0.0,0.0,0.0,0.0,0.0,0.0,0.0,0.0,0.0,0.0,0.0,0.0,0.0,0.0,0.0,0.0,0.0,0.0,0.0,0.0,0.0,0.0,0.0,0.0,0.0,0.0,0.0,0.0,0.0,0.0,0.0,0.0,0.0,0.0,0.0,0.0,0.0,0.8859,0.8409,0.7776,0.0,0.0,0.0,0.0,0.0,0.0,0.0,0.0,0.0,0.0,0.0,0.0,0.0,0.0,0.0,0.0,0.0,0.0,0.0,0.0,0.0,0.0,0.0,0.0,0.0,0.0,0.0,0.0,0.0,0.0,0.0,0.0,0.0,0.0,0.0,0.0,0.0,0.0,0.0,0.0,0.0,0.0,0.0,0.0,0.0,0.0,0.0,0.0,0.0,0.0,0.0,0.0,0.0,0.0,0.0,0.0,0.0,0.0,0.0,0.0,0.0,0.0,0.0,0.0,0.0,0.0,0.0,0.0,0.0,0.0,0.0,0.0,0.0,0.0,0.0,0.0,0.0,0.0,0.0,0.0,0.0,0.0,0.0,0.0,0.0,0.0,0.0,0.0,0.0,0.0,0.0,0.0,0.0,0.0,0.0,0.0,0.0,0.0,0.0,0.0,0.0,0.0,0.0,0.0,0.0,0.0,0.0,0.0,0.0,0.0,0.9827,0.895,0.8498,0.0,0.7762,0.0,0.0,0.0,0.0,0.0,0.0,0.0,0.0,0.0,0.0,0.0,0.0,0.0,0.0,0.0,0.0,0.0,0.0,0.0,0.0,0.0,0.0,0.0,0.0,0.0,0.0,0.0,0.0,0.0,0.0,0.0,0.0,0.0,0.0,0.0,0.0,0.0,0.0,0.0,0.0,0.0,0.0,0.0,0.0,0.0,0.0,0.0,0.0,0.0,0.0,0.0,0.0,0.0,0.0,0.0,0.0,0.0,0.0,0.0,0.0,0.0,0.0,0.0,0.0,0.0,0.0,0.0,0.0,0.0,0.0,0.0,0.0,0.0,0.0,0.0,0.0,0.0,0.0,0.0,0.0,0.0,0.0,0.0,0.0,0.0,0.0,0.0,0.0,0.0,0.0,0.0,0.0,0.0,0.0,0.0,0.0,0.0,0.0,0.0,0.0,0.0,0.0,0.0,0.0,0.0,0.0,0.0,0.0,0.0,0.0,0.9896,0.8926,0.8069,0.7589,0.0,0.0,0.0,0.0,0.0,0.0,0.0,0.0,0.0,0.0,0.0,0.0,0.0,0.0,0.0,0.0,0.0,0.0,0.0,0.0,0.0,0.0,0.0,0.0,0.0,0.0,0.0,0.0,0.0,0.0,0.0,0.0,0.0,0.0,0.0,0.0,0.0,0.0,0.0,0.0,0.0,0.0,0.0,0.0,0.0,0.0,0.0,0.0,0.0,0.0,0.0,0.0,0.0,0.0,0.0,0.0,0.0,0.0,0.0,0.0,0.0,0.0,0.0,0.0,0.0,0.0,0.0,0.0,0.0,0.0,0.0,0.0,0.0,0.0,0.0,0.0,0.0,0.0,0.0,0.0,0.0,0.0,0.0,0.0,0.0,0.0,0.0,0.0,0.0,0.0,0.0,0.0,0.0,0.0,0.0,0.0,0.0,0.0,0.0,0.0,0.0,0.0,0.0,0.0,0.0,0.0,0.0,0.0,0.0,0.0,1.0629,0.9724,0.8491,0.7587,0.7121,0.7167,0.0,0.0,0.0,0.0,0.0,0.0,0.0,0.0,0.0,0.0,0.0,0.0,0.0,0.0,0.0,0.0,0.0,0.0,0.0,0.0,0.0,0.0,0.0,0.0,0.0,0.0,0.0,0.0,0.0,0.0,0.0,0.0,0.0,0.0,0.0,0.0,0.0,0.0,0.0,0.0,0.0,0.0,0.0,0.0,0.0,0.0,0.0,0.0,0.0,0.0,0.0,0.0,0.0,0.0,0.0,0.0,0.0,0.0,0.0,0.0,0.0,0.0,0.0,0.0,0.0,0.0,0.0,0.0,0.0,0.0,0.0,0.0,0.0,0.0,0.0,0.0,0.0,0.0,0.0,0.0,0.0,0.0,0.0,0.0,0.0,0.0,0.0,0.0,0.0,0.0,0.0,0.0,0.0,0.0,0.0,0.0,0.0,0.0,0.0,0.0,0.0,0.0,0.0,0.0,0.0,0.0,0.0,0.0,1.1116,1.0261,0.9035,0.7467,0.7087,0.678,0.0,0.0,0.0,0.0,0.0,0.0,0.0,0.0,0.0,0.0,0.0,0.0,0.0,0.0,0.0,0.0,0.0,0.0,0.0,0.0,0.0,0.0,0.0,0.0,0.0,0.0,0.0,0.0,0.0,0.0,0.0,0.0,0.0,0.0,0.0,0.0,0.0,0.0,0.0,0.0,0.0,0.0,0.0,0.0,0.0,0.0,0.0,0.0,0.0,0.0,0.0,0.0,0.0,0.0,0.0,0.0,0.0,0.0,0.0,0.0,0.0,0.0,0.0,0.0,0.0,0.0,0.0,0.0,0.0,0.0,0.0,0.0,0.0,0.0,0.0,0.0,0.0,0.0,0.0,0.0,0.0,0.0,0.0,0.0,0.0,0.0,0.0,0.0,0.0,0.0,0.0,0.0,0.0,0.0,0.0,0.0,0.0,0.0,0.0,0.0,0.0,0.0,0.0,0.0,0.0,0.0,0.0,0.0,0.0,1.0947,0.9567,0.8391,0.7449,0.68,0.6339,0.0,0.0,0.0,0.0,0.0,0.0,0.0,0.0,0.0,0.0,0.0,0.0,0.0,0.0,0.0,0.0,0.0,0.0,0.0,0.0,0.0,0.0,0.0,0.0,0.0,0.0,0.0,0.0,0.0,0.0,0.0,0.0,0.0,0.0,0.0,0.0,0.0,0.0,0.0,0.0,0.0,0.0,0.0,0.0,0.0,0.0,0.0,0.0,0.0,0.0,0.0,0.0,0.0,0.0,0.0,0.0,0.0,0.0,0.0,0.0,0.0,0.0,0.0,0.0,0.0,0.0,0.0,0.0,0.0,0.0,0.0,0.0,0.0,0.0,0.0,0.0,0.0,0.0,0.0,0.0,0.0,0.0,0.0,0.0,0.0,0.0,0.0,0.0,0.0,0.0,0.0,0.0,0.0,0.0,0.0,0.0,0.0,0.0,0.0,0.0,0.0,0.0,0.0,0.0,0.0,0.0,0.0,0.0,0.0,1.0467,0.894,0.7833,0.7307,0.6474,0.5807,0.0,0.0,0.0,0.0,0.0,0.0,0.0,0.0,0.0,0.0,0.0,0.0,0.0,0.0,0.0,0.0,0.0,0.0,0.0,0.0,0.0,0.0,0.0,0.0,0.0,0.0,0.0,0.0,0.0,0.0,0.0,0.0,0.0,0.0,0.0,0.0,0.0,0.0,0.0,0.0,0.0,0.0,0.0,0.0,0.0,0.0,0.0,0.0,0.0,0.0,0.0,0.0,0.0,0.0,0.0,0.0,0.0,0.0,0.0,0.0,0.0,0.0,0.0,0.0,0.0,0.0,0.0,0.0,0.0,0.0,0.0,0.0,0.0,0.0,0.0,0.0,0.0,0.0,0.0,0.0,0.0,0.0,0.0,0.0,0.0,0.0,0.0,0.0,0.0,0.0,0.0,0.0,0.0,0.0,0.0,0.0,0.0,0.0,0.0,0.0,0.0,0.0,0.0,0.0,0.0,0.0,0.0,0.0,1.1009,0.9645,0.8359,0.7446,0.6885,0.6027,0.5224,0.0,0.0,0.0,0.0,0.0,0.0,0.0,0.0,0.0,0.0,0.0,0.0,0.0,0.0,0.0,0.0,0.0,0.0,0.0,0.0,0.0,0.0,0.0,0.0,0.0,0.0,0.0,0.0,0.0,0.0,0.0,0.0,0.0,0.0,0.0,0.0,0.0,0.0,0.0,0.0,0.0,0.0,0.0,0.0,0.0,0.0,0.0,0.0,0.0,0.0,0.0,0.0,0.0,0.0,0.0,0.0,0.0,0.0,0.0,0.0,0.0,0.0,0.0,0.0,0.0,0.0,0.0,0.0,0.0,0.0,0.0,0.0,0.0,0.0,0.0,0.0,0.0,0.0,0.0,0.0,0.0,0.0,0.0,0.0,0.0,0.0,0.0,0.0,0.0,0.0,0.0,0.0,0.0,0.0,0.0,0.0,0.0,0.0,0.0,0.0,0.0,0.0,0.0,0.0,0.0,0.0,0.0,0.0,0.0,0.9263,0.7998,0.7051,0.6425,0.5213,0.4287,0.0,0.0,0.0,0.0,0.0,0.0,0.0,0.0,0.0,0.0,0.0,0.0,0.0,0.0,0.0,0.0,0.0,0.0,0.0,0.0,0.0,0.0,0.0,0.0,0.0,0.0,0.0,0.0,0.0,0.0,0.0,0.0,0.0,0.0,0.0,0.0,0.0,0.0,0.0,0.0,0.0,0.0,0.0,0.0,0.0,0.0,0.0,0.0,0.0,0.0,0.0,0.0,0.0,0.0,0.0,0.0,0.0,0.0,0.0,0.0,0.0,0.0,0.0,0.0,0.0,0.0,0.0,0.0,0.0,0.0,0.0,0.0,0.0,0.0,0.0,0.0,0.0,0.0,0.0,0.0,0.0,0.0,0.0,0.0,0.0,0.0,0.0,0.0,0.0,0.0,0.0,0.0,0.0,0.0,0.0,0.0,0.0,0.0,0.0,0.0,0.0,0.0,0.0,0.0,0.0,0.0,0.0,0.0,0.0,0.8676,0.7343,0.6333,0.5756,0.4238,0.315,0.256,0.0,0.0,0.0,0.0,0.0,0.0,0.0,0.0,0.0,0.0,0.0,0.0,0.0,0.0,0.0,0.0,0.0,0.0,0.0,0.0,0.0,0.0,0.0,0.0,0.0,0.0,0.0,0.0,0.0,0.0,0.0,0.0,0.0,0.0,0.0,0.0,0.0,0.0,0.0,0.0,0.0,0.0,0.0,0.0,0.0,0.0,0.0,0.0,0.0,0.0,0.0,0.0,0.0,0.0,0.0,0.0,0.0,0.0,0.0,0.0,0.0,0.0,0.0,0.0,0.0,0.0,0.0,0.0,0.0,0.0,0.0,0.0,0.0,0.0,0.0,0.0,0.0,0.0,0.0,0.0,0.0,0.0,0.0,0.0,0.0,0.0,0.0,0.0,0.0,0.0,0.0,0.0,0.0,0.0,0.0,0.0,0.0,0.0,0.0,0.0,0.0,0.0,0.0,0.0,0.0,0.0,0.0,0.0,0.8008,0.6425,0.538,0.4942,0.3212,0.1937,0.0,0.0,0.0,0.0,0.0,0.0,0.0,0.0,0.0,0.0,0.0,0.0,0.0,0.0,0.0,0.0,0.0,0.0,0.0,0.0,0.0,0.0,0.0,0.0,0.0,0.0,0.0,0.0,0.0,0.0,0.0,0.0,0.0,0.0,0.0,0.0,0.0,0.0,0.0,0.0,0.0,0.0,0.0,0.0,0.0,0.0,0.0,0.0,0.0,0.0,0.0,0.0,0.0,0.0,0.0,0.0,0.0,0.0,0.0,0.0,0.0,0.0,0.0,0.0,0.0,0.0,0.0,0.0,0.0,0.0,0.0,0.0,0.0,0.0,0.0,0.0,0.0,0.0,0.0,0.0,0.0,0.0,0.0,0.0,0.0,0.0,0.0,0.0,0.0,0.0,0.0,0.0,0.0,0.0,0.0,0.0,0.0,0.0,0.0,0.0,0.0,0.0,0.0,0.0,0.0,0.0,0.0,0.0,0.0,0.6989,0.582,0.4945,0.433,0.2825,0.1406,0.0,0.0,0.0,0.0,0.0,0.0,0.0,0.0,0.0,0.0,0.0,0.0,0.0,0.0,0.0,0.0,0.0,0.0,0.0,0.0,0.0,0.0,0.0,0.0,0.0,0.0,0.0,0.0,0.0,0.0,0.0,0.0,0.0,0.0,0.0,0.0,0.0,0.0,0.0,0.0,0.0,0.0,0.0,0.0,0.0,0.0,0.0,0.0,0.0,0.0,0.0,0.0,0.0,0.0,0.0,0.0,0.0,0.0,0.0,0.0,0.0,0.0,0.0,0.0,0.0,0.0,0.0,0.0,0.0,0.0,0.0,0.0,0.0,0.0,0.0,0.0,0.0,0.0,0.0,0.0,0.0,0.0,0.0,0.0,0.0,0.0,0.0,0.0,0.0,0.0,0.0,0.0,0.0,0.0,0.0,0.0,0.0,0.0,0.0,0.0,0.0,0.0,0.0,0.0,0.0,0.0,0.0,0.0,0.6478,0.5741,0.4093,0.2961,0.2397,0.1605,0.0325,0.0,0.0,0.0,0.0,0.0,0.0,0.0,0.0,0.0,0.0,0.0,0.0,0.0,0.0,0.0,0.0,0.0,0.0,0.0,0.0,0.0,0.0,0.0,0.0,0.0,0.0,0.0,0.0,0.0,0.0,0.0,0.0,0.0,0.0,0.0,0.0,0.0,0.0,0.0,0.0,0.0,0.0,0.0,0.0,0.0,0.0,0.0,0.0,0.0,0.0,0.0,0.0,0.0,0.0,0.0,0.0,0.0,0.0,0.0,0.0,0.0,0.0,0.0,0.0,0.0,0.0,0.0,0.0,0.0,0.0,0.0,0.0,0.0,0.0,0.0,0.0,0.0,0.0,0.0,0.0,0.0,0.0,0.0,0.0,0.0,0.0,0.0,0.0,0.0,0.0,0.0,0.0,0.0,0.0,0.0,0.0,0.0,0.0,0.0,0.0,0.0,0.0,0.0,0.0,0.0,0.0,0.0,0.0,0.4709,0.4294,0.1999,0.0499,-0.0138,-0.0042,-0.1095,0.0,0.0,0.0,0.0,0.0,0.0,0.0,0.0,0.0,0.0,0.0,0.0,0.0,0.0,0.0,0.0,0.0,0.0,0.0,0.0,0.0,0.0,0.0,0.0,0.0,0.0,0.0,0.0,0.0,0.0,0.0,0.0,0.0,0.0,0.0,0.0,0.0,0.0,0.0,0.0,0.0,0.0,0.0,0.0,0.0,0.0,0.0,0.0,0.0,0.0,0.0,0.0,0.0,0.0,0.0,0.0,0.0,0.0,0.0,0.0,0.0,0.0,0.0,0.0,0.0,0.0,0.0,0.0,0.0,0.0,0.0,0.0,0.0,0.0,0.0,0.0,0.0,0.0,0.0,0.0,0.0,0.0,0.0,0.0,0.0,0.0,0.0,0.0,0.0,0.0,0.0,0.0,0.0,0.0,0.0,0.0,0.0,0.0,0.0,0.0,0.0,0.0,0.0,0.0,0.0,0.0,0.0,0.0,0.4189,0.248,0.1655,0.0465,-0.1056,-0.1523,-0.2596,0.0,0.0,0.0,0.0,0.0,0.0,0.0,0.0,0.0,0.0,0.0,0.0,0.0,0.0,0.0,0.0,0.0,0.0,0.0,0.0,0.0,0.0,0.0,0.0,0.0,0.0,0.0,0.0,0.0,0.0,0.0,0.0,0.0,0.0,0.0,0.0,0.0,0.0,0.0,0.0,0.0,0.0,0.0,0.0,0.0,0.0,0.0,0.0,-0.8359,0.0,0.0,0.0,0.0,0.0,0.0,0.0,0.0,0.0,0.0,0.0,0.0,0.0,0.0,0.0,0.0,0.0,0.0,0.0,0.0,0.0,0.0,0.0,0.0,0.0,0.0,0.0,0.0,0.0,0.0,0.0,0.0,0.0,0.0,0.0,0.0,0.0,0.0,0.0,0.0,0.0,0.0,0.0,0.0,0.0,0.0,0.0,0.0,0.0,0.0,0.0,0.0,0.0,0.0,0.0,0.0,0.0,0.0,0.0,0.286,0.0498,-0.014,-0.1133,-0.2658,-0.4154,-0.5195,0.0,0.0,0.0,0.0,0.0,0.0,0.0,0.0,0.0,0.0,0.0,0.0,0.0,0.0,0.0,0.0,0.0,0.0,0.0,0.0,0.0,0.0,0.0,0.0,0.0,0.0,0.0,0.0,0.0,0.0,0.0,0.0,0.0,0.0,0.0,0.0,0.0,0.0,0.0,0.0,0.0,0.0,0.0,0.0,0.0,0.0,0.0,0.0,0.0,0.0,0.0,0.0,0.0,0.0,0.0,0.0,0.0,0.0,0.0,0.0,0.0,0.0,0.0,0.0,0.0,0.0,0.0,0.0,0.0,0.0,0.0,0.0,0.0,0.0,0.0,0.0,0.0,0.0,0.0,0.0,0.0,0.0,0.0,0.0,0.0,0.0,0.0,0.0,0.0,0.0,0.0,0.0,0.0,0.0,0.0,0.0,0.0,0.0,0.0,0.0,0.0,0.0,0.0,0.0,0.0,0.0,0.0,0.3247,0.1292,-0.1528,-0.2183,-0.3018,-0.4186,-0.6744,-0.7789,-0.715,0.0,0.0,0.0,0.0,0.0,0.0,0.0,0.0,0.0,0.0,0.0,0.0,0.0,0.0,0.0,0.0,0.0,0.0,0.0,0.0,0.0,0.0,0.0,0.0,0.0,0.0,0.0,0.0,0.0,0.0,0.0,0.0,0.0,0.0,0.0,0.0,0.0,0.0,-0.605,-0.6757,0.0,0.0,0.0,0.0,0.0,0.0,0.0,0.0,-0.8074,0.0,0.0,0.0,0.0,0.0,0.0,0.0,0.0,0.0,0.0,0.0,0.0,0.0,0.0,0.0,0.0,0.0,0.0,0.0,0.0,0.0,0.0,0.0,0.0,0.0,0.0,0.0,0.0,0.0,0.0,0.0,0.0,0.0,0.0,0.0,0.0,0.0,0.0,0.0,0.0,0.0,0.0,0.0,0.0,0.0,0.0,0.0,0.0,0.0,0.0,0.0,0.0,0.0,0.0,0.0,0.0,0.2838,0.2483,0.0508,-0.3266,-0.3188,-0.3491,-0.447,-0.7165,-0.8426,-0.7987,0.0,0.0,0.0,0.0,0.0,0.0,0.0,0.0,0.0,0.0,0.0,0.0,0.0,0.0,0.0,0.0,0.0,0.0,0.0,0.0,0.0,0.0,0.0,0.0,0.0,0.0,0.0,0.0,0.0,0.0,0.0,0.0,0.0,0.0,0.0,0.0,0.0,0.0,0.0,-0.6681,-0.694,0.0,0.0,0.0,0.0,0.0,0.0,0.0,0.0,-0.8132,0.0,0.0,0.0,0.0,0.0,0.0,0.0,0.0,0.0,0.0,0.0,0.0,0.0,0.0,0.0,0.0,0.0,0.0,0.0,0.0,0.0,0.0,0.0,0.0,0.0,0.0,0.0,0.0,0.0,0.0,0.0,0.0,0.0,0.0,0.0,0.0,0.0,0.0,0.0,0.0,0.0,0.0,0.0,0.0,0.0,0.0,0.0,0.0,0.0,0.0,0.0,0.0,0.0,0.0,0.0,0.2202,0.0801,-0.137,-0.4394,-0.4072,-0.4662,-0.6441,-0.823,-0.9222,0.0,0.0,0.0,0.0,0.0,0.0,0.0,0.0,0.0,0.0,0.0,0.0,0.0,0.0,0.0,0.0,0.0,0.0,0.0,0.0,0.0,0.0,0.0,0.0,0.0,0.0,0.0,0.0,0.0,0.0,0.0,0.0,0.0,0.0,0.0,0.0,0.0,0.0,0.0,0.0,-0.6571,-0.702,-0.7622,0.0,0.0,0.0,0.0,0.0,0.0,-0.8219,-0.7859,0.0,0.0,0.0,0.0,0.0,0.0,0.0,0.0,0.0,0.0,0.0,0.0,0.0,0.0,0.0,0.0,0.0,0.0,0.0,0.0,0.0,0.0,0.0,0.0,0.0,0.0,0.0,0.0,0.0,0.0,0.0,0.0,0.0,0.0,0.0,0.0,0.0,0.0,0.0,0.0,0.0,0.0,0.0,0.0,0.0,0.0,0.0,0.0,0.0,0.0,0.0,0.0,0.0,0.0,0.0,0.1779,-0.0633,-0.2938,-0.5045,-0.4885,-0.5817,-0.8021,-0.9109,-0.9931,0.0,0.0,0.0,0.0,0.0,0.0,0.0,0.0,0.0,0.0,0.0,0.0,0.0,0.0,0.0,0.0,0.0,0.0,0.0,0.0,0.0,0.0,0.0,0.0,0.0,0.0,0.0,0.0,0.0,0.0,0.0,0.0,0.0,0.0,0.0,0.0,0.0,0.0,0.0,0.0,0.0,-0.7056,-0.7629,-0.7973,0.0,0.0,0.0,0.0,-0.8131,-0.7845,0.0,0.0,0.0,0.0,0.0,0.0,0.0,0.0,0.0,0.0,0.0,0.0,0.0,0.0,0.0,0.0,0.0,0.0,0.0,0.0,0.0,0.0,0.0,0.0,0.0,0.0,0.0,0.0,0.0,0.0,0.0,0.0,0.0,0.0,0.0,0.0,0.0,0.0,0.0,0.0,0.0,0.0,0.0,0.0,0.0,0.0,0.0,0.0,0.0,0.0,0.0,0.0,0.0,0.0,0.0,0.0,0.166,-0.0555,-0.2833,-0.4997,-0.557,-0.6311,-0.7311,-0.9227,-1.018,0.0,0.0,0.0,0.0,0.0,0.0,0.0,0.0,0.0,0.0,0.0,0.0,0.0,0.0,0.0,0.0,0.0,0.0,0.0,0.0,0.0,0.0,0.0,0.0,0.0,0.0,0.0,0.0,0.0,0.0,0.0,0.0,0.0,0.0,0.0,0.0,0.0,0.0,0.0,0.0,0.0,-0.6752,-0.7593,-0.7745,-0.7778,0.0,0.0,-0.7428,-0.7635,-0.7507,0.0,0.0,0.0,0.0,0.0,0.0,0.0,0.0,0.0,0.0,0.0,0.0,0.0,0.0,0.0,0.0,0.0,0.0,0.0,0.0,0.0,0.0,0.0,0.0,0.0,0.0,0.0,0.0,0.0,0.0,0.0,0.0,0.0,0.0,0.0,0.0,0.0,0.0,0.0,0.0,0.0,0.0,0.0,0.0,0.0,0.0,0.0,0.0,0.0,0.0,0.0,0.0,0.0,0.0,0.0,0.3224,0.1376,-0.1925,-0.4182,-0.5228,-0.6305,-0.7521,-0.8867,-1.0021,-1.0911,0.0,0.0,0.0,0.0,0.0,0.0,0.0,0.0,0.0,0.0,0.0,0.0,0.0,0.0,0.0,0.0,0.0,0.0,0.0,0.0,0.0,0.0,0.0,0.0,0.0,0.0,0.0,0.0,0.0,0.0,0.0,0.0,0.0,0.0,0.0,0.0,0.0,0.0,0.0,0.0,0.0,0.0,-0.724,-0.7678,0.0,0.0,0.0,-0.6647,-0.6738,0.0,0.0,0.0,0.0,0.0,0.0,0.0,0.0,0.0,0.0,0.0,0.0,0.0,0.0,0.0,0.0,0.0,0.0,0.0,0.0,0.0,0.0,0.0,0.0,0.0,0.0,0.0,0.0,0.0,0.0,0.0,0.0,0.0,0.0,0.0,0.0,0.0,0.0,0.0,0.0,0.0,0.0,0.0,0.0,0.0,0.0,0.0,0.0,0.0,0.0,0.0,0.0,0.0,0.0,0.0,0.0,0.0,0.1396,-0.2901,-0.5299,-0.5775,-0.7228,-0.8779,-1.0331,-1.0941,0.0,0.0,0.0,0.0,0.0,0.0,0.0,0.0,0.0,0.0,0.0,0.0,0.0,0.0,0.0,0.0,0.0,0.0,0.0,0.0,0.0,0.0,0.0,0.0,0.0,0.0,0.0,-0.3696,0.0,0.0,0.0,0.0,0.0,0.0,0.0,0.0,0.0,0.0,0.0,0.0,0.0,0.0,-0.6331,-0.696,-0.752,-0.786,0.0,0.0,-0.5958,-0.5975,-0.5101,-0.459,0.0,0.0,0.0,0.0,0.0,0.0,0.0,0.0,0.0,0.0,0.0,0.0,0.0,0.0,0.0,0.0,0.0,0.0,0.0,0.0,0.0,0.0,0.0,0.0,0.0,0.0,0.0,0.0,0.0,0.0,0.0,0.0,0.0,0.0,0.0,0.0,0.0,0.0,0.0,0.0,0.0,0.0,0.0,0.0,0.0,0.0,0.0,0.0,0.0,0.0,0.0,0.0,0.0,0.0,0.301,0.1679,-0.2601,-0.5528,-0.7043,-0.8374,-0.9641,-1.0819,-1.1769,-1.2069,0.0,0.0,0.0,0.0,0.0,0.0,0.0,0.0,0.0,0.0,0.0,0.0,0.0,0.0,0.0,0.0,0.0,0.0,0.0,0.0,0.0,0.0,0.0,0.0,0.0,0.0,0.0,0.0,0.0,0.0,0.0,0.0,0.0,0.0,0.0,0.0,0.0,0.0,0.0,0.0,0.0,-0.615,-0.6813,-0.7139,-0.7371,0.0,-0.6409,-0.5577,-0.5702,-0.4919,-0.448,-0.5033,0.0,0.0,0.0,0.0,0.0,0.0,0.0,0.0,0.0,0.0,0.0,0.0,0.0,0.0,0.0,0.0,0.0,0.0,0.0,0.0,0.0,0.0,0.0,0.0,0.0,0.0,0.0,0.0,0.0,0.0,0.0,0.0,0.0,0.0,0.0,0.0,0.0,0.0,0.0,0.0,0.0,0.0,0.0,0.0,0.0,0.0,0.0,0.0,0.0,0.0,0.0,0.0,0.0,0.4826,0.2429,-0.1266,-0.4508,-0.7112,-0.8529,-0.9868,-1.1108,-1.2149,-1.2507,0.0,0.0,0.0,0.0,0.0,0.0,0.0,0.0,0.0,0.0,0.0,0.0,0.0,0.0,0.0,0.0,0.0,0.0,0.0,0.0,0.0,0.0,0.0,0.0,0.0,0.0,0.0,0.0,-0.404,-0.3967,-0.2707,0.0,0.0,0.0,0.0,0.0,0.0,0.0,0.0,0.0,0.0,-0.62,-0.7145,-0.6839,0.0,0.0,-0.5454,-0.4223,-0.5195,-0.4215,-0.369,-0.4836,-0.5403,0.0,0.0,0.0,0.0,0.0,0.0,0.0,0.0,0.0,0.0,0.0,0.0,0.0,0.0,0.0,0.0,0.0,0.0,0.0,0.0,0.0,0.0,0.0,0.0,0.0,0.0,0.0,0.0,0.0,0.0,0.0,0.0,0.0,0.0,0.0,0.0,0.0,0.0,0.0,0.0,0.0,0.0,0.0,0.0,0.0,0.0,0.0,0.0,0.0,0.0,0.0,0.0,0.775,0.5416,0.0827,-0.2961,-0.5736,-0.8605,-1.0654,-1.1887,-1.2566,-1.2843,0.0,0.0,0.0,0.0,0.0,0.0,0.0,0.0,0.0,0.0,0.0,0.0,0.0,0.0,0.0,0.0,0.0,0.0,0.0,0.0,0.0,0.0,0.0,0.0,0.0,0.0,0.0,0.0,-0.3627,-0.3479,-0.27,0.0,0.0,0.0,0.0,0.0,0.0,0.0,0.0,0.0,0.0,-0.6202,-0.7127,-0.6739,-0.653,-0.7212,-0.5194,-0.3934,-0.5032,-0.4124,-0.383,-0.5352,0.0,0.0,0.0,0.0,0.0,0.0,0.0,0.0,0.0,0.0,0.0,0.0,0.0,0.0,0.0,0.0,0.0,0.0,0.0,0.0,0.0,0.0,0.0,0.0,0.0,0.0,0.0,0.9284,0.0,0.0,0.9493,0.0,0.0,0.0,0.0,0.0,0.0,0.0,0.0,0.0,0.0,0.0,0.0,0.0,0.0,0.0,0.0,0.0,0.0,0.0,0.0,0.0,0.0,1.1863,1.1305,0.3888,-0.0848,-0.2578,-0.8536,-1.2045,-1.3162,-1.3172,-1.3025,-1.2969,0.0,0.0,0.0,0.0,0.0,0.0,0.0,0.0,0.0,0.0,0.0,0.0,0.0,0.0,0.0,0.0,0.0,0.0,0.0,0.0,0.0,0.0,0.0,0.0,0.0,0.0,-0.3977,-0.282,-0.2226,0.0,0.0,0.0,0.0,0.0,0.0,0.0,0.0,0.0,-0.4579,-0.5394,-0.6132,-0.6744,-0.6912,-0.6912,-0.6839,-0.5855,-0.5204,-0.5398,-0.4991,-0.5162,0.0,0.0,0.0,0.0,0.0,0.0,0.0,0.0,0.0,0.0,0.0,0.0,0.0,0.0,0.0,0.0,0.0,0.0,0.0,0.0,0.0,0.0,0.0,0.0,0.0,0.0,0.0,0.718,0.7176,0.0,0.0,0.0,0.0,0.0,0.0,0.0,0.0,0.0,0.0,0.0,0.9303,1.0065,0.0,0.0,0.0,0.0,0.0,0.0,0.0,0.0,0.0,0.0,0.0,0.0,1.4754,1.3258,0.9979,0.6939,0.4129,-0.2023,-0.5855,-0.7084,-1.0979,-1.2903,-1.257,0.0,0.0,0.0,0.0,0.0,0.0,0.0,0.0,0.0,0.0,0.0,0.0,0.0,0.0,0.0,0.0,0.0,0.0,0.0,0.0,0.0,0.0,0.0,0.0,0.0,-0.4443,0.0,0.0,0.0,0.0,0.0,0.0,0.0,0.0,0.0,0.0,-0.3073,-0.397,-0.51,-0.5623,-0.6214,-0.7062,-0.6626,-0.6513,0.0,0.0,0.0,0.0,0.0,0.0,0.0,0.0,0.0,0.0,0.0,0.0,0.0,0.0,-1.3766,-1.3041,-1.3441,-1.402,-1.4436,0.0,0.0,0.0,0.0,0.0,0.0,0.0,0.0,0.0,0.0,0.0,0.0,0.0,0.0,0.537,0.0,0.5558,0.0,0.0,0.0,0.0,0.0,0.0,0.0,0.0,0.4191,0.5511,0.8049,0.8581,1.103,0.0,1.5928,1.6341,0.0,0.0,0.0,0.0,0.0,0.0,0.0,0.0,1.8607,1.7278,1.4709,1.2338,0.9927,0.1702,-0.2888,-0.3297,-0.9395,-1.2662,-1.2505,-1.2936,-1.2361,0.0,0.0,0.0,0.0,0.0,0.0,0.0,0.0,0.0,0.0,0.0,0.0,0.0,0.0,0.0,0.0,0.0,0.0,0.0,0.0,0.0,0.0,0.0,-0.4702,0.0,0.0,0.0,0.0,0.0,0.0,0.0,0.0,0.0,-0.2838,-0.355,-0.4402,-0.5413,-0.5955,-0.6507,-0.7228,0.0,0.0,0.0,0.0,0.0,0.0,0.0,-0.8743,-0.9962,-1.1088,-1.2022,-1.2479,-1.3577,-1.4555,-1.4993,0.0,0.0,-1.5534,-1.5799,-1.6436,-1.6853,-1.7765,-1.8571,-1.8891,-1.9989,-2.1272,0.0,0.0,0.0,0.0,0.0,0.0,0.0,0.0,0.399,0.4113,0.0,0.4061,0.0,0.0,0.0,0.0,0.5048,0.3652,0.0,0.0,0.0594,0.2716,0.9194,0.6715,0.834,1.3826,1.5364,1.5308,1.43,1.8294,0.0,0.0,0.0,0.0,0.0,0.0,2.331,2.3125,1.827,1.557,1.5253,0.3275,-0.2872,-0.2222,-0.8556,-1.2272,-1.2741,-1.2036,-1.1531,-1.1436,-0.8858,0.0,0.0,0.0,0.0,0.0,0.0,0.0,0.0,0.0,0.0,0.0,0.0,0.0,0.0,0.0,0.0,0.0,0.0,0.0,0.0,-0.4674,0.0,0.0,0.0,0.0,0.0,0.0,0.0,0.0,0.0,-0.3032,-0.3071,-0.3836,-0.4695,-0.5582,0.0,0.0,0.0,0.0,-0.7352,-0.6929,-0.7034,-0.7299,-0.7716,-0.9137,-1.0542,-1.1624,0.0,0.0,-1.47,-1.5528,-1.6272,-1.6711,-1.8503,-1.9532,-1.8097,-1.8169,-1.8655,-1.934,-2.0411,-2.1302,-2.1857,-2.2838,-2.4132,0.4676,0.0,0.0,0.0,0.0,0.3578,0.2906,0.2127,0.2041,0.1982,0.2103,0.2339,0.0,0.0,0.0,0.0,0.0,0.0,0.4196,0.2962,0.3365,0.4653,0.6551,0.6537,0.8939,1.3402,1.4083,1.5695,1.8189,2.0879,2.1642,2.066,0.0,0.0,0.0,0.0,2.5959,2.6366,2.5098,2.4387,2.4341,1.6388,0.7882,-0.0814,-0.8706,-1.2216,-1.0906,-1.3043,-1.2705,-0.9552,-0.9515,0.0,0.0,0.0,0.0,0.0,0.0,0.0,0.0,0.0,0.0,0.0,0.0,0.0,0.0,0.0,0.0,0.0,0.0,0.0,-0.4078,-0.4648,-0.4835,0.0,0.0,0.0,0.0,0.0,0.0,0.0,0.0,0.0,-0.3756,-0.4207,-0.4779,0.0,0.0,-0.6173,-0.6657,-0.6299,-0.6456,-0.7689,-0.7421,0.0,-0.887,-0.972,-1.0755,-1.2274,-1.4061,-1.5648,-1.6678,-1.7626,-1.8621,-1.9576,-2.0916,-2.1725,-2.1593,-2.1187,-2.1237,-2.2,-2.3026,-2.4022,-2.4847,-2.6156,-2.7525,0.2019,0.2472,0.2833,0.2804,0.2427,0.2075,0.1478,0.0825,0.0722,0.0718,0.0813,0.0971,0.1471,0.2091,0.3257,0.0,0.0,0.0,0.5246,0.3662,0.6047,0.7163,0.7214,0.8494,1.0507,1.3062,1.4123,1.5441,1.7042,2.1361,2.223,2.0039,0.0,2.6756,2.8119,2.8144,2.8322,2.8768,2.8916,2.8995,2.888,2.0883,1.0246,-0.2732,-0.763,-0.9349,-0.824,-1.0132,-0.9951,-0.7349,-0.7398,-0.6513,0.0,0.0,0.0,0.0,0.0,0.0,0.0,0.0,0.0,0.0,0.0,-0.3272,-0.3302,0.0,0.0,0.0,-0.3976,-0.4208,-0.5349,-0.5205,0.0,0.0,0.0,0.0,0.0,0.0,0.0,-0.32,-0.3546,-0.4001,-0.4309,-0.4605,-0.4943,-0.5534,-0.5566,-0.5917,-0.6791,0.0,-0.6599,-0.8157,-0.8049,-0.8188,-0.9323,-1.0578,-1.2034,-1.4015,-1.5344,-1.6404,-1.7159,-1.8559,-1.982,-2.0662,-2.1982,-2.3117,-2.3288,-2.3323,-2.3318,-2.3497,-2.4527,-2.5595,-2.6092,-2.7883,-2.9617,0.0,0.0176,0.1323,0.1558,0.1074,0.0859,0.043,0.0,0.0,0.0161,0.0322,0.0109,0.0489,0.1395,0.3159,0.0,0.3222,0.5877,0.6528,0.5585,0.851,0.9999,1.0318,1.1837,1.276,1.3119,1.5167,1.5059,1.3593,2.0569,2.2659,1.9943,2.532,2.8733,2.9873,3.028,3.046,3.0529,3.0526,3.0599,3.0409,1.9317,0.7237,-0.5134,-0.5459,-0.5356,-0.5307,-0.5258,-0.5107,-0.5044,-0.3772,-0.2961,-0.2691,0.0,0.0,0.0,0.0,0.0,0.0,0.0,0.0,0.0,0.0,0.0,0.0,0.0,0.0,0.0,-0.4622,0.0,-0.7328,-0.5903,0.0,0.0,0.0,-0.4268,-0.4009,-0.4013,-0.4083,-0.4105,0.0,0.0,-0.4742,-0.4949,-0.5234,-0.5743,-0.5585,-0.5894,-0.7269,-0.7105,-0.729,-0.8399,-0.8709,-0.8955,-0.9429,-1.1397,-1.37,-1.5875,-1.6767,-1.7048,-1.7372,-1.9016,-2.0336,-2.0773,-2.2398,-2.3857,-2.3857,-2.481,-2.5237,-2.4263,-2.5313,-2.6473,-2.6917,-2.8848,-3.0838,0.0176,0.0412,0.0464,0.0403,0.0288,0.023,0.0114,0.0,0.0,0.0056,0.0111,0.0056,0.0672,0.1863,0.3269,0.3805,0.3848,0.7707,0.8852,0.7974,1.088,1.2316,1.241,1.2749,1.3573,1.4765,1.6228,1.7185,1.7917,2.2002,2.4334,2.4952,2.7761,2.9279,2.9478,3.1101,3.2066,3.2277,3.2675,3.298,3.272,1.9974,1.1442,0.8132,-0.2536,-0.7401,-0.5568,-0.7164,-0.676,-0.4024,-0.4375,-0.3962,-0.246,-0.232,0.0,0.0,0.0,0.0,0.0,0.0,0.0,0.0,0.0,-0.3516,-0.3582,0.0,-0.4312,0.0,-0.4594,-0.4786,-0.4746,-0.4942,0.0,0.0,-0.4918,-0.4665,-0.4601,-0.4623,-0.4589,-0.4347,-0.4684,-0.4871,-0.496,-0.5085,-0.5319,-0.5734,-0.5643,-0.5968,-0.6983,-0.6528,-0.6807,-0.8545,-0.8558,-0.8503,-0.97,-1.186,-1.4035,-1.5642,-1.7377,-1.9004,-1.989,-2.1305,-2.2624,-2.3474,-2.4098,-2.4758,-2.536,-2.5793,-2.6136,-2.6476,-2.7366,-2.858,-3.0013,-3.1466,-3.2761,0.0614,0.0553,0.086,0.0798,0.049,0.0179,0.0,0.0,0.0,0.0352,0.0995,0.1637,0.3162,0.5354,0.5873,0.6487,0.7396,1.0285,1.1228,1.0725,1.3126,1.4309,1.4467,1.5237,1.632,1.7655,1.841,1.9292,2.0536,2.3436,2.491,2.4978,2.8163,2.9682,2.958,3.1699,3.3046,3.3595,3.4359,3.1617,2.5185,1.8037,1.1262,0.474,-0.2716,-0.5966,-0.4258,-0.5286,-0.4794,-0.2521,-0.2815,-0.2525,-0.1379,-0.1333,-0.1329,0.0,0.0,0.0,0.0,0.0,0.0,0.0,0.0,0.0,0.0,0.0,-0.4493,-0.4461,-0.4673,-0.4691,-0.4402,-0.4731,-0.5064,-0.523,-0.5122,-0.5083,-0.5076,-0.515,-0.5156,-0.5024,-0.5257,-0.544,-0.5393,-0.5915,-0.6129,-0.5904,-0.6654,-0.712,-0.6616,-0.6344,-0.6858,-0.8371,-0.8666,-0.9444,-1.1201,-1.2766,-1.4321,-1.6161,-1.804,-1.955,-2.0228,-2.1828,-2.3199,-2.3904,-2.474,-2.5514,-2.6045,-2.6789,-2.7438,-2.796,-2.8846,-2.9843,-3.0703,-3.2476,-3.4091,0.129,0.0775,0.1806,0.1869,0.1284,0.0671,0.03,0.0183,0.0487,0.1407,0.2845,0.3897,0.6399,0.966,0.9137,0.9876,1.1639,1.3057,1.3624,1.3588,1.5318,1.6335,1.6739,1.8226,1.96,2.0766,2.1006,2.1436,2.2053,2.4739,2.507,2.3394,2.7407,2.9509,2.9656,3.1798,3.3536,3.4597,3.5128,2.908,1.6366,1.5517,0.9103,-0.3307,-0.4019,-0.3628,-0.2845,-0.2497,-0.1919,-0.1123,-0.0747,-0.0395,0.0,-0.0215,-0.0416,0.0,-0.113,0.0,0.0,0.0,0.0,0.0,0.0,0.0,0.0,-0.4432,-0.4604,-0.4709,-0.472,-0.479,-0.5001,-0.5006,-0.5088,-0.5407,-0.5467,-0.5471,-0.5488,-0.5618,-0.5737,-0.5806,-0.5896,-0.5945,-0.5929,-0.6816,-0.7031,-0.6474,-0.7754,-0.8232,-0.6779,-0.6931,-0.7613,-0.815,-0.9313,-1.1004,-1.3054,-1.3861,-1.4908,-1.7291,-1.8823,-1.955,-1.9954,-2.1831,-2.3336,-2.3577,-2.5027,-2.628,-2.6409,-2.779,-2.8832,-2.9086,-3.0245,-3.1053,-3.0967,-3.2701,-3.4625,0.1677,0.1806,0.2064,0.2451,0.2768,0.2675,0.1968,0.1019,0.2987,0.4886,0.6341,0.522,0.7103,1.0904,0.9576,1.0406,1.3154,1.4919,1.5689,1.5784,1.7628,1.8918,1.9777,2.0093,2.0777,2.1853,2.3435,2.3838,2.3251,2.5388,2.6083,2.5489,2.6533,2.7356,2.8208,0.0,0.0,0.0,3.3334,3.0113,2.5884,1.6202,0.8823,0.3991,-0.2491,0.0,-0.4643,-0.4203,-0.3167,-0.1501,-0.1074,0.0,0.0,0.0,0.0,0.0,0.0,0.0,0.0,0.0,0.0,0.0,-0.4436,-0.4464,-0.4327,-0.4108,-0.4008,-0.4086,-0.4177,-0.4357,-0.4733,-0.5199,-0.5566,-0.5835,-0.5863,-0.5953,-0.6019,-0.6055,-0.6063,-0.6006,-0.608,-0.6104,-0.6051,-0.629,-0.6723,-0.7272,-0.7816,-0.8076,-0.8028,-0.8649,-0.9482,-1.0188,-1.104,-1.2416,-1.3918,-1.4952,-1.6375,-1.8695,-2.0078,-2.1074,-2.2131,-2.3658,-2.4918,-2.4975,-2.6105,-2.732,-2.7996,-2.9095,-3.0048,-3.0765,-3.2319,-3.3503,-3.3012,-3.3679,-3.4904,0.2109,0.2175,0.2766,0.3292,0.0,0.4473,0.421,0.3286,0.4172,0.6523,0.9661,0.8782,1.1033,1.5485,1.3012,1.3674,1.6721,1.8189,1.9128,1.9695,2.0657,2.1883,2.3374,2.2332,2.2666,2.4116,2.4558,2.4826,2.492,2.5862,2.63,2.6175,2.6228,2.7034,2.8541,2.9852,3.1528,3.3508,2.9944,2.5594,2.0301,1.2142,0.5504,0.0696,-0.447,0.0,0.0,0.0,0.0,0.0,0.0,0.0,0.0,0.0402,0.0,-0.0602,-0.1365,-0.2301,-0.3371,-0.4012,-0.4641,-0.5157,-0.5286,-0.5227,-0.489,-0.4464,-0.4453,-0.4829,-0.4621,-0.4671,-0.529,-0.5565,-0.579,-0.5964,-0.5988,-0.6025,-0.6166,-0.6219,-0.6247,-0.6259,-0.6288,-0.6296,-0.6255,-0.6736,-0.7266,-0.7811,-0.8815,-0.9571,-0.9812,-0.9838,-1.0035,-1.0621,-1.178,-1.308,-1.4371,-1.5782,-1.7564,-2.0055,-2.1477,-2.2572,-2.3885,-2.5136,-2.603,-2.6333,-2.7221,-2.8257,-2.9159,-3.0127,-3.0866,-3.1436,-3.2814,-3.4062,-3.4163,-3.4976,-3.603,0.2577,0.2509,0.3458,0.4065,0.4603,0.5889,0.6294,0.5945,0.5258,0.0,0.0,1.1873,1.4607,1.9201,1.632,1.6803,1.9881,2.0987,2.2003,2.2827,2.3,2.4207,2.6152,2.4272,2.4416,2.6407,2.5576,2.5479,2.62,2.6328,2.6567,2.6806,2.6806,2.7706,2.9393,2.9125,2.9061,2.9165,2.5612,2.0186,1.3044,0.7944,0.2262,-0.415,-0.5985,-0.6862,-0.6653,-0.6058,-0.4903,-0.3109,-0.2172,-0.1042,0.0299,0.0476,0.0,-0.1164,-0.1971,-0.3036,-0.4578,-0.4885,-0.5305,-0.5891,-0.6035,-0.5878,-0.5471,-0.4993,-0.5021,-0.569,-0.5211,-0.5126,-0.5835,-0.5972,-0.6027,-0.6049,-0.6061,-0.6157,-0.6223,-0.6292,-0.6366,-0.6506,-0.651,-0.6585,-0.6773,-0.7522,-0.8246,-0.8706,-1.0101,-1.1518,-1.1755,-1.1323,-1.0969,-1.1272,-1.2873,-1.4261,-1.5286,-1.6785,-1.8787,-2.165,-2.275,-2.3716,-2.5266,-2.621,-2.6898,-2.7548,-2.8401,-2.9432,-3.0399,-3.1345,-3.1968,-3.2169,-3.3329,-3.456,-3.5355,-3.6596,-3.7578,0.2927,0.3277,0.3695,0.4458,0.5497,0.6333,0.7304,0.8336,0.7596,0.9176,1.2329,1.1262,1.3448,1.7825,1.5847,1.6803,1.9881,2.1053,2.1569,2.1753,2.2673,2.4222,2.6136,2.4997,2.5479,2.7347,2.7267,2.6838,2.6344,2.7029,2.7991,2.8968,2.9075,2.9375,2.9782,2.7882,2.5455,2.2681,2.0203,1.8678,1.7843,0.8821,0.2522,-0.0599,-0.2511,-0.4207,-0.5835,-0.4409,-0.3215,-0.2692,-0.1922,-0.1018,-0.0063,-0.0679,-0.104,-0.0854,-0.2833,-0.418,-0.4357,-0.5306,-0.5914,-0.6133,-0.6157,-0.6121,-0.5902,-0.5452,-0.5146,-0.5227,-0.515,-0.5219,-0.5418,-0.5935,-0.6284,-0.6374,-0.6394,-0.6402,-0.6473,-0.6485,-0.6502,-0.6522,-0.6522,-0.6857,-0.7608,-0.807,-0.8929,-1.0483,-1.1382,-1.2247,-1.3382,-1.3984,-1.362,-1.3501,-1.5327,-1.6959,-1.7505,-1.8676,-2.0682,-2.3218,-2.3688,-2.4626,-2.6995,-2.7444,-2.7931,-2.8805,-2.9916,-3.1043,-3.2118,-3.3089,-3.398,-3.4898,-3.5821,-3.6703,-3.7632,-3.8578,-3.9013,0.3134,0.3645,0.3858,0.4765,0.6298,0.7413,0.8253,0.9023,0.9914,1.1082,1.2475,1.3096,1.5123,1.7871,1.7172,1.8147,2.0384,2.1839,2.2835,2.349,2.5069,2.6954,2.8764,2.8089,2.8171,2.9025,2.851,2.8364,2.8571,2.7847,2.8956,3.1875,3.2104,3.1034,2.8898,2.6727,2.4486,2.2171,1.6899,1.3862,1.3062,0.5312,0.0474,-0.0881,-0.2612,-0.4057,-0.5185,-0.4427,-0.3677,-0.2936,-0.2607,-0.2007,-0.1023,-0.1522,-0.2083,-0.2523,-0.3854,-0.4852,-0.5476,-0.6031,-0.6415,-0.6406,-0.6402,-0.6366,-0.628,-0.5609,-0.5411,-0.5812,-0.5522,-0.5488,-0.5922,-0.6257,-0.6411,-0.6514,-0.6522,-0.6522,-0.6522,-0.6522,-0.6539,-0.6517,-0.6529,-0.7021,-0.8156,-0.8344,-0.9205,-1.1275,-1.2229,-1.309,-1.3783,-1.5108,-1.569,-1.5105,-1.6588,-1.8347,-1.9436,-2.0822,-2.3001,-2.6002,-2.615,-2.6933,-2.9013,-2.9386,-2.9661,-3.0785,-3.1648,-3.2634,-3.4051,-3.48,-3.562,-3.6755,-3.778,-3.8456,-3.8792,-3.926,-3.9722,0.3853,0.4455,0.4455,0.544,0.7125,0.8399,0.903,0.9386,1.1643,1.2748,1.3161,1.498,1.6758,1.8331,1.8412,1.9251,2.0804,2.2585,2.3992,2.5315,2.7569,2.9622,3.1322,3.124,3.0872,3.0372,3.0095,3.0236,3.0459,2.9344,3.0828,3.4677,3.5496,3.3647,2.9468,2.6019,2.3579,2.1727,1.3857,0.94,0.8878,0.3099,-0.0344,-0.117,-0.259,-0.3794,-0.4403,-0.4257,-0.3761,-0.306,-0.3113,-0.2631,-0.1498,-0.2269,-0.3049,-0.3786,-0.4673,-0.5597,-0.6441,-0.6643,-0.6696,-0.6627,-0.6623,-0.659,-0.6521,-0.5915,-0.5815,-0.6313,-0.5975,-0.5919,-0.6345,-0.6484,-0.6492,-0.6576,-0.6652,-0.666,-0.6584,-0.6648,-0.6673,-0.6675,-0.6825,-0.7539,-0.8506,-0.9104,-1.0177,-1.1977,-1.3122,-1.3552,-1.3928,-1.5854,-1.6907,-1.7156,-1.7914,-1.9542,-2.1289,-2.2616,-2.4785,-2.8048,-2.8081,-2.8748,-3.0329,-3.0692,-3.1188,-3.2396,-3.293,-3.3861,-3.5731,-3.626,-3.6925,-3.8275,-3.9207,-3.9666,-3.989,-4.0415,-4.0977,0.5788,0.6163,0.6083,0.6885,0.803,0.8904,0.9479,1.0126,1.228,1.3626,1.4381,1.553,1.7027,1.8272,1.8482,1.9332,2.0873,2.2585,2.4128,2.5704,2.8622,3.0689,3.1918,3.3199,3.2631,3.0918,3.2549,3.2593,3.1258,3.2826,3.4821,3.7358,3.9487,3.8199,3.3719,2.6422,2.1503,1.9207,1.0352,0.7446,1.0603,0.5833,0.2161,0.0348,-0.0558,-0.1745,-0.334,-0.2483,-0.2125,-0.2326,-0.2635,-0.2012,-0.0736,-0.2911,-0.3919,-0.2786,-0.4925,-0.6449,-0.668,-0.6717,-0.6729,-0.6717,-0.6713,-0.6709,-0.6696,-0.6619,-0.6546,-0.6509,-0.646,-0.6433,-0.6566,-0.6578,-0.6607,-0.6668,-0.6957,-0.7118,-0.6758,-0.6979,-0.7122,-0.6709,-0.7613,-0.8724,-0.9729,-1.0861,-1.2178,-1.3491,-1.3886,-1.4478,-1.5397,-1.6545,-1.791,-1.8927,-2.012,-2.1421,-2.2874,-2.3774,-2.5651,-2.78,-2.8279,-2.9279,-3.0735,-3.1313,-3.1377,-3.3336,-3.3808,-3.4697,-3.6346,-3.7238,-3.8089,-4.009,-4.0769,-4.076,-4.2065,-4.2816,-4.3241,0.6357,0.6769,0.6769,0.7421,0.8507,0.959,1.0383,1.1168,1.406,1.575,1.6666,1.8997,1.9993,1.9785,2.0213,2.0988,2.2104,2.3652,2.4926,2.6121,2.9327,3.1524,3.2796,3.424,3.4365,3.3575,3.4614,3.5026,3.5374,3.7732,3.8267,3.697,4.0082,3.7933,3.0187,2.4853,1.9723,1.4241,0.8035,0.5815,0.7048,0.4034,0.1837,0.106,-0.0843,-0.2032,-0.2311,-0.1953,-0.201,-0.2819,-0.3345,-0.3537,-0.3265,-0.487,-0.558,-0.4989,-0.6056,-0.6745,-0.6872,-0.6884,-0.686,-0.6807,-0.6803,-0.6782,-0.6733,-0.6725,-0.6692,-0.6635,-0.6615,-0.6635,-0.6664,-0.6672,-0.6688,-0.6721,-0.6864,-0.6869,-0.6725,-0.6864,-0.7091,-0.7701,-0.8278,-0.929,-1.0972,-1.2392,-1.3665,-1.4875,-1.5168,-1.5664,-1.6997,-1.8051,-1.889,-1.9738,-2.0861,-2.2559,-2.4559,-2.5517,-2.6988,-2.9068,-2.9739,-3.0278,-3.1846,-3.2083,-3.2428,-3.4443,-3.4796,-3.5809,-3.8045,-3.8777,-3.9652,-4.1721,-4.3397,-4.3808,-4.5219,-4.5356,-4.5728,0.7356,0.7634,0.7856,0.8435,0.9374,1.1018,1.1944,1.2802,1.6173,1.8207,1.9125,2.1941,2.2709,2.1928,2.2022,2.2585,2.3584,2.5084,2.6342,2.7619,3.1084,3.3281,3.397,3.5376,3.5907,3.5804,3.6088,3.7178,3.9066,4.1509,4.107,3.8765,4.1208,3.7711,2.8044,2.3754,1.7708,1.0023,0.5689,0.3979,0.4201,0.2228,0.1074,0.1003,-0.1421,-0.269,-0.2268,-0.2472,-0.2878,-0.3336,-0.4234,-0.4779,-0.4968,-0.6022,-0.6692,-0.6758,-0.6843,-0.6917,-0.6986,-0.699,-0.6962,-0.69,-0.6888,-0.6864,-0.6815,-0.6798,-0.6798,-0.6798,-0.6798,-0.6794,-0.6762,-0.6762,-0.677,-0.679,-0.694,-0.7081,-0.6944,-0.7081,-0.7677,-0.8591,-0.9379,-1.0404,-1.243,-1.3531,-1.4315,-1.5664,-1.6079,-1.6644,-1.811,-1.91,-1.9878,-2.0698,-2.1923,-2.3666,-2.6069,-2.6573,-2.8114,-2.9992,-3.0669,-3.1114,-3.3027,-3.2872,-3.345,-3.5217,-3.579,-3.701,-3.9092,-4.0163,-4.1282,-4.3317,-4.4948,-4.6113,-4.6684,-4.7012,-4.7893,0.9157,0.9302,1.0023,1.0239,1.0599,1.3428,1.4557,1.4486,1.8556,2.0731,2.1558,2.3188,2.4306,2.4631,2.3406,2.3652,2.5099,2.6959,2.8654,3.0377,3.4533,3.621,3.5479,3.6859,3.7019,3.6331,3.732,3.9183,4.198,4.3189,4.3687,4.336,4.3522,3.8924,2.9402,2.2957,1.5597,0.6635,0.2854,0.1958,0.2828,0.1594,0.0652,0.0145,-0.1815,-0.3047,-0.3337,-0.4379,-0.4564,-0.3569,-0.4849,-0.5106,-0.407,-0.5736,-0.6847,-0.686,-0.7005,-0.705,-0.7059,-0.7063,-0.7059,-0.7059,-0.7055,-0.6982,-0.6982,-0.6982,-0.6978,-0.6978,-0.6978,-0.6949,-0.6951,-0.6931,-0.6951,-0.7017,-0.7621,-0.7761,-0.7688,-0.8241,-0.8781,-0.9574,-1.0921,-1.2423,-1.4378,-1.4324,-1.4813,-1.5797,-1.6221,-1.6916,-1.86,-1.9588,-2.0861,-2.2392,-2.3832,-2.5344,-2.6481,-2.7347,-2.8527,-3.0205,-3.1391,-3.1577,-3.2644,-3.3775,-3.4936,-3.619,-3.7318,-3.8653,-4.0266,-4.1694,-4.3044,-4.4644,-4.6078,-4.7139,-4.8241,-4.8437,-4.9348,0.9446,0.9735,1.0239,1.0606,1.1109,1.3309,1.4716,1.576,1.9125,2.1283,2.2545,2.4006,2.4849,2.5066,2.4578,2.5532,2.762,2.8867,3.0856,3.3328,3.5252,3.666,3.7887,3.8424,3.8935,3.9311,3.9721,4.0813,4.2432,4.3932,4.4642,4.4533,4.4071,3.6916,2.456,1.9257,1.154,0.0496,-0.1082,0.058,0.3635,0.3488,0.2542,0.1015,-0.1744,-0.3132,-0.277,-0.3216,-0.3794,-0.4632,-0.4956,-0.5408,-0.6181,-0.6716,-0.7027,-0.7096,-0.7724,-0.8068,-0.8068,-0.8068,-0.8101,-0.8163,-0.7443,-0.7105,-0.715,-0.7162,-0.7236,-0.7236,-0.7236,-0.729,-0.7395,-0.7233,-0.7098,-0.734,-0.7643,-0.8295,-0.9147,-0.9651,-1.0299,-1.1592,-1.2738,-1.3611,-1.4324,-1.4884,-1.5867,-1.7338,-1.832,-1.9518,-2.0861,-2.1609,-2.2488,-2.4094,-2.5066,-2.6225,-2.8872,-2.9177,-2.9851,-3.1078,-3.2053,-3.2718,-3.3719,-3.4456,-3.5486,-3.7423,-3.8714,-4.0028,-4.1527,-4.3944,-4.5154,-4.6276,-4.7657,-4.909,-4.9941,-5.0719,-5.1556,1.0219,1.073,1.0809,1.1319,1.2329,1.433,1.6115,1.7876,2.0707,2.2753,2.408,2.5002,2.5633,2.6163,2.6639,2.861,3.1247,3.1368,3.2947,3.6076,3.7058,3.8281,3.9437,3.9377,4.0114,4.1619,4.2348,4.2921,4.3601,4.5245,4.6087,4.606,4.3063,3.3805,2.0753,1.5629,0.7369,-0.2675,-0.2786,0.0514,0.3602,0.3903,0.3386,0.1983,-0.1104,-0.2944,-0.2862,-0.3415,-0.4094,-0.5028,-0.5373,-0.6237,-0.7581,-0.7778,-0.7835,-0.797,-0.8831,-0.9133,-0.8837,-0.8739,-0.8547,-0.8288,-0.7642,-0.7166,-0.7402,-0.7415,-0.741,-0.7561,-0.741,-0.749,-0.7836,-0.759,-0.7443,-0.7879,-0.8314,-0.9186,-1.0565,-1.1365,-1.2576,-1.3913,-1.4272,-1.4685,-1.5257,-1.5735,-1.6987,-1.8809,-2.0133,-2.1319,-2.2618,-2.3581,-2.44,-2.6151,-2.7154,-2.8643,-3.0771,-3.1844,-3.2025,-3.304,-3.3107,-3.3775,-3.4848,-3.5482,-3.664,-3.853,-4.011,-4.1376,-4.3265,-4.5775,-4.7192,-4.8163,-4.9825,-5.133,-5.2358,-5.35,-5.3985,1.1593,1.2473,1.183,1.2695,1.4596,1.6752,1.8953,2.0876,2.3421,2.5115,2.5941,2.6084,2.6598,2.8,2.8966,3.2187,3.469,3.3804,3.5024,3.827,4.0416,4.1091,4.0814,4.0075,4.0707,4.2651,4.446,4.5297,4.5335,4.6851,4.7729,4.6533,3.975,3.0566,1.9396,1.2933,0.4382,-0.3302,-0.1942,0.1277,0.2406,0.2859,0.3086,0.3086,0.0226,-0.2256,-0.3869,-0.5412,-0.5594,-0.5144,-0.6343,-0.7463,-0.791,-0.8517,-0.921,-0.9489,-1.0281,-1.0143,-0.9318,-0.9014,-0.8513,-0.7878,-0.729,-0.736,-0.7675,-0.7545,-0.7697,-0.846,-0.7924,-0.7751,-0.8668,-0.8578,-0.8243,-0.853,-0.9532,-1.0568,-1.177,-1.3415,-1.5061,-1.6003,-1.584,-1.6324,-1.7369,-1.7389,-1.7834,-1.9807,-2.1035,-2.1956,-2.3467,-2.4792,-2.6349,-2.8095,-2.9498,-3.1185,-3.2943,-3.4543,-3.4835,-3.5094,-3.4701,-3.4816,-3.631,-3.7253,-3.8504,-4.0246,-4.2405,-4.3684,-4.5241,-4.7554,-4.8558,-4.9707,-5.1642,-5.3396,-5.4148,-5.505,-5.5679,1.2419,1.346,1.3245,1.4342,1.6315,1.8269,2.0287,2.2237,2.441,2.5651,2.6073,2.6088,2.6283,2.6983,2.827,3.0733,3.3622,3.4887,3.7627,4.0829,4.1275,4.1646,4.2052,4.1872,4.2089,4.2855,4.3977,4.4882,4.5628,4.6728,4.7258,4.5533,3.7708,2.8164,1.8569,1.0711,0.2527,-0.3808,-0.0601,0.2559,0.4146,0.6111,0.6115,0.3776,0.2435,0.0229,-0.3507,-0.4359,-0.4826,-0.5281,-0.6196,-0.6937,-0.7701,-0.8703,-0.9254,-0.9618,-1.1164,-1.1972,-1.1528,-1.0601,-1.0031,-0.9478,-0.835,-0.7594,-0.7686,-0.7744,-0.8554,-0.9808,-0.912,-0.9283,-1.1933,-1.1469,-1.023,-0.9091,-0.9355,-1.1096,-1.3498,-1.555,-1.6892,-1.7375,-1.7042,-1.7169,-1.8124,-1.8404,-1.9726,-2.1042,-2.2195,-2.3395,-2.482,-2.5809,-2.7467,-2.9682,-3.1548,-3.3193,-3.4433,-3.5714,-3.6462,-3.6489,-3.6135,-3.6343,-3.7678,-3.8663,-4.004,-4.2155,-4.424,-4.6005,-4.7607,-4.914,-5.0297,-5.1938,-5.4089,-5.516,-5.5618,-5.6237,-5.6974,1.3499,1.4702,1.4402,1.5733,1.802,1.9485,2.1449,2.3792,2.5398,2.6354,2.6724,2.6653,2.6866,2.7574,2.9519,3.2061,3.4882,3.7879,4.0968,4.3402,4.2441,4.2526,4.354,4.3866,4.3794,4.3856,4.4593,4.5522,4.6411,4.6751,4.7131,4.5616,3.4432,2.4887,1.7494,0.7211,-0.0893,-0.3717,-0.0686,0.2673,0.4591,0.6121,0.5813,0.3752,0.1849,-0.0696,-0.38,-0.4652,-0.5349,-0.5974,-0.6792,-0.7833,-0.8686,-0.9943,-1.075,-1.1262,-1.2374,-1.3402,-1.3102,-1.1671,-1.0905,-1.0732,-0.9075,-0.8475,-0.9128,-0.9376,-1.0276,-1.2109,-1.1616,-1.1955,-1.4256,-1.3945,-1.2574,-1.1728,-1.2149,-1.3504,-1.6322,-1.8,-1.8795,-1.887,-1.8761,-1.8924,-1.9711,-2.0461,-2.1691,-2.2488,-2.334,-2.4487,-2.5854,-2.6967,-2.893,-3.1009,-3.3005,-3.4458,-3.5646,-3.6816,-3.7955,-3.7868,-3.758,-3.8183,-3.9235,-3.9583,-4.0581,-4.3836,-4.6314,-4.762,-4.9201,-5.1315,-5.2919,-5.483,-5.6079,-5.6594,-5.7008,-5.773,-5.8395,1.4729,1.6109,1.5565,1.7141,1.9876,2.068,2.2856,2.5653,2.6779,2.745,2.7901,2.7683,2.8175,2.9776,3.2314,3.5275,3.8667,4.164,4.3701,4.4666,4.4204,4.4165,4.4885,4.5357,4.5309,4.5194,4.6019,4.6968,4.7545,4.7563,4.7645,4.6433,3.1248,2.0692,1.6392,0.3316,-0.3991,-0.385,-0.1243,0.1951,0.4532,0.3439,0.2735,0.3355,-0.0547,-0.3286,-0.4539,-0.6261,-0.7049,-0.674,-0.8219,-0.9387,-1.0558,-1.2101,-1.3014,-1.3245,-1.4197,-1.4446,-1.3884,-1.2471,-1.1453,-1.143,-1.0155,-0.9536,-1.1641,-1.1931,-1.2836,-1.5066,-1.4578,-1.4723,-1.5767,-1.5528,-1.5416,-1.5964,-1.6232,-1.7645,-1.9886,-2.0245,-2.0163,-2.021,-2.0649,-2.1269,-2.1869,-2.2411,-2.3184,-2.3825,-2.4335,-2.5352,-2.6715,-2.8293,-2.9922,-3.2158,-3.4583,-3.6014,-3.7287,-3.8729,-3.9736,-3.967,-3.9408,-3.9953,-4.1178,-4.1688,-4.263,-4.5795,-4.8409,-4.9601,-5.1095,-5.3308,-5.4669,-5.5626,-5.6707,-5.7606,-5.8363,-5.9017,-5.9298,1.5582,1.7111,1.8158,1.9833,2.2023,2.3618,2.5548,2.7731,2.8342,2.8461,2.8491,2.8357,2.8964,3.038,3.3392,3.5844,3.8409,4.206,4.3894,4.4459,4.5103,4.5342,4.5669,4.5838,4.5886,4.5845,4.6644,4.7284,4.7544,4.8197,4.8179,4.6445,3.1099,2.1374,1.7407,0.4571,-0.2564,-0.2651,0.0156,0.2036,0.3055,0.3838,0.3368,0.1644,-0.0391,-0.2819,-0.5173,-0.7365,-0.8232,-0.7842,-0.8769,-0.9464,-1.0164,-1.2095,-1.3414,-1.356,-1.4322,-1.496,-1.4663,-1.353,-1.2828,-1.2965,-1.2208,-1.223,-1.2835,-1.3587,-1.5023,-1.6585,-1.6089,-1.6414,-1.8698,-1.8447,-1.8366,-1.9323,-1.8777,-1.8365,-1.8996,-1.9839,-2.0533,-2.0646,-2.1625,-2.2501,-2.304,-2.3732,-2.4436,-2.4938,-2.5607,-2.659,-2.8049,-2.984,-3.1474,-3.4121,-3.6392,-3.7734,-3.9146,-4.0581,-4.1441,-4.1505,-4.146,-4.1542,-4.3316,-4.4998,-4.6527,-4.8839,-5.1147,-5.2699,-5.392,-5.5596,-5.6212,-5.6803,-5.7761,-5.8818,-5.9298,-5.9859,-6.0001,1.5655,1.7139,1.8125,2.0177,2.283,2.4276,2.6212,2.8357,2.9137,2.9152,2.8927,2.9002,2.9645,3.0949,3.4594,3.7074,3.8975,4.3287,4.5291,4.5512,4.6234,4.6278,4.615,4.6271,4.6487,4.6247,4.6826,4.7312,4.7568,4.7991,4.7392,4.4639,3.3448,2.4766,1.9167,0.9124,0.0693,-0.1248,0.0157,0.1725,0.2507,0.2665,0.235,0.0861,-0.0626,-0.321,-0.6424,-0.8842,-1.0014,-1.0014,-1.0552,-1.1321,-1.232,-1.3868,-1.4721,-1.4491,-1.4708,-1.5045,-1.5314,-1.4245,-1.3887,-1.4639,-1.4533,-1.4682,-1.5365,-1.6106,-1.722,-1.8861,-1.83,-1.9124,-2.0455,-2.0282,-2.0282,-2.0818,-2.0206,-1.9483,-1.9473,-2.0856,-2.1558,-2.2145,-2.332,-2.4485,-2.4452,-2.5295,-2.5611,-2.5943,-2.6457,-2.7673,-2.9136,-3.1081,-3.3152,-3.551,-3.7668,-3.9059,-4.004,-4.1377,-4.2523,-4.269,-4.3869,-4.3822,-4.566,-4.7901,-4.9716,-5.1553,-5.3789,-5.5486,-5.6309,-5.7135,-5.7854,-5.8514,-5.9331,-5.9772,-6.0206,-6.0642,-6.0778,1.5186,1.6695,1.7083,1.9437,2.2799,2.3791,2.6156,2.8415,2.9455,2.9531,2.938,2.965,3.0446,3.1655,3.5682,3.8758,4.0591,4.4753,4.6642,4.7088,4.7305,4.6968,4.6415,4.6968,4.7088,4.6889,4.6841,4.7361,4.773,4.6929,4.6592,4.4436,3.733,2.8741,2.0625,1.2815,0.5625,-0.0933,-0.1098,0.0235,0.1097,0.0863,0.0706,0.047,-0.1724,-0.4774,-0.7898,-1.0314,-1.1785,-1.2481,-1.3098,-1.4037,-1.5812,-1.6834,-1.7014,-1.6368,-1.5724,-1.573,-1.6276,-1.5161,-1.4754,-1.6436,-1.6237,-1.6574,-1.8028,-1.8617,-1.9368,-2.0779,-2.1276,-2.1103,-2.1508,-2.1508,-2.1669,-2.1981,-2.1797,-2.1739,-2.1831,-2.2625,-2.3256,-2.3496,-2.5555,-2.6517,-2.6686,-2.6836,-2.6989,-2.617,-2.7029,-2.8407,-3.0088,-3.2123,-3.407,-3.6121,-3.8266,-4.03,-4.1161,-4.1952,-4.3004,-4.3879,-4.5739,-4.6798,-4.8417,-5.0491,-5.2329,-5.4184,-5.5761,-5.6867,-5.7621,-5.8455,-5.9241,-5.9728,-6.013,-6.0473,-6.0886,-6.1358,-6.1642,1.5265,1.6449,1.9416,2.1302,2.2858,2.5889,2.8062,2.9284,2.9746,2.9946,2.99,2.9977,3.1381,3.3702,3.5944,3.8544,4.2145,4.4914,4.6315,4.7431,4.7497,4.7425,4.7136,4.7425,4.7401,4.7413,4.8134,4.8134,4.7816,4.811,4.8043,4.5725,4.0081,3.155,2.2941,1.4978,0.5911,-0.0854,-0.188,-0.1568,-0.0784,-0.0157,0.0,-0.0314,-0.251,-0.5789,-0.9138,-1.0535,-1.2544,-1.5012,-1.5565,-1.547,-1.6353,-1.7257,-1.7641,-1.7598,-1.7437,-1.7399,-1.7713,-1.7405,-1.7441,-1.8063,-1.8598,-1.9215,-1.9541,-2.0363,-2.086,-2.1276,-2.1357,-2.1911,-2.2625,-2.2786,-2.3187,-2.3748,-2.3988,-2.4148,-2.4148,-2.3668,-2.3816,-2.4773,-2.6043,-2.6912,-2.6583,-2.7148,-2.713,-2.6711,-2.7655,-2.9023,-3.1019,-3.3242,-3.5305,-3.74,-3.9562,-4.1588,-4.231,-4.3255,-4.4572,-4.5643,-4.7464,-4.9087,-5.0767,-5.2512,-5.4184,-5.5743,-5.7293,-5.8162,-5.8714,-5.9443,-6.0206,-6.0515,-6.0853,-6.1227,-6.1635,-6.2082,-6.2469,1.4946,1.6071,1.8995,2.1036,2.2814,2.5949,2.8103,2.9182,2.9819,3.0129,3.0206,3.0438,3.219,3.4804,3.6773,3.9708,4.2849,4.5323,4.6741,4.7431,4.7497,4.7497,4.7497,4.7497,4.7497,4.7563,4.7936,4.787,4.7839,4.8166,4.813,4.7409,4.3403,3.7684,2.8777,1.963,1.1987,0.4796,-0.0311,-0.188,-0.0941,-0.0235,-0.0236,-0.1334,-0.345,-0.6417,-0.8521,-1.1154,-1.3469,-1.5803,-1.6793,-1.7192,-1.7709,-1.8281,-1.8554,-1.8563,-1.8046,-1.8121,-1.8243,-1.8356,-1.8441,-1.9287,-2.013,-2.085,-2.1335,-2.1981,-2.2556,-2.2866,-2.3187,-2.3428,-2.3976,-2.4056,-2.4547,-2.4866,-2.5104,-2.5343,-2.5727,-2.5409,-2.5158,-2.6043,-2.7162,-2.8011,-2.8316,-2.8264,-2.8706,-2.8927,-2.9809,-3.1175,-3.2667,-3.4878,-3.6951,-3.9059,-4.1245,-4.2816,-4.3467,-4.4657,-4.6449,-4.7724,-4.9224,-5.074,-5.2288,-5.4038,-5.5804,-5.7041,-5.8208,-5.8908,-5.9508,-6.0292,-6.0802,-6.0886,-6.1144,-6.1723,-6.2279,-6.2702,-6.2969,1.4803,1.5624,1.7973,2.0313,2.2659,2.5512,2.7708,2.9061,2.9892,3.0373,3.0375,3.1151,3.2852,3.5374,3.7639,4.0453,4.3542,4.5887,4.7431,4.7431,4.7497,4.7497,4.7497,4.7497,4.7497,4.7497,4.763,4.7497,4.7563,4.7672,4.8191,4.811,4.7882,4.2188,3.4895,2.6163,1.6852,0.9606,0.2006,-0.1332,-0.0157,0.0236,-0.0157,-0.1961,-0.3918,-0.6495,-0.8521,-1.1238,-1.4037,-1.5769,-1.7266,-1.863,-1.9507,-1.9844,-1.9618,-1.9559,-1.8935,-1.8862,-1.9162,-1.9179,-1.9582,-2.0525,-2.1427,-2.2314,-2.3187,-2.3496,-2.3896,-2.4467,-2.4786,-2.4945,-2.5343,-2.5409,-2.5502,-2.5819,-2.574,-2.6215,-2.6991,-2.7305,-2.7227,-2.7384,-2.8026,-2.873,-2.9493,-2.9868,-3.0528,-3.1292,-3.214,-3.3136,-3.4593,-3.6191,-3.8083,-4.0148,-4.2224,-4.4695,-4.5633,-4.5995,-4.7776,-4.9338,-5.0823,-5.2213,-5.3691,-5.539,-5.696,-5.7839,-5.8805,-5.9508,-6.0206,-6.0894,-6.1185,-6.1144,-6.1756,-6.2591,-6.3045,-6.3343,-6.3528,1.547,1.5555,1.9211,2.1274,2.2564,2.631,2.8603,2.9785,3.054,3.0984,3.1033,3.1604,3.3491,3.5958,3.7053,4.0236,4.4548,4.6812,4.7545,4.7497,4.7497,4.7497,4.7497,4.7497,4.7497,4.7497,4.7497,4.7497,4.7804,4.8306,4.8689,4.8878,4.8976,4.4681,3.6714,2.6977,1.812,1.1161,0.2915,-0.1096,-0.0706,-0.0157,-0.0628,-0.2508,-0.4229,-0.6573,-0.9609,-1.1476,-1.3535,-1.6414,-1.6616,-1.7338,-1.8649,-1.9761,-2.0453,-2.0579,-2.0481,-2.0351,-2.0695,-2.1603,-2.22,-2.2854,-2.3508,-2.4228,-2.4694,-2.4853,-2.5092,-2.5251,-2.5502,-2.5581,-2.6596,-2.6675,-2.724,-2.779,-2.8168,-2.8182,-2.8417,-2.8715,-2.8715,-2.8793,-2.9042,-2.9508,-3.05,-3.1268,-3.1804,-3.2425,-3.3193,-3.4054,-3.5092,-3.6813,-3.8705,-4.0795,-4.2981,-4.5668,-4.8061,-4.8152,-4.8961,-5.0629,-5.2079,-5.3379,-5.4869,-5.6656,-5.7995,-5.8818,-5.9564,-6.0249,-6.0894,-6.1513,-6.1803,-6.1923,-6.2706,-6.3565,-6.3602,-6.3641,-6.4111,1.6228,1.69,1.8894,2.0888,2.2958,2.5703,2.7866,2.9286,3.0349,3.1007,3.1247,3.1711,3.3109,3.5589,3.8254,4.1976,4.5943,4.7504,4.7762,4.7593,4.7497,4.7497,4.7497,4.7497,4.7497,4.7497,4.7497,4.7828,4.8264,4.8698,4.9217,4.9543,4.9368,4.6406,3.9518,2.7405,1.9933,1.2904,0.433,-0.1799,-0.1253,-0.0706,-0.1725,-0.2977,-0.5092,-0.7525,-0.9693,-1.1504,-1.3141,-1.5271,-1.5927,-1.6701,-1.8012,-1.9413,-2.0492,-2.0758,-2.1114,-2.1669,-2.2153,-2.2935,-2.3336,-2.4148,-2.4866,-2.5409,-2.5885,-2.6122,-2.6281,-2.6833,-2.7069,-2.7305,-2.7947,-2.8026,-2.8339,-2.8886,-2.9586,-2.9664,-2.9571,-3.0485,-3.0562,-3.0346,-3.05,-3.1024,-3.1944,-3.2574,-3.3051,-3.3635,-3.4324,-3.512,-3.5915,-3.7697,-3.9714,-4.2011,-4.4251,-4.6115,-4.8584,-4.9274,-4.9845,-5.1537,-5.3303,-5.4595,-5.5914,-5.7606,-5.8786,-5.9663,-6.0345,-6.0969,-6.1391,-6.1883,-6.2279,-6.2668,-6.3196,-6.3639,-6.3821,-6.4039,-6.4463,1.6674,1.7605,1.86,2.0527,2.2961,2.5289,2.7224,2.8739,3.0167,3.0911,3.1285,3.1864,3.297,3.5366,3.937,4.3925,4.8232,4.8363,4.8026,4.7762,4.7545,4.7497,4.7497,4.7497,4.7497,4.7497,4.7497,4.7894,4.8396,4.8828,4.9475,4.9593,4.8807,4.8004,4.3409,3.1381,2.4122,1.6826,0.7941,0.0464,-0.1095,-0.1567,-0.2585,-0.3842,-0.6666,-0.86,-1.0245,-1.1409,-1.284,-1.4323,-1.5184,-1.6007,-1.753,-1.9128,-2.011,-2.0525,-2.1265,-2.2223,-2.2946,-2.4056,-2.4681,-2.5409,-2.5727,-2.6439,-2.6991,-2.7462,-2.7698,-2.873,-2.926,-2.926,-2.9416,-2.9431,-2.9649,-3.0098,-3.0793,-3.1194,-3.1101,-3.1622,-3.2386,-3.2233,-3.2173,-3.2631,-3.36,-3.3717,-3.4145,-3.4773,-3.5515,-3.6463,-3.7405,-3.9141,-4.1117,-4.3544,-4.55,-4.6883,-4.8526,-4.9816,-5.074,-5.2105,-5.4105,-5.5747,-5.7024,-5.836,-5.9423,-6.0525,-6.1069,-6.1635,-6.1963,-6.2352,-6.2779,-6.3158,-6.3454,-6.3787,-6.4252,-6.4428,-6.4601,1.6609,1.6251,1.9538,2.1171,2.2075,2.5833,2.8254,2.9425,3.0656,3.1362,3.1534,3.2335,3.3579,3.6465,4.0844,4.5263,4.7909,4.8492,4.8252,4.8171,4.7786,4.7593,4.7521,4.7497,4.7497,4.7497,4.7497,4.7497,4.8002,4.8657,4.9023,4.9192,4.9067,4.8387,4.6084,3.5902,3.1305,2.5256,1.5419,0.634,0.039,-0.1411,-0.3605,-0.5736,-0.7669,-0.9238,-1.0884,-1.1918,-1.2836,-1.3774,-1.4135,-1.5194,-1.7104,-1.9004,-2.0646,-2.1786,-2.2682,-2.3095,-2.3736,-2.5092,-2.6281,-2.6833,-2.7541,-2.8339,-2.8495,-2.8871,-2.9105,-2.8808,-3.0114,-3.0947,-3.1024,-3.1024,-3.1699,-3.2004,-3.2157,-3.2538,-3.2766,-3.3734,-3.4354,-3.4278,-3.4203,-3.4672,-3.542,-3.5235,-3.522,-3.5979,-3.677,-3.7709,-3.9083,-4.0935,-4.2777,-4.5157,-4.6642,-4.7965,-4.9261,-5.0503,-5.1763,-5.2947,-5.4815,-5.6779,-5.7792,-5.8979,-6.0374,-6.1317,-6.1843,-6.2358,-6.2783,-6.3121,-6.338,-6.3602,-6.3821,-6.4358,-6.4942,-6.5011,-6.4842,1.6928,1.7367,1.7885,1.97,2.2019,2.3641,2.5956,2.8544,2.99,3.0984,3.1828,3.2257,3.4847,3.8817,4.145,4.4703,4.838,4.8677,4.8415,4.8584,4.8243,4.7954,4.7882,4.7642,4.7497,4.7521,4.7497,4.7497,4.7828,4.8396,4.9047,4.8983,4.8933,4.8287,4.6512,3.8145,3.1322,2.3072,1.2314,0.3069,-0.0702,-0.3852,-0.6151,-0.7043,-0.8641,-1.0238,-1.1436,-1.19,-1.2583,-1.3596,-1.4527,-1.5853,-1.7465,-1.9511,-2.1856,-2.2419,-2.435,-2.5317,-2.5568,-2.6517,-2.7227,-2.8026,-2.8651,-2.8808,-2.9197,-3.0485,-3.1024,-3.0346,-3.1988,-3.275,-3.2826,-3.2902,-3.3129,-3.3432,-3.3827,-3.3751,-3.4354,-3.5941,-3.6608,-3.646,-3.6312,-3.6608,-3.6849,-3.6682,-3.6624,-3.6966,-3.8116,-3.9406,-4.1105,-4.3253,-4.4999,-4.6786,-4.8004,-4.8971,-5.0303,-5.161,-5.3069,-5.4351,-5.5861,-5.7501,-5.8289,-5.9455,-6.0886,-6.2076,-6.2711,-6.3165,-6.357,-6.375,-6.3858,-6.4038,-6.4181,-6.474,-6.5176,-6.5011,-6.5076,1.7359,1.8322,1.6841,1.8488,2.1867,2.1836,2.4326,2.7954,2.9146,3.0499,3.176,3.2489,3.5989,4.0763,4.1686,4.439,4.986,4.8991,4.8918,4.8998,4.8796,4.8507,4.8339,4.8026,4.7738,4.769,4.7545,4.7521,4.7696,4.8133,4.8526,4.8657,4.8461,4.7881,4.523,4.0143,3.3459,2.291,1.0773,0.2539,-0.212,-0.6659,-0.789,-0.8664,-0.9708,-1.152,-1.225,-1.2634,-1.3213,-1.4908,-1.6246,-1.7384,-1.8545,-2.0727,-2.282,-2.3872,-2.5806,-2.7291,-2.7619,-2.809,-2.8325,-2.9105,-3.0021,-3.0562,-3.0639,-3.2538,-3.3507,-3.2157,-3.3734,-3.4544,-3.4694,-3.4843,-3.516,-3.5476,-3.5625,-3.5402,-3.5402,-3.683,-3.7751,-3.7604,-3.7585,-3.8044,-3.819,-3.8063,-3.8098,-3.8133,-3.9314,-4.0925,-4.3082,-4.5334,-4.6707,-4.819,-4.8472,-4.9576,-5.1125,-5.2541,-5.4047,-5.5782,-5.7334,-5.8383,-5.9288,-6.0207,-6.141,-6.2482,-6.3271,-6.3788,-6.4003,-6.4146,-6.4252,-6.4393,-6.4602,-6.4976,-6.5242,-6.5143,-6.5374,1.763,1.8497,1.7876,1.8567,2.0482,2.2794,2.5373,2.8123,2.9062,3.0317,3.1662,3.2721,3.623,4.055,4.2012,4.4528,5.0363,5.0025,4.9553,4.9384,4.9325,4.906,4.8844,4.8555,4.8243,4.8147,4.7954,4.7714,4.7545,4.7799,4.7835,4.763,4.7918,4.7316,4.5978,4.2856,3.3613,2.3457,1.2808,0.3931,-0.2681,-0.7856,-0.9201,-0.9728,-1.1433,-1.3234,-1.3743,-1.4177,-1.5147,-1.7001,-1.7973,-1.9024,-2.016,-2.1936,-2.3632,-2.5555,-2.6977,-2.87,-2.9789,-2.9571,-2.9726,-3.1024,-3.2233,-3.2902,-3.2598,-3.3297,-3.3809,-3.4319,-3.5756,-3.6645,-3.6793,-3.6885,-3.7106,-3.7198,-3.7217,-3.6922,-3.6996,-3.7511,-3.8355,-3.8428,-3.872,-3.9063,-3.9694,-3.9694,-3.9596,-3.9733,-4.1456,-4.3153,-4.5141,-4.7238,-4.8083,-4.9015,-4.8927,-4.9958,-5.1758,-5.3332,-5.4947,-5.7079,-5.9042,-5.9807,-6.0489,-6.1382,-6.1875,-6.2346,-6.3034,-6.3749,-6.4463,-6.4602,-6.474,-6.4775,-6.4979,-6.5376,-6.5882,-6.6161,-6.6247,1.7104,1.8401,1.7701,1.9003,2.178,2.332,2.5543,2.7954,2.9146,3.0401,3.1994,3.305,3.596,3.944,4.0006,4.2474,4.722,4.7835,4.8226,4.9015,4.9225,4.952,4.9373,4.9016,4.8772,4.8724,4.8531,4.8459,4.8483,4.8214,4.8002,4.793,4.7647,4.7449,4.6466,4.2973,3.278,2.1852,1.2568,0.3566,-0.659,-0.9975,-1.0947,-1.1457,-1.1898,-1.3281,-1.3967,-1.5319,-1.6582,-1.7973,-1.9196,-2.0332,-2.1453,-2.2992,-2.4999,-2.6977,-2.8296,-3.0083,-3.1545,-3.1255,-3.1178,-3.269,-3.4128,-3.4879,-3.4411,-3.5551,-3.6146,-3.6811,-3.7547,-3.8588,-3.8661,-3.8608,-3.8681,-3.8865,-3.8647,-3.8263,-3.819,-3.8501,-3.8574,-3.8574,-3.9281,-3.9982,-4.0678,-4.1389,-4.1306,-4.1364,-4.3398,-4.5384,-4.7191,-4.8648,-4.9416,-4.9702,-4.964,-5.1099,-5.2963,-5.446,-5.5887,-5.8304,-6.0706,-6.1134,-6.162,-6.1601,-6.2099,-6.2461,-6.2872,-6.3637,-6.4358,-6.4979,-6.5214,-6.5114,-6.5346,-6.57,-6.6319,-6.6967,-6.7157,1.692,1.841,1.8226,1.9873,2.2654,2.3331,2.5288,2.787,2.881,3.0317,3.2257,3.3542,3.6058,3.8632,3.9594,4.1537,4.5298,4.6411,4.6876,4.7472,4.8157,4.8944,4.9179,4.9243,4.9115,4.9277,4.9563,4.9601,4.9909,4.899,4.8643,4.8339,4.7762,4.7345,4.6328,4.2021,3.2316,1.8945,1.2271,0.1403,-0.9786,-1.2612,-1.288,-1.3547,-1.4288,-1.5064,-1.5901,-1.6983,-1.8137,-1.9368,-2.0586,-2.1394,-2.2522,-2.4044,-2.6096,-2.7891,-2.9589,-3.1376,-3.2842,-3.3297,-3.3297,-3.4504,-3.5941,-3.6071,-3.622,-3.7658,-3.8044,-3.8005,-3.9261,-4.0166,-3.9878,-3.9714,-3.9353,-3.9228,-3.903,-3.8647,-3.8501,-3.8574,-3.8574,-3.8647,-3.955,-4.0606,-4.1742,-4.2586,-4.3567,-4.3871,-4.5425,-4.7064,-4.8481,-4.9621,-5.0243,-5.0432,-5.0358,-5.233,-5.446,-5.5595,-5.7005,-6.0105,-6.1998,-6.2324,-6.2619,-6.2508,-6.233,-6.2554,-6.3017,-6.3629,-6.4182,-6.4774,-6.5145,-6.5376,-6.5796,-6.6289,-6.6707,-6.7332,-6.7763,1.7184,1.8663,1.9873,2.1262,2.2654,2.274,2.4873,2.7954,2.8544,2.9983,3.2324,3.4197,3.662,3.9086,3.9907,4.2096,4.4494,4.5468,4.5841,4.6019,4.6955,4.7344,4.8321,4.9039,4.9851,4.9963,5.0684,5.1381,5.1538,4.9854,4.9349,4.8547,4.7557,4.6634,4.7146,4.5355,3.3674,1.6917,1.5169,0.3422,-1.0501,-1.4727,-1.446,-1.5869,-1.6949,-1.771,-1.8128,-1.9258,-2.0332,-2.1011,-2.2763,-2.3484,-2.3724,-2.5608,-2.7485,-2.9186,-3.0669,-3.2885,-3.5644,-3.5941,-3.6015,-3.6164,-3.7364,-3.7824,-3.8263,-3.8958,-3.9301,-3.8971,-3.993,-4.031,-4.031,-4.0238,-3.9827,-3.9465,-3.9248,-3.8958,-3.872,-3.8574,-3.8574,-3.8938,-4.0033,-4.1226,-4.2516,-4.3791,-4.5369,-4.6469,-4.7689,-4.8828,-4.9733,-5.0334,-5.0842,-5.0905,-5.0842,-5.2551,-5.4574,-5.6277,-5.8286,-6.144,-6.3163,-6.3358,-6.3388,-6.3171,-6.299,-6.2791,-6.2959,-6.3367,-6.3958,-6.4532,-6.5176,-6.5859,-6.6464,-6.6959,-6.7332,-6.763,-6.8058,1.7271,1.8663,2.0047,2.1348,2.2912,2.53,2.7012,2.8305,2.9983,3.1497,3.2572,3.3788,3.5544,3.7657,3.8924,4.0588,4.2637,4.4138,4.4289,4.4515,4.6181,4.7558,4.8699,5.0031,5.0916,5.115,5.2097,5.3002,5.2725,5.0968,5.0015,4.9208,4.7003,4.5166,4.4579,4.1875,3.2278,1.5755,1.0914,0.3601,-1.5465,-1.6351,-1.6065,-1.8435,-1.9329,-1.9664,-2.0069,-2.1614,-2.2281,-2.2625,-2.4283,-2.5832,-2.6056,-2.777,-3.0161,-3.1711,-3.3247,-3.4918,-3.6977,-3.7751,-3.7751,-3.797,-3.8117,-3.8574,-3.8647,-3.9228,-3.9498,-3.9858,-4.0361,-4.0596,-4.0668,-4.0382,-4.0022,-3.9662,-3.9373,-3.9011,-3.872,-3.8647,-3.872,-3.9353,-4.0269,-4.2495,-4.4137,-4.4412,-4.5731,-4.6917,-4.7911,-4.8958,-4.9925,-5.0525,-5.0994,-5.1031,-5.1356,-5.289,-5.4574,-5.6306,-5.8513,-6.1383,-6.3164,-6.3952,-6.3923,-6.3767,-6.3535,-6.3242,-6.3158,-6.3147,-6.4085,-6.502,-6.5736,-6.6416,-6.691,-6.7268,-6.755,-6.7904,-6.8334,1.6665,1.7709,1.9613,2.0828,2.2212,2.5993,2.7968,2.8894,3.1081,3.2339,3.2819,3.4115,3.5706,3.7215,3.8426,3.9156,4.1327,4.2319,4.288,4.3321,4.6006,4.7365,4.8905,5.1163,5.2291,5.2735,5.3868,5.4797,5.3343,5.2047,5.1396,4.9987,4.654,4.5152,4.4183,4.1121,3.3895,2.0005,1.3821,0.3846,-1.0387,-1.6508,-1.8498,-2.0625,-2.1523,-2.1028,-2.2166,-2.3072,-2.3896,-2.4203,-2.5832,-2.8004,-2.8458,-3.0223,-3.2532,-3.3926,-3.5589,-3.6885,-3.8117,-3.8501,-3.8428,-3.8501,-3.8574,-3.8647,-3.8865,-3.9373,-4.0126,-4.0555,-4.0862,-4.1197,-4.1339,-4.1004,-4.031,-3.9858,-3.9518,-3.9156,-3.9353,-3.9281,-3.9063,-3.9766,-4.1034,-4.3353,-4.5324,-4.546,-4.589,-4.6941,-4.7911,-4.8958,-4.9989,-5.0461,-5.0867,-5.0968,-5.1382,-5.27,-5.4394,-5.6336,-5.874,-6.1426,-6.2778,-6.3879,-6.4374,-6.4218,-6.3936,-6.3756,-6.3891,-6.4159,-6.4793,-6.5542,-6.6191,-6.6707,-6.7137,-6.7496,-6.7763,-6.8121,-6.8457,1.5704,1.6145,1.875,1.996,2.0819,2.5215,2.8052,2.9732,3.1429,3.2272,3.2505,3.5625,3.6895,3.7711,3.9786,4.0841,4.125,4.1719,4.2288,4.3147,4.5685,4.7113,4.9406,5.1956,5.3504,5.4849,5.5709,5.5722,5.3855,5.2818,5.2546,5.1211,4.7421,4.6073,4.5263,4.2574,3.4776,2.4125,1.3686,0.3546,-0.8482,-1.7038,-2.1152,-2.3535,-2.374,-2.3864,-2.448,-2.4773,-2.4748,-2.5674,-2.7628,-2.8394,-2.9698,-3.194,-3.3683,-3.544,-3.7345,-3.8117,-3.8501,-3.8574,-3.8865,-3.8938,-3.872,-3.8865,-3.9156,-3.959,-4.0484,-4.1247,-4.1764,-4.2095,-4.2355,-4.1481,-4.0576,-4.0146,-3.9806,-3.9858,-4.0177,-4.0105,-3.9818,-4.0392,-4.1721,-4.3492,-4.5119,-4.5754,-4.5822,-4.6674,-4.7581,-4.8281,-4.9257,-5.0142,-5.0461,-5.0715,-5.132,-5.2324,-5.4094,-5.6108,-5.8392,-6.0918,-6.2288,-6.334,-6.3955,-6.4558,-6.4387,-6.4341,-6.4786,-6.5187,-6.5579,-6.6073,-6.6572,-6.7081,-6.7496,-6.7736,-6.8058,-6.8222,-6.8518,1.6057,1.6049,1.909,2.0558,2.1577,2.6478,2.9732,3.1429,3.2091,3.2505,3.3246,3.5075,3.6609,3.7472,3.8998,4.0294,4.1113,4.1856,4.3339,4.4823,4.6667,4.8882,5.134,5.364,5.4942,5.5578,5.6233,5.6493,5.5182,5.3942,5.2023,5.0189,4.9345,4.8261,4.5622,4.443,3.4184,2.387,1.2752,0.3798,-0.7697,-1.807,-2.3237,-2.606,-2.6159,-2.6653,-2.7461,-2.8161,-2.8339,-2.8783,-3.2016,-3.3473,-3.2818,-3.5348,-3.7419,-3.7511,-3.8263,-3.8574,-3.8574,-3.8647,-3.8865,-3.9353,-3.9301,-3.9103,-3.9321,-3.995,-4.0912,-4.1742,-4.2376,-4.2726,-4.2774,-4.2095,-4.1601,-4.1389,-4.0912,-4.0698,-4.1013,-4.0871,-4.0586,-4.1034,-4.2376,-4.3492,-4.5051,-4.5551,-4.5754,-4.6473,-4.7117,-4.7755,-4.8542,-4.9346,-4.9797,-4.9989,-5.1445,-5.2508,-5.385,-5.5706,-5.8069,-6.0298,-6.1609,-6.2907,-6.3894,-6.4453,-6.4617,-6.4973,-6.5438,-6.5795,-6.6212,-6.6657,-6.7164,-6.7533,-6.793,-6.8109,-6.8321,-6.8432,-6.8518,1.5961,1.6049,1.8226,2.0549,2.3362,2.7591,3.0499,3.2009,3.2174,3.2834,3.4115,3.5544,3.692,3.8442,3.9753,4.0894,4.1758,4.308,4.4263,4.5391,4.8566,5.0141,5.2569,5.4531,5.5393,5.5867,5.5906,5.5814,5.4944,5.3907,5.2197,5.3982,5.2969,4.6464,4.0715,3.4231,2.4905,1.5201,0.6667,0.1984,-0.7259,-1.8975,-2.5583,-2.8448,-2.84,-2.9355,-3.0724,-3.1605,-3.1556,-3.1988,-3.5455,-3.6321,-3.5779,-3.765,-3.909,-3.9215,-3.9478,-3.9622,-3.9622,-3.9622,-3.9622,-3.9714,-3.9899,-3.9734,-4.0002,-4.0555,-4.1601,-4.2516,-4.2958,-4.3167,-4.3006,-4.2844,-4.2914,-4.2892,-4.2284,-4.1672,-4.1651,-4.1559,-4.1721,-4.1975,-4.2748,-4.3791,-4.464,-4.5074,-4.5347,-4.5528,-4.5866,-4.6338,-4.7293,-4.8412,-4.8803,-4.8998,-5.1016,-5.2876,-5.4149,-5.5532,-5.7963,-5.9856,-6.0846,-6.2139,-6.3563,-6.4531,-6.4844,-6.543,-6.6106,-6.6584,-6.714,-6.7317,-6.7741,-6.8004,-6.8171,-6.8297,-6.8408,-6.8457,-6.8518,1.5704,1.5793,1.7,2.0722,2.5385,2.8416,3.0571,3.2002,3.2229,3.3211,3.4898,3.6546,3.8176,3.969,4.0963,4.1853,4.2883,4.4197,4.5456,4.5404,4.9771,5.185,5.2573,5.3972,5.5286,5.5525,5.5432,5.5247,5.3529,5.3385,5.5313,5.8507,5.2702,4.4232,3.2394,2.2177,1.212,0.1991,-0.1537,-0.413,-0.7266,-1.7423,-2.8953,-2.9954,-3.0334,-3.0885,-3.2332,-3.2995,-3.3166,-3.5184,-3.661,-3.7664,-3.8084,-3.8892,-3.9998,-4.0564,-4.0792,-4.0987,-4.0936,-4.0936,-4.0874,-4.071,-4.0484,-4.111,-4.1767,-4.1423,-4.2187,-4.2748,-4.3097,-4.3492,-4.347,-4.3032,-4.2962,-4.3101,-4.2823,-4.2635,-4.2705,-4.2333,-4.1862,-4.2327,-4.3306,-4.4228,-4.4297,-4.48,-4.4869,-4.4709,-4.464,-4.5051,-4.5978,-4.7226,-4.7953,-4.8216,-5.0486,-5.2604,-5.3937,-5.556,-5.7993,-5.9622,-6.0567,-6.1922,-6.3675,-6.4531,-6.5147,-6.5943,-6.6809,-6.7621,-6.8138,-6.8252,-6.8174,-6.8062,-6.8247,-6.8432,-6.8518,-6.8518,-6.8518,1.5528,1.5609,1.9575,2.3042,2.5921,2.9393,3.0807,3.0923,3.2399,3.3996,3.5755,3.7224,3.8797,4.0521,4.1705,4.2642,4.3659,4.5278,4.7009,4.8338,5.1337,5.2592,5.3443,5.4354,5.5286,5.5393,5.5234,5.5141,5.4811,5.5419,5.6195,5.7616,4.8512,3.388,2.2132,1.0195,-0.2812,-1.1889,-1.6298,-1.5975,-1.691,-2.344,-3.236,-3.282,-3.3081,-3.4467,-3.5678,-3.6266,-3.7085,-3.8614,-3.8937,-3.9335,-3.9391,-4.0698,-4.0821,-4.0666,-4.2116,-4.2559,-4.2632,-4.2826,-4.3236,-4.3872,-4.4129,-4.4195,-4.39,-4.2791,-4.237,-4.2861,-4.3258,-4.3653,-4.354,-4.3101,-4.2801,-4.3032,-4.3379,-4.3517,-4.3747,-4.3123,-4.2306,-4.2958,-4.4021,-4.4159,-4.4228,-4.4228,-4.4319,-4.409,-4.3653,-4.3861,-4.4686,-4.582,-4.7226,-4.7994,-5.0232,-5.2174,-5.3577,-5.556,-5.7967,-5.9804,-6.0979,-6.2351,-6.3755,-6.4531,-6.5281,-6.6588,-6.7572,-6.8328,-6.8818,-6.888,-6.8793,-6.8553,-6.8297,-6.8457,-6.8518,-6.8518,-6.8518,1.5697,1.6912,2.2092,2.5232,2.7032,3.0382,3.1693,3.1996,3.3546,3.5555,3.7222,3.8124,3.9459,4.136,4.2472,4.3397,4.4541,4.6305,4.7592,4.9412,5.1485,5.247,5.3501,5.4031,5.3997,5.419,5.5207,5.5643,5.4668,5.7119,5.772,4.8614,3.3976,2.1833,0.8699,-0.8857,-1.8123,-2.5263,-3.2385,-3.216,-2.8741,-3.2871,-3.4441,-3.4521,-3.5485,-3.7098,-3.8006,-3.8542,-3.9625,-4.022,-4.0355,-4.0256,-4.0273,-4.0762,-4.1502,-4.2207,-4.3491,-4.4667,-4.4639,-4.502,-4.5875,-4.6393,-4.5377,-4.4479,-4.4342,-4.3314,-4.2356,-4.2764,-4.3371,-4.3749,-4.218,-4.1389,-4.1792,-4.2074,-4.2962,-4.3587,-4.4436,-4.4869,-4.4274,-4.4159,-4.4503,-4.3952,-4.3883,-4.3606,-4.3675,-4.3675,-4.3167,-4.3722,-4.4343,-4.4937,-4.6224,-4.797,-5.027,-5.1989,-5.3423,-5.556,-5.7967,-5.9698,-6.1337,-6.245,-6.358,-6.4518,-6.547,-6.6738,-6.7895,-6.9031,-6.9399,-6.9454,-6.9368,-6.9223,-6.8816,-6.8518,-6.8518,-6.8518,-6.8518,1.6792,1.9347,2.4303,2.6897,2.8182,3.121,3.2659,3.3203,3.506,3.7148,3.8865,3.9033,4.0692,4.2375,4.3571,4.4379,4.5675,4.7798,4.8862,4.9887,5.1994,5.2158,5.2094,5.2352,5.2742,5.3649,5.4809,5.1889,4.8843,5.0168,4.4497,3.1065,1.9475,0.9089,-1.595,-2.9661,-3.4117,-4.0303,-4.4676,-4.3731,-4.165,-3.9015,-3.6914,-3.6362,-3.6957,-3.8724,-3.9453,-4.0099,-4.1074,-4.1326,-4.146,-4.1799,-4.2357,-4.2944,-4.3921,-4.5084,-4.6262,-4.7162,-4.7328,-4.7468,-4.7749,-4.7376,-4.5511,-4.4814,-4.508,-4.4149,-4.3179,-4.3039,-4.3658,-4.2814,-4.1182,-4.0933,-4.141,-4.1601,-4.2683,-4.2962,-4.4092,-4.5369,-4.5119,-4.4709,-4.4434,-4.3883,-4.3536,-4.3236,-4.3167,-4.3167,-4.3375,-4.4137,-4.4755,-4.5278,-4.6066,-4.8273,-5.0776,-5.2236,-5.3423,-5.6051,-5.8709,-6.0045,-6.1621,-6.2499,-6.3437,-6.4531,-6.5669,-6.6826,-6.7996,-6.9279,-6.9864,-6.9994,-6.9932,-6.9731,-6.9014,-6.8518,-6.8518,-6.8518,-6.8518,1.9948,2.3721,2.5611,2.6921,2.8318,3.1453,3.2484,3.231,3.5287,3.7776,3.9356,4.0756,4.2129,4.3656,4.517,4.6223,4.7262,4.9196,5.0118,5.101,5.1729,5.144,5.1528,5.2276,5.2427,5.2628,5.1615,4.6323,3.9174,3.6599,2.7218,0.905,-0.842,-1.6868,-2.3087,-3.5631,-4.6032,-4.9558,-4.9133,-4.7679,-4.1662,-3.9559,-3.9831,-3.9534,-3.955,-4.0353,-4.0841,-4.1016,-4.1172,-4.154,-4.2427,-4.3408,-4.4539,-4.5889,-4.7209,-4.7763,-4.9038,-4.9507,-4.9717,-4.9719,-4.9717,-5.0322,-4.8921,-4.7972,-4.7326,-4.5698,-4.485,-4.4117,-4.3961,-4.2125,-4.1069,-4.2152,-4.2726,-4.2355,-4.2823,-4.1488,-4.1226,-4.2565,-4.3214,-4.3584,-4.3999,-4.3653,-4.3467,-4.3306,-4.3375,-4.3097,-4.2559,-4.3397,-4.5096,-4.5617,-4.5999,-4.8704,-5.1278,-5.242,-5.3604,-5.7129,-5.9675,-6.0825,-6.1953,-6.2971,-6.3912,-6.4702,-6.5811,-6.6901,-6.8208,-6.9562,-7.0013,-7.0657,-7.0253,-6.9929,-6.9051,-6.8543,-6.8518,-6.8518,-6.8518]},{"header":{"parameterUnit":"m.s-1","parameterCategory":1,"la1":31.0,"la2":29.5877,"lo1":-88.7671,"lo2":-86.6584,"dx":0.0162,"dy":0.0185,"nx":115,"ny":88,"refTime":"2022-11-22T18:00:00:Z","depth":0,"parameterNumber":3,"parameterNumberName":"V-component_of_WINDS"},"data":[0.0,0.0,0.0,0.0,0.0,0.0,0.0,0.0,0.0,0.0,0.0,0.0,0.0,0.0,0.0,0.0,0.0,0.0,0.0,0.0,0.0,0.0,0.0,0.0,0.0,0.0,0.0,0.0,0.0,0.0,0.0,0.0,0.0,0.0,0.0,0.0,0.0,0.0,0.0,0.0,0.0,0.0,0.0,0.0,0.0,0.0,0.0,0.0,0.0,0.0,0.0,0.0,0.0,0.0,0.0,0.0,0.0,0.0,0.0,0.0,0.0,0.0,0.0,0.0,0.0,0.0,0.0,0.0,0.0,0.0,0.0,0.0,0.0,0.0,0.0,0.0,0.0,0.0,0.0,0.0,0.0,0.0,0.0,0.0,0.0,0.0,0.0,0.0,0.0,0.0,0.0,0.0,0.0,0.0,0.0,0.0,0.0,0.0,0.0,0.0,0.0,0.0,0.0,0.0,0.0,0.0,0.0,0.0,0.0,0.0,0.0,0.0,0.0,0.0,0.0,0.0,0.0,0.0,0.0,0.0,0.0,0.0,0.0,0.0,0.0,0.0,0.0,0.0,0.0,0.0,0.0,0.0,0.0,0.0,0.0,0.0,0.0,0.0,0.0,0.0,0.0,0.0,0.0,0.0,0.0,0.0,0.0,0.0,0.0,0.0,0.0,0.0,0.0,0.0,0.0,0.0,0.0,0.0,0.0,0.0,0.0,0.0,0.0,0.0,0.0,0.0,0.0,0.0,0.0,0.0,0.0,0.0,0.0,0.0,0.0,0.0,0.0,0.0,0.0,0.0,0.0,0.0,0.0,0.0,0.0,0.0,0.0,0.0,0.0,0.0,0.0,0.0,0.0,0.0,0.0,0.0,0.0,0.0,0.0,0.0,0.0,0.0,0.0,0.0,0.0,0.0,0.0,0.0,0.0,0.0,0.0,0.0,0.0,0.0,0.0,0.0,0.0,0.0,0.0,0.0,0.0,0.0,0.0,0.0,0.0,0.0,0.0,0.0,0.0,0.0,0.0,0.0,0.0,0.0,0.0,0.0,0.0,0.0,0.0,0.0,0.0,0.0,0.0,0.0,0.0,0.0,0.0,0.0,0.0,0.0,0.0,0.0,0.0,0.0,0.0,0.0,0.0,0.0,0.0,0.0,0.0,0.0,0.0,0.0,0.0,0.0,0.0,0.0,0.0,0.0,0.0,0.0,0.0,0.0,0.0,0.0,0.0,0.0,0.0,0.0,0.0,0.0,0.0,0.0,0.0,0.0,0.0,0.0,0.0,0.0,0.0,0.0,0.0,0.0,0.0,0.0,0.0,0.0,0.0,0.0,0.0,0.0,0.0,0.0,0.0,0.0,0.0,0.0,0.0,0.0,0.0,0.0,0.0,0.0,0.0,0.0,0.0,0.0,0.0,0.0,0.0,0.0,0.0,0.0,0.0,0.0,0.0,0.0,0.0,0.0,0.0,0.0,0.0,0.0,0.0,0.0,0.0,0.0,0.0,0.0,0.0,0.0,0.0,0.0,0.0,0.0,0.0,0.0,0.0,0.0,0.0,0.0,0.0,0.0,0.0,0.0,0.0,0.0,0.0,0.0,0.0,0.0,0.0,0.0,0.0,0.0,0.0,0.0,0.0,0.0,0.0,0.0,0.0,0.0,0.0,0.0,0.0,0.0,0.0,0.0,0.0,0.0,0.0,0.0,0.0,0.0,0.0,0.0,0.0,0.0,0.0,0.0,0.0,0.0,0.0,0.0,0.0,0.0,0.0,0.0,0.0,0.0,0.0,0.0,0.0,0.0,0.0,0.0,0.0,0.0,0.0,0.0,0.0,0.0,0.0,0.0,0.0,0.0,0.0,0.0,0.0,0.0,0.0,0.0,0.0,0.0,0.0,0.0,0.0,0.0,0.0,0.0,0.0,0.0,0.0,0.0,0.0,0.0,0.0,0.0,0.0,0.0,0.0,0.0,0.0,0.0,0.0,0.0,0.0,0.0,0.0,0.0,0.0,0.0,0.0,0.0,0.0,0.0,0.0,0.0,0.0,0.0,0.0,0.0,0.0,0.0,0.0,0.0,0.0,0.0,0.0,0.0,0.0,0.0,0.0,0.0,0.0,0.0,0.0,0.0,0.0,0.0,0.0,0.0,0.0,0.0,0.0,0.0,0.0,0.0,0.0,0.0,0.0,0.0,0.0,0.0,0.0,0.0,0.0,0.0,0.0,0.0,0.0,0.0,0.0,0.0,0.0,0.0,0.0,0.0,0.0,0.0,0.0,0.0,0.0,0.0,0.0,0.0,0.0,0.0,0.0,0.0,0.0,0.0,0.0,0.0,0.0,0.0,0.0,0.0,0.0,0.0,0.0,0.0,0.0,0.0,0.0,0.0,0.0,0.0,0.0,0.0,0.0,0.0,0.0,0.0,0.0,0.0,0.0,0.0,0.0,0.0,0.0,0.0,0.0,0.0,0.0,0.0,0.0,0.0,0.0,0.0,0.0,0.0,0.0,0.0,0.0,0.0,0.0,0.0,0.0,0.0,0.0,0.0,0.0,0.0,0.0,0.0,0.0,0.0,0.0,0.0,0.0,0.0,0.0,0.0,0.0,0.0,0.0,0.0,0.0,0.0,0.0,0.0,0.0,0.0,0.0,0.0,0.0,0.0,0.0,0.0,0.0,0.0,0.0,0.0,0.0,0.0,0.0,0.0,0.0,0.0,0.0,0.0,0.0,0.0,0.0,0.0,0.0,0.0,0.0,0.0,0.0,0.0,0.0,0.0,0.0,0.0,0.0,0.0,0.0,0.0,0.0,0.0,0.0,0.0,0.0,0.0,0.0,0.0,0.0,0.0,0.0,0.0,0.0,0.0,0.0,0.0,0.0,0.0,0.0,0.0,0.0,0.0,0.0,0.0,0.0,0.0,0.0,0.0,0.0,0.0,0.0,0.0,0.0,0.0,0.0,0.0,0.0,0.0,0.0,0.0,0.0,0.0,0.0,0.0,0.0,0.0,0.0,0.0,0.0,0.0,0.0,0.0,0.0,0.0,0.0,0.0,0.0,0.0,0.0,0.0,0.0,0.0,0.0,0.0,0.0,0.0,0.0,0.0,0.0,0.0,0.0,0.0,0.0,0.0,0.0,0.0,0.0,0.0,0.0,0.0,0.0,0.0,0.0,0.0,0.0,0.0,0.0,0.0,0.0,0.0,0.0,0.0,0.0,0.0,0.0,0.0,0.0,0.0,0.0,0.0,0.0,0.0,0.0,0.0,0.0,0.0,0.0,0.0,0.0,0.0,0.0,0.0,0.0,0.0,0.0,0.0,0.0,0.0,0.0,0.0,0.0,0.0,0.0,0.0,0.0,0.0,0.0,0.0,0.0,0.0,0.0,0.0,0.0,0.0,0.0,0.0,0.0,0.0,0.0,0.0,0.0,0.0,0.0,0.0,0.0,0.0,0.0,0.0,0.0,0.0,0.0,0.0,0.0,0.0,0.0,0.0,0.0,0.0,0.0,0.0,0.0,0.0,0.0,0.0,0.0,0.0,0.0,0.0,0.0,0.0,0.0,0.0,0.0,0.0,0.0,0.0,0.0,0.0,0.0,0.0,0.0,0.0,0.0,0.0,0.0,0.0,0.0,0.0,0.0,0.0,0.0,0.0,0.0,0.0,0.0,0.0,0.0,0.0,0.0,0.0,0.0,0.0,0.0,0.0,0.0,0.0,0.0,0.0,0.0,0.0,0.0,0.0,0.0,0.0,0.0,0.0,0.0,0.0,0.0,0.0,0.0,0.0,0.0,0.0,0.0,0.0,0.0,0.0,0.0,0.0,0.0,0.0,0.0,0.0,0.0,0.0,0.0,0.0,0.0,0.0,0.0,0.0,0.0,0.0,0.0,0.0,0.0,0.0,0.0,0.0,0.0,0.0,0.0,0.0,0.0,0.0,0.0,0.0,0.0,0.0,0.0,0.0,0.0,0.0,0.0,0.0,0.0,0.0,0.0,0.0,0.0,0.0,0.0,0.0,0.0,0.0,0.0,0.0,0.0,0.0,0.0,0.0,0.0,0.0,0.0,0.0,0.0,0.0,0.0,0.0,0.0,0.0,0.0,0.0,0.0,0.0,0.0,0.0,0.0,0.0,0.0,0.0,0.0,0.0,0.0,0.0,0.0,0.0,0.0,0.0,0.0,0.0,0.0,0.0,0.0,0.0,0.0,0.0,0.0,0.0,0.0,0.0,0.0,0.0,0.0,0.0,0.0,0.0,0.0,0.0,2.2678,0.0,0.0,0.0,1.9153,0.0,0.0,0.0,0.0,0.0,0.0,0.0,0.0,0.0,0.0,0.0,0.0,0.0,0.0,0.0,0.0,0.0,0.0,0.0,0.0,0.0,0.0,0.0,0.0,0.0,0.0,0.0,0.0,0.0,0.0,0.0,0.0,0.0,0.0,0.0,0.0,0.0,0.0,0.0,0.0,0.0,0.0,0.0,0.0,0.0,0.0,0.0,0.0,0.0,0.0,0.0,0.0,0.0,0.0,0.0,0.0,0.0,0.0,0.0,0.0,0.0,0.0,0.0,0.0,0.0,0.0,0.0,0.0,0.0,0.0,0.0,0.0,0.0,0.0,0.0,0.0,0.0,0.0,0.0,0.0,0.0,0.0,0.0,0.0,0.0,0.0,0.0,0.0,0.0,0.0,0.0,0.0,0.0,0.0,0.0,0.0,0.0,0.0,0.0,0.0,0.0,0.0,0.0,0.0,0.0,0.0,0.0,0.0,0.0,0.0,2.2712,2.1365,2.1332,2.0643,1.9193,0.0,0.0,0.0,0.0,0.0,0.0,0.0,0.0,0.0,0.0,0.0,0.0,0.0,0.0,0.0,0.0,0.0,0.0,0.0,0.0,0.0,0.0,0.0,0.0,0.0,0.0,0.0,0.0,0.0,0.0,0.0,0.0,0.0,0.0,0.0,0.0,0.0,0.0,0.0,0.0,0.0,0.0,0.0,0.0,0.0,0.0,0.0,0.0,0.0,0.0,0.0,0.0,0.0,0.0,0.0,0.0,0.0,0.0,0.0,0.0,0.0,0.0,0.0,0.0,0.0,0.0,0.0,0.0,0.0,0.0,0.0,0.0,0.0,0.0,0.0,0.0,0.0,0.0,0.0,0.0,0.0,0.0,0.0,0.0,0.0,0.0,0.0,0.0,0.0,0.0,0.0,0.0,0.0,0.0,0.0,0.0,0.0,0.0,0.0,0.0,0.0,0.0,0.0,0.0,0.0,0.0,0.0,0.0,0.0,0.0,0.0,0.0,2.1191,2.049,1.9187,0.0,0.0,0.0,0.0,0.0,0.0,0.0,0.0,0.0,0.0,0.0,0.0,0.0,0.0,0.0,0.0,0.0,0.0,0.0,0.0,0.0,0.0,0.0,0.0,0.0,0.0,0.0,0.0,0.0,0.0,0.0,0.0,0.0,0.0,0.0,0.0,0.0,0.0,0.0,0.0,0.0,0.0,0.0,0.0,0.0,0.0,0.0,0.0,0.0,0.0,0.0,0.0,0.0,0.0,0.0,0.0,0.0,0.0,0.0,0.0,0.0,0.0,0.0,0.0,0.0,0.0,0.0,0.0,0.0,0.0,0.0,0.0,0.0,0.0,0.0,0.0,0.0,0.0,0.0,0.0,0.0,0.0,0.0,0.0,0.0,0.0,0.0,0.0,0.0,0.0,0.0,0.0,0.0,0.0,0.0,0.0,0.0,0.0,0.0,0.0,0.0,0.0,0.0,0.0,0.0,0.0,0.0,0.0,0.0,0.0,2.2007,2.1408,2.0707,0.0,1.9151,0.0,0.0,0.0,0.0,0.0,0.0,0.0,0.0,0.0,0.0,0.0,0.0,0.0,0.0,0.0,0.0,0.0,0.0,0.0,0.0,0.0,0.0,0.0,0.0,0.0,0.0,0.0,0.0,0.0,0.0,0.0,0.0,0.0,0.0,0.0,0.0,0.0,0.0,0.0,0.0,0.0,0.0,0.0,0.0,0.0,0.0,0.0,0.0,0.0,0.0,0.0,0.0,0.0,0.0,0.0,0.0,0.0,0.0,0.0,0.0,0.0,0.0,0.0,0.0,0.0,0.0,0.0,0.0,0.0,0.0,0.0,0.0,0.0,0.0,0.0,0.0,0.0,0.0,0.0,0.0,0.0,0.0,0.0,0.0,0.0,0.0,0.0,0.0,0.0,0.0,0.0,0.0,0.0,0.0,0.0,0.0,0.0,0.0,0.0,0.0,0.0,0.0,0.0,0.0,0.0,0.0,0.0,0.0,0.0,0.0,2.2489,2.1417,2.029,1.9514,0.0,0.0,0.0,0.0,0.0,0.0,0.0,0.0,0.0,0.0,0.0,0.0,0.0,0.0,0.0,0.0,0.0,0.0,0.0,0.0,0.0,0.0,0.0,0.0,0.0,0.0,0.0,0.0,0.0,0.0,0.0,0.0,0.0,0.0,0.0,0.0,0.0,0.0,0.0,0.0,0.0,0.0,0.0,0.0,0.0,0.0,0.0,0.0,0.0,0.0,0.0,0.0,0.0,0.0,0.0,0.0,0.0,0.0,0.0,0.0,0.0,0.0,0.0,0.0,0.0,0.0,0.0,0.0,0.0,0.0,0.0,0.0,0.0,0.0,0.0,0.0,0.0,0.0,0.0,0.0,0.0,0.0,0.0,0.0,0.0,0.0,0.0,0.0,0.0,0.0,0.0,0.0,0.0,0.0,0.0,0.0,0.0,0.0,0.0,0.0,0.0,0.0,0.0,0.0,0.0,0.0,0.0,0.0,0.0,0.0,2.3188,2.2564,2.1215,2.0225,1.9565,1.9298,0.0,0.0,0.0,0.0,0.0,0.0,0.0,0.0,0.0,0.0,0.0,0.0,0.0,0.0,0.0,0.0,0.0,0.0,0.0,0.0,0.0,0.0,0.0,0.0,0.0,0.0,0.0,0.0,0.0,0.0,0.0,0.0,0.0,0.0,0.0,0.0,0.0,0.0,0.0,0.0,0.0,0.0,0.0,0.0,0.0,0.0,0.0,0.0,0.0,0.0,0.0,0.0,0.0,0.0,0.0,0.0,0.0,0.0,0.0,0.0,0.0,0.0,0.0,0.0,0.0,0.0,0.0,0.0,0.0,0.0,0.0,0.0,0.0,0.0,0.0,0.0,0.0,0.0,0.0,0.0,0.0,0.0,0.0,0.0,0.0,0.0,0.0,0.0,0.0,0.0,0.0,0.0,0.0,0.0,0.0,0.0,0.0,0.0,0.0,0.0,0.0,0.0,0.0,0.0,0.0,0.0,0.0,0.0,2.3175,2.2712,2.188,2.0727,2.0654,2.0263,0.0,0.0,0.0,0.0,0.0,0.0,0.0,0.0,0.0,0.0,0.0,0.0,0.0,0.0,0.0,0.0,0.0,0.0,0.0,0.0,0.0,0.0,0.0,0.0,0.0,0.0,0.0,0.0,0.0,0.0,0.0,0.0,0.0,0.0,0.0,0.0,0.0,0.0,0.0,0.0,0.0,0.0,0.0,0.0,0.0,0.0,0.0,0.0,0.0,0.0,0.0,0.0,0.0,0.0,0.0,0.0,0.0,0.0,0.0,0.0,0.0,0.0,0.0,0.0,0.0,0.0,0.0,0.0,0.0,0.0,0.0,0.0,0.0,0.0,0.0,0.0,0.0,0.0,0.0,0.0,0.0,0.0,0.0,0.0,0.0,0.0,0.0,0.0,0.0,0.0,0.0,0.0,0.0,0.0,0.0,0.0,0.0,0.0,0.0,0.0,0.0,0.0,0.0,0.0,0.0,0.0,0.0,0.0,0.0,2.3212,2.2885,2.2594,2.2263,2.1325,2.0732,0.0,0.0,0.0,0.0,0.0,0.0,0.0,0.0,0.0,0.0,0.0,0.0,0.0,0.0,0.0,0.0,0.0,0.0,0.0,0.0,0.0,0.0,0.0,0.0,0.0,0.0,0.0,0.0,0.0,0.0,0.0,0.0,0.0,0.0,0.0,0.0,0.0,0.0,0.0,0.0,0.0,0.0,0.0,0.0,0.0,0.0,0.0,0.0,0.0,0.0,0.0,0.0,0.0,0.0,0.0,0.0,0.0,0.0,0.0,0.0,0.0,0.0,0.0,0.0,0.0,0.0,0.0,0.0,0.0,0.0,0.0,0.0,0.0,0.0,0.0,0.0,0.0,0.0,0.0,0.0,0.0,0.0,0.0,0.0,0.0,0.0,0.0,0.0,0.0,0.0,0.0,0.0,0.0,0.0,0.0,0.0,0.0,0.0,0.0,0.0,0.0,0.0,0.0,0.0,0.0,0.0,0.0,0.0,0.0,2.386,2.3597,2.3494,2.3622,2.2485,2.1576,0.0,0.0,0.0,0.0,0.0,0.0,0.0,0.0,0.0,0.0,0.0,0.0,0.0,0.0,0.0,0.0,0.0,0.0,0.0,0.0,0.0,0.0,0.0,0.0,0.0,0.0,0.0,0.0,0.0,0.0,0.0,0.0,0.0,0.0,0.0,0.0,0.0,0.0,0.0,0.0,0.0,0.0,0.0,0.0,0.0,0.0,0.0,0.0,0.0,0.0,0.0,0.0,0.0,0.0,0.0,0.0,0.0,0.0,0.0,0.0,0.0,0.0,0.0,0.0,0.0,0.0,0.0,0.0,0.0,0.0,0.0,0.0,0.0,0.0,0.0,0.0,0.0,0.0,0.0,0.0,0.0,0.0,0.0,0.0,0.0,0.0,0.0,0.0,0.0,0.0,0.0,0.0,0.0,0.0,0.0,0.0,0.0,0.0,0.0,0.0,0.0,0.0,0.0,0.0,0.0,0.0,0.0,0.0,2.3744,2.5126,2.4801,2.4642,2.4723,2.4061,2.2968,0.0,0.0,0.0,0.0,0.0,0.0,0.0,0.0,0.0,0.0,0.0,0.0,0.0,0.0,0.0,0.0,0.0,0.0,0.0,0.0,0.0,0.0,0.0,0.0,0.0,0.0,0.0,0.0,0.0,0.0,0.0,0.0,0.0,0.0,0.0,0.0,0.0,0.0,0.0,0.0,0.0,0.0,0.0,0.0,0.0,0.0,0.0,0.0,0.0,0.0,0.0,0.0,0.0,0.0,0.0,0.0,0.0,0.0,0.0,0.0,0.0,0.0,0.0,0.0,0.0,0.0,0.0,0.0,0.0,0.0,0.0,0.0,0.0,0.0,0.0,0.0,0.0,0.0,0.0,0.0,0.0,0.0,0.0,0.0,0.0,0.0,0.0,0.0,0.0,0.0,0.0,0.0,0.0,0.0,0.0,0.0,0.0,0.0,0.0,0.0,0.0,0.0,0.0,0.0,0.0,0.0,0.0,0.0,0.0,2.7093,2.6679,2.6783,2.7421,2.5767,2.4312,0.0,0.0,0.0,0.0,0.0,0.0,0.0,0.0,0.0,0.0,0.0,0.0,0.0,0.0,0.0,0.0,0.0,0.0,0.0,0.0,0.0,0.0,0.0,0.0,0.0,0.0,0.0,0.0,0.0,0.0,0.0,0.0,0.0,0.0,0.0,0.0,0.0,0.0,0.0,0.0,0.0,0.0,0.0,0.0,0.0,0.0,0.0,0.0,0.0,0.0,0.0,0.0,0.0,0.0,0.0,0.0,0.0,0.0,0.0,0.0,0.0,0.0,0.0,0.0,0.0,0.0,0.0,0.0,0.0,0.0,0.0,0.0,0.0,0.0,0.0,0.0,0.0,0.0,0.0,0.0,0.0,0.0,0.0,0.0,0.0,0.0,0.0,0.0,0.0,0.0,0.0,0.0,0.0,0.0,0.0,0.0,0.0,0.0,0.0,0.0,0.0,0.0,0.0,0.0,0.0,0.0,0.0,0.0,0.0,3.0509,2.945,2.9324,3.0318,2.8357,2.6611,2.5143,0.0,0.0,0.0,0.0,0.0,0.0,0.0,0.0,0.0,0.0,0.0,0.0,0.0,0.0,0.0,0.0,0.0,0.0,0.0,0.0,0.0,0.0,0.0,0.0,0.0,0.0,0.0,0.0,0.0,0.0,0.0,0.0,0.0,0.0,0.0,0.0,0.0,0.0,0.0,0.0,0.0,0.0,0.0,0.0,0.0,0.0,0.0,0.0,0.0,0.0,0.0,0.0,0.0,0.0,0.0,0.0,0.0,0.0,0.0,0.0,0.0,0.0,0.0,0.0,0.0,0.0,0.0,0.0,0.0,0.0,0.0,0.0,0.0,0.0,0.0,0.0,0.0,0.0,0.0,0.0,0.0,0.0,0.0,0.0,0.0,0.0,0.0,0.0,0.0,0.0,0.0,0.0,0.0,0.0,0.0,0.0,0.0,0.0,0.0,0.0,0.0,0.0,0.0,0.0,0.0,0.0,0.0,0.0,3.5034,3.3053,3.2368,3.307,3.1556,2.9546,0.0,0.0,0.0,0.0,0.0,0.0,0.0,0.0,0.0,0.0,0.0,0.0,0.0,0.0,0.0,0.0,0.0,0.0,0.0,0.0,0.0,0.0,0.0,0.0,0.0,0.0,0.0,0.0,0.0,0.0,0.0,0.0,0.0,0.0,0.0,0.0,0.0,0.0,0.0,0.0,0.0,0.0,0.0,0.0,0.0,0.0,0.0,0.0,0.0,0.0,0.0,0.0,0.0,0.0,0.0,0.0,0.0,0.0,0.0,0.0,0.0,0.0,0.0,0.0,0.0,0.0,0.0,0.0,0.0,0.0,0.0,0.0,0.0,0.0,0.0,0.0,0.0,0.0,0.0,0.0,0.0,0.0,0.0,0.0,0.0,0.0,0.0,0.0,0.0,0.0,0.0,0.0,0.0,0.0,0.0,0.0,0.0,0.0,0.0,0.0,0.0,0.0,0.0,0.0,0.0,0.0,0.0,0.0,0.0,3.6167,3.7006,3.6936,3.5912,3.3122,3.0671,0.0,0.0,0.0,0.0,0.0,0.0,0.0,0.0,0.0,0.0,0.0,0.0,0.0,0.0,0.0,0.0,0.0,0.0,0.0,0.0,0.0,0.0,0.0,0.0,0.0,0.0,0.0,0.0,0.0,0.0,0.0,0.0,0.0,0.0,0.0,0.0,0.0,0.0,0.0,0.0,0.0,0.0,0.0,0.0,0.0,0.0,0.0,0.0,0.0,0.0,0.0,0.0,0.0,0.0,0.0,0.0,0.0,0.0,0.0,0.0,0.0,0.0,0.0,0.0,0.0,0.0,0.0,0.0,0.0,0.0,0.0,0.0,0.0,0.0,0.0,0.0,0.0,0.0,0.0,0.0,0.0,0.0,0.0,0.0,0.0,0.0,0.0,0.0,0.0,0.0,0.0,0.0,0.0,0.0,0.0,0.0,0.0,0.0,0.0,0.0,0.0,0.0,0.0,0.0,0.0,0.0,0.0,0.0,3.5825,3.7848,3.9358,3.9851,3.9184,3.5862,3.3084,0.0,0.0,0.0,0.0,0.0,0.0,0.0,0.0,0.0,0.0,0.0,0.0,0.0,0.0,0.0,0.0,0.0,0.0,0.0,0.0,0.0,0.0,0.0,0.0,0.0,0.0,0.0,0.0,0.0,0.0,0.0,0.0,0.0,0.0,0.0,0.0,0.0,0.0,0.0,0.0,0.0,0.0,0.0,0.0,0.0,0.0,0.0,0.0,0.0,0.0,0.0,0.0,0.0,0.0,0.0,0.0,0.0,0.0,0.0,0.0,0.0,0.0,0.0,0.0,0.0,0.0,0.0,0.0,0.0,0.0,0.0,0.0,0.0,0.0,0.0,0.0,0.0,0.0,0.0,0.0,0.0,0.0,0.0,0.0,0.0,0.0,0.0,0.0,0.0,0.0,0.0,0.0,0.0,0.0,0.0,0.0,0.0,0.0,0.0,0.0,0.0,0.0,0.0,0.0,0.0,0.0,0.0,0.0,3.7675,3.9612,4.0693,4.1559,4.207,3.8867,3.5843,0.0,0.0,0.0,0.0,0.0,0.0,0.0,0.0,0.0,0.0,0.0,0.0,0.0,0.0,0.0,0.0,0.0,0.0,0.0,0.0,0.0,0.0,0.0,0.0,0.0,0.0,0.0,0.0,0.0,0.0,0.0,0.0,0.0,0.0,0.0,0.0,0.0,0.0,0.0,0.0,0.0,0.0,0.0,0.0,0.0,0.0,0.0,0.0,0.0,0.0,0.0,0.0,0.0,0.0,0.0,0.0,0.0,0.0,0.0,0.0,0.0,0.0,0.0,0.0,0.0,0.0,0.0,0.0,0.0,0.0,0.0,0.0,0.0,0.0,0.0,0.0,0.0,0.0,0.0,0.0,0.0,0.0,0.0,0.0,0.0,0.0,0.0,0.0,0.0,0.0,0.0,0.0,0.0,0.0,0.0,0.0,0.0,0.0,0.0,0.0,0.0,0.0,0.0,0.0,0.0,0.0,0.0,0.0,3.8641,4.0549,4.2116,4.2654,4.2096,3.8759,3.6,0.0,0.0,0.0,0.0,0.0,0.0,0.0,0.0,0.0,0.0,0.0,0.0,0.0,0.0,0.0,0.0,0.0,0.0,0.0,0.0,0.0,0.0,0.0,0.0,0.0,0.0,0.0,0.0,0.0,0.0,0.0,0.0,0.0,0.0,0.0,0.0,0.0,0.0,0.0,0.0,0.0,0.0,0.0,0.0,0.0,0.0,0.0,0.0,2.4801,0.0,0.0,0.0,0.0,0.0,0.0,0.0,0.0,0.0,0.0,0.0,0.0,0.0,0.0,0.0,0.0,0.0,0.0,0.0,0.0,0.0,0.0,0.0,0.0,0.0,0.0,0.0,0.0,0.0,0.0,0.0,0.0,0.0,0.0,0.0,0.0,0.0,0.0,0.0,0.0,0.0,0.0,0.0,0.0,0.0,0.0,0.0,0.0,0.0,0.0,0.0,0.0,0.0,0.0,0.0,0.0,0.0,0.0,0.0,3.9663,4.152,4.2812,4.3266,4.2691,3.9941,3.7257,0.0,0.0,0.0,0.0,0.0,0.0,0.0,0.0,0.0,0.0,0.0,0.0,0.0,0.0,0.0,0.0,0.0,0.0,0.0,0.0,0.0,0.0,0.0,0.0,0.0,0.0,0.0,0.0,0.0,0.0,0.0,0.0,0.0,0.0,0.0,0.0,0.0,0.0,0.0,0.0,0.0,0.0,0.0,0.0,0.0,0.0,0.0,0.0,0.0,0.0,0.0,0.0,0.0,0.0,0.0,0.0,0.0,0.0,0.0,0.0,0.0,0.0,0.0,0.0,0.0,0.0,0.0,0.0,0.0,0.0,0.0,0.0,0.0,0.0,0.0,0.0,0.0,0.0,0.0,0.0,0.0,0.0,0.0,0.0,0.0,0.0,0.0,0.0,0.0,0.0,0.0,0.0,0.0,0.0,0.0,0.0,0.0,0.0,0.0,0.0,0.0,0.0,0.0,0.0,0.0,0.0,0.0,3.8065,4.0839,4.2433,4.3461,4.3841,4.3471,4.1407,3.8716,3.5339,0.0,0.0,0.0,0.0,0.0,0.0,0.0,0.0,0.0,0.0,0.0,0.0,0.0,0.0,0.0,0.0,0.0,0.0,0.0,0.0,0.0,0.0,0.0,0.0,0.0,0.0,0.0,0.0,0.0,0.0,0.0,0.0,0.0,0.0,0.0,0.0,0.0,0.0,2.4378,2.71,0.0,0.0,0.0,0.0,0.0,0.0,0.0,0.0,2.9744,0.0,0.0,0.0,0.0,0.0,0.0,0.0,0.0,0.0,0.0,0.0,0.0,0.0,0.0,0.0,0.0,0.0,0.0,0.0,0.0,0.0,0.0,0.0,0.0,0.0,0.0,0.0,0.0,0.0,0.0,0.0,0.0,0.0,0.0,0.0,0.0,0.0,0.0,0.0,0.0,0.0,0.0,0.0,0.0,0.0,0.0,0.0,0.0,0.0,0.0,0.0,0.0,0.0,0.0,0.0,0.0,3.606,3.9884,4.2341,4.3314,4.4887,4.4982,4.3442,4.1971,3.9222,3.5119,0.0,0.0,0.0,0.0,0.0,0.0,0.0,0.0,0.0,0.0,0.0,0.0,0.0,0.0,0.0,0.0,0.0,0.0,0.0,0.0,0.0,0.0,0.0,0.0,0.0,0.0,0.0,0.0,0.0,0.0,0.0,0.0,0.0,0.0,0.0,0.0,0.0,0.0,0.0,2.9527,3.067,0.0,0.0,0.0,0.0,0.0,0.0,0.0,0.0,3.1587,0.0,0.0,0.0,0.0,0.0,0.0,0.0,0.0,0.0,0.0,0.0,0.0,0.0,0.0,0.0,0.0,0.0,0.0,0.0,0.0,0.0,0.0,0.0,0.0,0.0,0.0,0.0,0.0,0.0,0.0,0.0,0.0,0.0,0.0,0.0,0.0,0.0,0.0,0.0,0.0,0.0,0.0,0.0,0.0,0.0,0.0,0.0,0.0,0.0,0.0,0.0,0.0,0.0,0.0,0.0,3.6653,4.0773,4.3299,4.4118,4.5404,4.5308,4.3747,4.2094,3.9163,0.0,0.0,0.0,0.0,0.0,0.0,0.0,0.0,0.0,0.0,0.0,0.0,0.0,0.0,0.0,0.0,0.0,0.0,0.0,0.0,0.0,0.0,0.0,0.0,0.0,0.0,0.0,0.0,0.0,0.0,0.0,0.0,0.0,0.0,0.0,0.0,0.0,0.0,0.0,0.0,3.1589,3.2852,3.492,0.0,0.0,0.0,0.0,0.0,0.0,3.4905,3.3705,0.0,0.0,0.0,0.0,0.0,0.0,0.0,0.0,0.0,0.0,0.0,0.0,0.0,0.0,0.0,0.0,0.0,0.0,0.0,0.0,0.0,0.0,0.0,0.0,0.0,0.0,0.0,0.0,0.0,0.0,0.0,0.0,0.0,0.0,0.0,0.0,0.0,0.0,0.0,0.0,0.0,0.0,0.0,0.0,0.0,0.0,0.0,0.0,0.0,0.0,0.0,0.0,0.0,0.0,0.0,3.7028,4.144,4.4082,4.4716,4.552,4.5331,4.4081,4.1952,3.8748,0.0,0.0,0.0,0.0,0.0,0.0,0.0,0.0,0.0,0.0,0.0,0.0,0.0,0.0,0.0,0.0,0.0,0.0,0.0,0.0,0.0,0.0,0.0,0.0,0.0,0.0,0.0,0.0,0.0,0.0,0.0,0.0,0.0,0.0,0.0,0.0,0.0,0.0,0.0,0.0,0.0,3.468,3.6476,3.6722,0.0,0.0,0.0,0.0,3.7847,3.671,0.0,0.0,0.0,0.0,0.0,0.0,0.0,0.0,0.0,0.0,0.0,0.0,0.0,0.0,0.0,0.0,0.0,0.0,0.0,0.0,0.0,0.0,0.0,0.0,0.0,0.0,0.0,0.0,0.0,0.0,0.0,0.0,0.0,0.0,0.0,0.0,0.0,0.0,0.0,0.0,0.0,0.0,0.0,0.0,0.0,0.0,0.0,0.0,0.0,0.0,0.0,0.0,0.0,0.0,0.0,0.0,3.8011,4.2418,4.4715,4.4722,4.5362,4.5265,4.4283,4.1406,3.8158,0.0,0.0,0.0,0.0,0.0,0.0,0.0,0.0,0.0,0.0,0.0,0.0,0.0,0.0,0.0,0.0,0.0,0.0,0.0,0.0,0.0,0.0,0.0,0.0,0.0,0.0,0.0,0.0,0.0,0.0,0.0,0.0,0.0,0.0,0.0,0.0,0.0,0.0,0.0,0.0,0.0,3.4939,3.7321,3.7649,3.7602,0.0,0.0,3.7992,3.8827,3.8175,0.0,0.0,0.0,0.0,0.0,0.0,0.0,0.0,0.0,0.0,0.0,0.0,0.0,0.0,0.0,0.0,0.0,0.0,0.0,0.0,0.0,0.0,0.0,0.0,0.0,0.0,0.0,0.0,0.0,0.0,0.0,0.0,0.0,0.0,0.0,0.0,0.0,0.0,0.0,0.0,0.0,0.0,0.0,0.0,0.0,0.0,0.0,0.0,0.0,0.0,0.0,0.0,0.0,0.0,0.0,3.6851,3.8217,4.3004,4.5511,4.5442,4.5582,4.5555,4.5352,4.2145,3.8848,0.0,0.0,0.0,0.0,0.0,0.0,0.0,0.0,0.0,0.0,0.0,0.0,0.0,0.0,0.0,0.0,0.0,0.0,0.0,0.0,0.0,0.0,0.0,0.0,0.0,0.0,0.0,0.0,0.0,0.0,0.0,0.0,0.0,0.0,0.0,0.0,0.0,0.0,0.0,0.0,0.0,0.0,3.9061,3.9734,0.0,0.0,0.0,3.9721,4.0537,0.0,0.0,0.0,0.0,0.0,0.0,0.0,0.0,0.0,0.0,0.0,0.0,0.0,0.0,0.0,0.0,0.0,0.0,0.0,0.0,0.0,0.0,0.0,0.0,0.0,0.0,0.0,0.0,0.0,0.0,0.0,0.0,0.0,0.0,0.0,0.0,0.0,0.0,0.0,0.0,0.0,0.0,0.0,0.0,0.0,0.0,0.0,0.0,0.0,0.0,0.0,0.0,0.0,0.0,0.0,0.0,0.0,3.8764,4.3536,4.6063,4.6203,4.5958,4.5966,4.6123,4.2884,0.0,0.0,0.0,0.0,0.0,0.0,0.0,0.0,0.0,0.0,0.0,0.0,0.0,0.0,0.0,0.0,0.0,0.0,0.0,0.0,0.0,0.0,0.0,0.0,0.0,0.0,0.0,2.4014,0.0,0.0,0.0,0.0,0.0,0.0,0.0,0.0,0.0,0.0,0.0,0.0,0.0,0.0,3.8348,3.9985,4.1075,4.1648,0.0,0.0,4.1094,4.1525,4.117,4.0286,0.0,0.0,0.0,0.0,0.0,0.0,0.0,0.0,0.0,0.0,0.0,0.0,0.0,0.0,0.0,0.0,0.0,0.0,0.0,0.0,0.0,0.0,0.0,0.0,0.0,0.0,0.0,0.0,0.0,0.0,0.0,0.0,0.0,0.0,0.0,0.0,0.0,0.0,0.0,0.0,0.0,0.0,0.0,0.0,0.0,0.0,0.0,0.0,0.0,0.0,0.0,0.0,0.0,0.0,3.8241,4.0473,4.4103,4.6272,4.6777,4.6597,4.6352,4.6171,4.3353,4.0261,0.0,0.0,0.0,0.0,0.0,0.0,0.0,0.0,0.0,0.0,0.0,0.0,0.0,0.0,0.0,0.0,0.0,0.0,0.0,0.0,0.0,0.0,0.0,0.0,0.0,0.0,0.0,0.0,0.0,0.0,0.0,0.0,0.0,0.0,0.0,0.0,0.0,0.0,0.0,0.0,0.0,3.7507,3.9138,4.0746,4.1538,0.0,4.1342,4.1659,4.0893,4.0798,4.0495,3.9564,0.0,0.0,0.0,0.0,0.0,0.0,0.0,0.0,0.0,0.0,0.0,0.0,0.0,0.0,0.0,0.0,0.0,0.0,0.0,0.0,0.0,0.0,0.0,0.0,0.0,0.0,0.0,0.0,0.0,0.0,0.0,0.0,0.0,0.0,0.0,0.0,0.0,0.0,0.0,0.0,0.0,0.0,0.0,0.0,0.0,0.0,0.0,0.0,0.0,0.0,0.0,0.0,0.0,3.8606,4.0435,4.463,4.6815,4.6885,4.7165,4.7182,4.6946,4.418,4.1557,0.0,0.0,0.0,0.0,0.0,0.0,0.0,0.0,0.0,0.0,0.0,0.0,0.0,0.0,0.0,0.0,0.0,0.0,0.0,0.0,0.0,0.0,0.0,0.0,0.0,0.0,0.0,0.0,3.4137,3.4814,3.3014,0.0,0.0,0.0,0.0,0.0,0.0,0.0,0.0,0.0,0.0,3.9991,4.2133,4.2579,0.0,0.0,4.2503,4.2407,4.3086,4.2801,4.2183,4.1241,4.0028,0.0,0.0,0.0,0.0,0.0,0.0,0.0,0.0,0.0,0.0,0.0,0.0,0.0,0.0,0.0,0.0,0.0,0.0,0.0,0.0,0.0,0.0,0.0,0.0,0.0,0.0,0.0,0.0,0.0,0.0,0.0,0.0,0.0,0.0,0.0,0.0,0.0,0.0,0.0,0.0,0.0,0.0,0.0,0.0,0.0,0.0,0.0,0.0,0.0,0.0,0.0,0.0,3.8525,4.0459,4.4602,4.6742,4.6719,4.7587,4.7812,4.7238,4.5119,4.2843,0.0,0.0,0.0,0.0,0.0,0.0,0.0,0.0,0.0,0.0,0.0,0.0,0.0,0.0,0.0,0.0,0.0,0.0,0.0,0.0,0.0,0.0,0.0,0.0,0.0,0.0,0.0,0.0,3.6421,3.6553,3.4308,0.0,0.0,0.0,0.0,0.0,0.0,0.0,0.0,0.0,0.0,4.1808,4.3759,4.3781,4.3694,4.3983,4.348,4.3337,4.4167,4.383,4.3229,4.2437,0.0,0.0,0.0,0.0,0.0,0.0,0.0,0.0,0.0,0.0,0.0,0.0,0.0,0.0,0.0,0.0,0.0,0.0,0.0,0.0,0.0,0.0,0.0,0.0,0.0,0.0,0.0,2.7746,0.0,0.0,2.4975,0.0,0.0,0.0,0.0,0.0,0.0,0.0,0.0,0.0,0.0,0.0,0.0,0.0,0.0,0.0,0.0,0.0,0.0,0.0,0.0,0.0,0.0,3.7914,4.0766,4.3891,4.5734,4.6295,4.7798,4.8085,4.7061,4.6125,4.3971,4.0514,0.0,0.0,0.0,0.0,0.0,0.0,0.0,0.0,0.0,0.0,0.0,0.0,0.0,0.0,0.0,0.0,0.0,0.0,0.0,0.0,0.0,0.0,0.0,0.0,0.0,0.0,3.5599,3.7394,3.7747,0.0,0.0,0.0,0.0,0.0,0.0,0.0,0.0,0.0,3.9422,4.0974,4.2292,4.3188,4.3952,4.4268,4.3489,4.4105,4.4383,4.3573,4.3386,4.3208,0.0,0.0,0.0,0.0,0.0,0.0,0.0,0.0,0.0,0.0,0.0,0.0,0.0,0.0,0.0,0.0,0.0,0.0,0.0,0.0,0.0,0.0,0.0,0.0,0.0,0.0,0.0,3.2897,3.2538,0.0,0.0,0.0,0.0,0.0,0.0,0.0,0.0,0.0,0.0,0.0,3.8019,3.8228,0.0,0.0,0.0,0.0,0.0,0.0,0.0,0.0,0.0,0.0,0.0,0.0,3.8688,4.0954,4.3879,4.541,4.5477,4.7535,4.8122,4.7048,4.6174,4.4088,4.0639,0.0,0.0,0.0,0.0,0.0,0.0,0.0,0.0,0.0,0.0,0.0,0.0,0.0,0.0,0.0,0.0,0.0,0.0,0.0,0.0,0.0,0.0,0.0,0.0,0.0,3.5544,0.0,0.0,0.0,0.0,0.0,0.0,0.0,0.0,0.0,0.0,3.851,4.0313,4.1917,4.3072,4.4214,4.555,4.6049,4.6341,0.0,0.0,0.0,0.0,0.0,0.0,0.0,0.0,0.0,0.0,0.0,0.0,0.0,0.0,3.4504,3.332,3.3371,3.364,3.3804,0.0,0.0,0.0,0.0,0.0,0.0,0.0,0.0,0.0,0.0,0.0,0.0,0.0,0.0,3.7035,0.0,3.6375,0.0,0.0,0.0,0.0,0.0,0.0,0.0,0.0,4.1625,4.222,4.1651,4.1944,4.1165,0.0,3.8812,3.6595,0.0,0.0,0.0,0.0,0.0,0.0,0.0,0.0,3.9121,4.0703,4.3643,4.506,4.5012,4.7274,4.8077,4.715,4.5924,4.4524,4.2902,4.0565,3.8617,0.0,0.0,0.0,0.0,0.0,0.0,0.0,0.0,0.0,0.0,0.0,0.0,0.0,0.0,0.0,0.0,0.0,0.0,0.0,0.0,0.0,0.0,0.0,3.7952,0.0,0.0,0.0,0.0,0.0,0.0,0.0,0.0,0.0,3.9351,4.1097,4.2782,4.4083,4.5235,4.6303,4.7302,0.0,0.0,0.0,0.0,0.0,0.0,0.0,4.6887,4.6124,4.5746,4.5064,4.352,4.1631,4.0262,4.0101,0.0,0.0,3.6818,3.6663,3.7024,3.7522,3.7142,3.6745,3.6582,3.6529,3.6567,0.0,0.0,0.0,0.0,0.0,0.0,0.0,0.0,4.0507,4.0848,0.0,4.0775,0.0,0.0,0.0,0.0,3.968,4.2813,0.0,0.0,4.5387,4.6053,4.4689,4.4931,4.4459,4.3356,4.2213,4.1776,4.1677,3.6098,0.0,0.0,0.0,0.0,0.0,0.0,3.9084,4.0054,4.3041,4.4586,4.4613,4.6839,4.7804,4.7331,4.5611,4.5402,4.6732,4.3036,4.123,4.1946,3.7804,0.0,0.0,0.0,0.0,0.0,0.0,0.0,0.0,0.0,0.0,0.0,0.0,0.0,0.0,0.0,0.0,0.0,0.0,0.0,0.0,3.949,0.0,0.0,0.0,0.0,0.0,0.0,0.0,0.0,0.0,4.2039,4.1331,4.3307,4.5147,4.5872,0.0,0.0,0.0,0.0,4.8469,4.8531,4.8516,4.8477,4.8373,4.8125,4.7797,4.7505,0.0,0.0,4.5579,4.4311,4.3376,4.3251,4.3196,4.2612,4.0646,4.0099,4.0349,4.1711,4.1503,4.114,4.0892,4.0263,3.9866,4.5934,0.0,0.0,0.0,0.0,4.3055,4.3614,4.4285,4.4523,4.4292,4.3778,4.3726,0.0,0.0,0.0,0.0,0.0,0.0,4.6216,4.5959,4.7381,4.7782,4.7361,4.8034,4.7367,4.5611,4.6426,4.6072,4.4598,4.2926,4.0918,3.8653,0.0,0.0,0.0,0.0,3.9406,4.0119,4.1565,4.2347,4.2373,4.4125,4.5573,4.6633,4.6973,4.7235,4.7474,4.5674,4.4308,4.3535,4.1421,0.0,0.0,0.0,0.0,0.0,0.0,0.0,0.0,0.0,0.0,0.0,0.0,0.0,0.0,0.0,0.0,0.0,0.0,0.0,4.0498,4.2441,4.2853,0.0,0.0,0.0,0.0,0.0,0.0,0.0,0.0,0.0,4.4608,4.5784,4.6945,0.0,0.0,4.9381,4.9318,5.0389,5.1196,5.1065,5.1578,0.0,5.0952,5.1195,5.1147,5.0161,4.9649,4.8885,4.7592,4.6832,4.6235,4.5839,4.5501,4.5293,4.527,4.4295,4.3664,4.3766,4.3765,4.3673,4.3254,4.2475,4.1882,4.9998,4.8179,4.632,4.5852,4.6304,4.636,4.6695,4.7258,4.726,4.6987,4.6555,4.6865,4.65,4.5616,4.5861,0.0,0.0,0.0,4.8388,4.7868,4.8806,4.9405,4.9753,5.0422,5.0241,4.9396,5.0078,4.9728,4.8292,4.7144,4.5831,4.4227,0.0,4.0424,4.0158,4.0569,4.0921,4.1276,4.2171,4.2685,4.2716,4.4784,4.6942,4.9064,4.9572,4.9834,4.991,4.8444,4.7324,4.673,4.4506,4.2314,0.0,0.0,0.0,0.0,0.0,0.0,0.0,0.0,0.0,0.0,0.0,3.2139,3.3156,0.0,0.0,0.0,4.0822,4.2252,4.4366,4.5248,0.0,0.0,0.0,0.0,0.0,0.0,0.0,4.3711,4.5056,4.6312,4.7461,4.8375,4.9088,4.9535,5.0318,5.0946,5.1153,0.0,5.2792,5.2614,5.3065,5.3202,5.2538,5.2579,5.2385,5.1405,5.0983,5.0488,4.9658,4.8985,4.8446,4.8093,4.7547,4.7267,4.7748,4.7165,4.6514,4.6116,4.5887,4.5704,4.5422,4.4299,4.3396,5.3281,5.3711,5.0529,4.9233,4.9207,4.9211,4.9217,4.9219,4.9219,4.9179,4.9179,4.9961,4.9841,4.916,4.9861,0.0,4.9152,5.0597,5.0439,4.9019,5.0182,5.1141,5.1874,5.231,5.2897,5.3613,5.3111,5.2736,5.2326,4.9658,4.887,4.9829,4.5678,4.3002,4.2075,4.2648,4.3,4.2998,4.4003,4.4522,4.4557,4.7512,5.0302,5.2719,5.249,5.2619,5.3291,5.1097,5.017,5.0648,4.7271,4.5176,4.4802,0.0,0.0,0.0,0.0,0.0,0.0,0.0,0.0,0.0,0.0,0.0,0.0,0.0,0.0,0.0,4.4919,0.0,4.7959,4.7643,0.0,0.0,0.0,4.4836,4.4154,4.4742,4.552,4.6342,0.0,0.0,4.9814,5.0814,5.1414,5.1399,5.2045,5.2758,5.3414,5.3515,5.3569,5.3406,5.3475,5.3514,5.3472,5.3047,5.25,5.1924,5.1602,5.151,5.136,5.0691,5.0176,4.9997,4.929,4.8644,4.8644,4.8824,4.9,4.8531,4.7859,4.7271,4.6975,4.5722,4.4452,5.3789,5.3944,5.3123,5.2772,5.2773,5.2734,5.2383,5.1797,5.1797,5.1445,5.082,5.1015,5.1324,5.1724,5.2515,5.2753,5.2555,5.3155,5.3254,5.2958,5.3475,5.3884,5.4022,5.4144,5.4185,5.4156,5.4348,5.4298,5.3938,5.2955,5.2183,5.1587,4.9192,4.6743,4.4431,4.3502,4.304,4.2931,4.3658,4.3966,4.3917,4.6773,4.8593,4.9255,5.1617,5.308,5.3539,5.264,5.1787,5.1131,5.0004,4.8314,4.5989,4.4275,0.0,0.0,0.0,0.0,0.0,0.0,0.0,0.0,0.0,3.9688,4.0937,0.0,4.5303,0.0,4.8258,4.8593,4.7655,4.8028,0.0,0.0,4.7794,4.7898,4.8336,4.8569,4.8769,4.9066,5.0369,5.1175,5.0931,5.2214,5.3408,5.3993,5.3689,5.3418,5.3491,5.4139,5.4459,5.4332,5.4805,5.5248,5.5011,5.4626,5.4027,5.3665,5.3088,5.2569,5.2156,5.1594,5.1115,5.0774,5.0524,5.0204,4.9771,4.9812,4.9677,4.9275,4.8741,4.8039,4.7111,4.6106,4.5195,5.6286,5.6325,5.6282,5.6283,5.6131,5.4648,5.3945,5.3867,5.3867,5.3749,5.3623,5.3569,5.3618,5.3757,5.4725,5.4813,5.4343,5.4825,5.4879,5.4541,5.4938,5.5328,5.569,5.589,5.599,5.5993,5.6243,5.6029,5.5294,5.4384,5.3725,5.3262,5.107,4.9155,4.7568,4.5376,4.4355,4.4481,4.498,4.6003,4.7617,4.9221,5.0798,5.2207,5.4072,5.5029,5.4874,5.4274,5.3457,5.2478,5.1564,5.0288,4.8613,4.6973,4.5098,0.0,0.0,0.0,0.0,0.0,0.0,0.0,0.0,0.0,0.0,0.0,4.7758,4.9134,4.9663,4.9858,4.9688,4.9697,4.9743,4.9765,4.9776,4.9937,5.0409,5.1147,5.1775,5.218,5.3374,5.4024,5.3557,5.4563,5.5404,5.5586,5.5698,5.5482,5.4876,5.5144,5.5358,5.5189,5.5499,5.5689,5.5363,5.5023,5.4639,5.4123,5.3526,5.2993,5.2696,5.2054,5.15,5.1263,5.0865,5.0481,5.0165,4.9727,4.9372,4.9168,4.8971,4.8462,4.7504,4.6166,4.5036,5.9126,5.9174,5.9113,5.9072,5.8853,5.5894,5.5077,5.5781,5.5779,5.6076,5.6647,5.6624,5.616,5.5493,5.6492,5.6368,5.5352,5.5998,5.5943,5.5268,5.5706,5.6271,5.6966,5.737,5.774,5.8037,5.7909,5.7334,5.6346,5.4919,5.4382,5.4615,5.223,5.0982,5.0851,4.7814,4.637,4.6755,4.7042,4.8879,5.2304,5.2806,5.44,5.7131,5.7477,5.7268,5.6647,5.5803,5.4966,5.4168,5.269,5.1756,5.1367,4.9296,4.7615,0.0,4.5025,0.0,0.0,0.0,0.0,0.0,0.0,0.0,0.0,4.8234,4.9513,5.0052,5.0169,5.0908,5.2536,5.1986,5.1664,5.1985,5.2018,5.2057,5.2212,5.3455,5.4582,5.5242,5.6097,5.6563,5.6408,5.7055,5.7265,5.682,5.7448,5.7657,5.6745,5.6451,5.6402,5.6209,5.6028,5.5959,5.5437,5.508,5.4684,5.4019,5.3339,5.2993,5.2842,5.2222,5.1653,5.1586,5.1029,5.0483,5.0328,4.9623,4.907,4.9011,4.8995,4.8626,4.7799,4.6486,4.5022,5.9117,5.9113,5.9104,5.909,5.8958,5.8337,5.817,5.8389,5.8205,5.8037,5.7896,5.8204,5.7847,5.7093,5.7608,5.7543,5.6978,5.743,5.7548,5.7401,5.7883,5.8009,5.7845,5.7943,5.7867,5.7679,5.6927,5.6675,5.6834,5.5869,5.5462,5.5608,5.425,5.3401,5.2912,0.0,0.0,0.0,4.8615,4.9625,5.1213,5.3621,5.5316,5.6186,5.7055,0.0,5.7391,5.6563,5.5769,5.5018,5.4716,0.0,0.0,0.0,0.0,0.0,0.0,0.0,0.0,0.0,0.0,0.0,5.0077,5.0388,4.9459,5.1477,5.2386,5.1204,5.1628,5.2436,5.3423,5.338,5.4089,5.6104,5.6375,5.6641,5.7263,5.7612,5.769,5.7146,5.7845,5.8078,5.7573,5.8019,5.8443,5.818,5.8385,5.8389,5.8041,5.7873,5.7821,5.778,5.7465,5.7183,5.6877,5.6047,5.5282,5.4293,5.3171,5.249,5.2138,5.2064,5.195,5.1923,5.1933,5.179,5.1428,5.0905,5.0257,4.9959,4.9061,4.807,4.7365,4.7325,4.7063,6.0393,6.039,6.0327,6.0301,0.0,6.0185,6.0204,6.0184,5.9659,5.9566,5.9731,6.0104,5.9891,5.9341,5.9932,5.9824,5.9289,5.9263,5.909,5.8863,5.9153,5.8919,5.8217,5.875,5.8664,5.8041,5.7855,5.7783,5.7828,5.7412,5.7213,5.727,5.673,5.6047,5.5119,5.3169,5.1324,4.9677,5.109,5.2621,5.4298,5.5923,5.7157,5.7964,5.8423,0.0,0.0,0.0,0.0,0.0,0.0,0.0,0.0,5.2655,0.0,5.0192,5.0059,5.0182,5.0591,5.0975,5.1745,5.2952,5.4274,5.428,5.2586,5.3721,5.431,5.3846,5.4178,5.4762,5.5569,5.5267,5.5676,5.7347,5.758,5.793,5.8661,5.9166,5.9438,5.9555,5.9827,5.9904,5.9516,5.9699,5.9716,5.9332,5.9428,5.9588,5.943,5.8792,5.8402,5.8735,5.8553,5.8397,5.8454,5.7887,5.7004,5.6051,5.5229,5.4325,5.3333,5.3145,5.293,5.2387,5.2151,5.1909,5.1407,5.0892,5.0493,5.0186,4.9577,4.8871,4.8227,4.7592,4.6849,6.2134,6.2137,6.2091,6.2015,6.1938,6.1869,6.1829,6.1746,6.0867,0.0,0.0,6.1799,6.1733,6.1363,6.1989,6.19,6.1187,6.0734,6.0248,5.9857,5.9917,5.9355,5.8396,5.9328,5.9311,5.8452,5.8821,5.8948,5.8674,5.8616,5.8465,5.8313,5.8313,5.7761,5.6614,5.5652,5.4227,5.2479,5.3999,5.5838,5.7644,5.8368,5.9214,6.0287,6.0093,5.9646,5.8962,5.8869,5.8231,5.6946,5.6872,5.6201,5.4804,5.4529,5.4101,5.3347,5.3127,5.3468,5.4378,5.4469,5.5097,5.6647,5.7418,5.712,5.5551,5.5675,5.5986,5.6511,5.6714,5.7153,5.7949,5.7425,5.734,5.8163,5.8279,5.8583,5.9205,5.9865,6.0565,6.1257,6.1296,6.1366,6.1228,6.1259,6.1086,6.051,6.0768,6.1032,6.0828,5.9995,5.9545,6.0085,5.9922,5.9687,5.9917,5.9514,5.8913,5.7713,5.7205,5.6557,5.5281,5.4796,5.4244,5.3346,5.2719,5.242,5.1865,5.1528,5.0913,5.074,5.0594,5.0284,4.968,4.8235,4.6925,6.3839,6.3861,6.3838,6.375,6.363,6.3592,6.3487,6.3321,6.243,6.1862,6.163,6.2668,6.2595,6.1655,6.2112,6.19,6.1187,6.0711,6.0488,6.0381,6.0041,5.9391,5.8531,5.9069,5.8948,5.8148,5.8142,5.8384,5.8652,5.8296,5.771,5.7007,5.6909,5.6579,5.6012,5.6851,5.768,5.8323,5.7449,5.706,5.7244,5.9466,6.0807,6.1013,6.0534,6.0165,5.9912,5.9328,5.8897,5.8727,5.8718,5.8311,5.7383,5.6558,5.6084,5.5931,5.5201,5.5428,5.6943,5.7058,5.747,5.835,5.8583,5.8234,5.7353,5.7947,5.8093,5.7576,5.8132,5.891,5.9676,5.9588,5.9788,6.0642,6.0837,6.0914,6.0946,6.1063,6.1218,6.1412,6.1412,6.1376,6.1405,6.1819,6.2056,6.1813,6.217,6.2642,6.229,6.2117,6.2078,6.2184,6.1759,6.1412,6.1299,6.0381,5.9434,5.8196,5.7542,5.6806,5.5502,5.5804,5.5868,5.5334,5.5098,5.5009,5.4525,5.4261,5.3338,5.2601,5.2119,5.1694,5.0973,5.0162,4.9377,6.379,6.4193,6.422,6.412,6.3948,6.3829,6.3765,6.37,6.3488,6.3255,6.3075,6.3308,6.3296,6.3104,6.3257,6.3025,6.2502,6.1885,6.1482,6.1193,6.0521,5.9662,5.8811,5.9223,5.9228,5.8857,5.9108,5.9135,5.8905,5.938,5.8717,5.6917,5.6743,5.7157,5.7961,5.8478,5.9114,5.9895,6.0172,6.0342,6.048,6.149,6.2068,6.2103,6.1351,6.088,6.0795,6.0463,6.0122,5.9772,5.9709,5.9341,5.8585,5.8105,5.7853,5.7796,5.784,5.8392,5.9593,6.056,6.1031,6.0953,6.0914,6.0565,5.9749,5.9619,5.9599,5.9678,6.0098,6.0454,6.0806,6.0812,6.0992,6.1335,6.1412,6.1412,6.1412,6.1412,6.1568,6.2002,6.2119,6.2222,6.2478,6.2847,6.3003,6.2745,6.3282,6.3628,6.3482,6.3541,6.352,6.322,6.2726,6.2438,6.2353,6.1781,6.0711,5.9445,5.9081,5.8255,5.6941,5.7057,5.6826,5.5824,5.5654,5.5263,5.4494,5.3972,5.3435,5.2613,5.1881,5.1382,5.1129,5.082,5.0161,6.4142,6.473,6.473,6.4615,6.4412,6.4337,6.4251,6.424,6.4385,6.4454,6.4331,6.3932,6.3934,6.4192,6.4209,6.3963,6.3557,6.2904,6.2298,6.1687,6.067,5.9739,5.8909,5.8909,5.9146,5.9448,5.9546,5.9342,5.914,5.9832,5.8905,5.6587,5.6123,5.6979,5.8943,5.9309,5.9859,6.0722,6.2506,6.3369,6.3168,6.3088,6.3085,6.3075,6.2446,6.2032,6.1992,6.1846,6.1487,6.0939,6.0662,6.0255,5.9708,5.941,5.9414,5.9763,6.0209,6.0915,6.1931,6.3206,6.3711,6.3051,6.3012,6.2701,6.2041,6.1434,6.1091,6.1356,6.135,6.1473,6.1666,6.1691,6.1769,6.1917,6.1988,6.2065,6.1995,6.1949,6.2182,6.285,6.2951,6.3106,6.3535,6.3767,6.3803,6.3847,6.414,6.445,6.4489,6.4486,6.4218,6.3747,6.3254,6.2934,6.2942,6.2561,6.1734,6.0494,6.0392,5.9601,5.8416,5.8182,5.774,5.6396,5.5905,5.5392,5.4111,5.3758,5.3351,5.2439,5.1795,5.1345,5.1172,5.0808,5.0154,6.6153,6.6276,6.6205,6.6205,6.5997,6.5964,6.5884,6.5788,6.546,6.5153,6.487,6.4685,6.4388,6.4249,6.4189,6.3979,6.3534,6.2904,6.2245,6.1484,6.0008,5.911,5.8633,5.7647,5.797,5.9078,5.7972,5.7902,5.8634,5.7725,5.6545,5.4996,5.373,5.4176,5.6118,5.8145,6.0097,6.2097,6.4447,6.4729,6.2941,6.3482,6.387,6.3788,6.3943,6.396,6.3741,6.3193,6.2815,6.2691,6.1897,6.1451,6.1363,6.0594,6.0811,6.2242,6.1718,6.2009,6.3556,6.3906,6.4022,6.3906,6.3867,6.3828,6.3711,6.3641,6.2942,6.1924,6.1458,6.1854,6.2468,6.2585,6.2857,6.3439,6.3526,6.3705,6.3626,6.372,6.3744,6.3828,6.3726,6.3584,6.3675,6.4046,6.4525,6.4862,6.4978,6.4969,6.4757,6.4554,6.431,6.3896,6.3571,6.3104,6.2633,6.2339,6.1548,6.0651,6.0472,5.9864,5.9042,5.8737,5.8703,5.7161,5.711,5.6483,5.5436,5.5077,5.4397,5.2841,5.2418,5.2524,5.1485,5.0913,5.0295,6.6023,6.6492,6.6492,6.6422,6.6292,6.6144,6.6024,6.5856,6.51,6.4672,6.4442,6.3876,6.3653,6.3718,6.3624,6.3414,6.3075,6.2427,6.1888,6.135,5.9797,5.8669,5.7967,5.7126,5.7051,5.7429,5.6763,5.6464,5.62,5.4645,5.4272,5.5069,5.319,5.3551,5.6327,5.8196,6.0252,6.262,6.4856,6.5641,6.501,6.4796,6.4739,6.4757,6.4408,6.4226,6.4177,6.3915,6.3523,6.2984,6.2528,6.2282,6.2297,6.1879,6.2211,6.3398,6.3619,6.4178,6.5382,6.5498,6.5265,6.476,6.4721,6.4527,6.4061,6.3983,6.3673,6.3129,6.2934,6.3129,6.3401,6.3478,6.3634,6.3945,6.3969,6.4007,6.3983,6.3969,6.4101,6.4463,6.451,6.4569,6.4701,6.4882,6.4985,6.5079,6.5052,6.4934,6.4558,6.4271,6.4029,6.3814,6.3497,6.2831,6.195,6.1604,6.0974,6.0097,5.9811,5.9584,5.8806,5.8632,5.8352,5.7323,5.7201,5.648,5.4713,5.4868,5.4577,5.3161,5.2412,5.2324,5.111,5.1041,5.0233,6.584,6.6359,6.6373,6.6301,6.6175,6.5842,6.5641,6.5479,6.4568,6.4024,6.3797,6.3049,6.2818,6.3012,6.3062,6.2904,6.2453,6.1697,6.1128,6.0605,5.877,5.7645,5.7241,5.6476,5.6093,5.6066,5.5837,5.5118,5.3893,5.2184,5.2332,5.3724,5.2273,5.299,5.6248,5.8063,6.0265,6.2838,6.5025,6.6248,6.6312,6.5861,6.5616,6.5656,6.5141,6.4866,6.496,6.4718,6.431,6.3662,6.3531,6.3375,6.3125,6.3269,6.3673,6.4294,6.511,6.5809,6.647,6.6508,6.6237,6.5654,6.5537,6.5304,6.4838,6.4683,6.4683,6.4683,6.4683,6.4644,6.4333,6.4333,6.4411,6.4605,6.4668,6.4652,6.4706,6.4652,6.486,6.5257,6.5188,6.523,6.5471,6.5412,6.5245,6.4934,6.4792,6.4649,6.4214,6.3967,6.3771,6.3468,6.3221,6.2672,6.1415,6.1113,6.0463,5.9991,5.9867,5.9769,5.8823,5.8999,5.8674,5.8179,5.7415,5.6449,5.5315,5.5027,5.4535,5.3135,5.2279,5.1779,5.0947,5.0857,4.9703,6.6205,6.6185,6.608,6.6047,6.599,6.5273,6.4991,6.5007,6.3923,6.3334,6.3057,6.2643,6.2301,6.2132,6.2603,6.2427,6.1733,6.073,5.9906,5.9139,5.6629,5.5758,5.6503,5.5425,5.5272,5.5679,5.5069,5.3807,5.1957,5.0905,5.0478,5.0656,5.0621,5.2008,5.5152,5.7543,6.0038,6.3129,6.5367,6.6455,6.6424,6.6426,6.6403,6.6445,6.6538,6.6453,6.644,6.5713,6.527,6.5371,6.525,6.4877,6.4246,6.4746,6.5149,6.5265,6.5957,6.6384,6.6462,6.6501,6.6462,6.6462,6.6423,6.6431,6.6431,6.6431,6.6392,6.6392,6.6392,6.612,6.5452,6.5258,6.5452,6.6074,6.6243,6.6187,6.6195,6.5932,6.6138,6.6028,6.57,6.5433,6.5191,6.5283,6.5134,6.4862,6.4757,6.4538,6.4074,6.3819,6.3497,6.3015,6.2902,6.273,6.1451,6.1242,6.1003,6.0583,6.0462,6.0497,6.0594,6.0464,5.9755,5.8912,5.7879,5.6902,5.6061,5.5204,5.4357,5.3204,5.1967,5.1219,5.0614,4.983,4.8706,6.6165,6.6123,6.6047,6.6029,6.5946,6.5417,6.5035,6.471,6.3797,6.315,6.2794,6.2334,6.2087,6.2041,6.2195,6.164,6.0432,5.9847,5.8802,5.7437,5.6415,5.5651,5.487,5.4495,5.4084,5.3859,5.3558,5.2829,5.1588,5.0316,4.9688,4.9786,5.0143,5.2356,5.5982,5.8185,6.1147,6.492,6.6124,6.6482,6.658,6.6549,6.6553,6.6476,6.6618,6.6723,6.6778,6.6954,6.6806,6.6244,6.6691,6.6852,6.6471,6.6694,6.6858,6.6812,6.6506,6.6308,6.6308,6.6308,6.6579,6.7083,6.7285,6.7596,6.8024,6.814,6.8132,6.8132,6.8132,6.793,6.7526,6.6718,6.6144,6.6353,6.6437,6.6358,6.6128,6.6056,6.5958,6.5743,6.5531,6.5435,6.5283,6.5117,6.4845,6.4426,6.4154,6.3841,6.3497,6.3659,6.3726,6.3179,6.343,6.3509,6.2092,6.1863,6.1714,6.1325,6.1085,6.0732,6.0674,6.0438,5.9794,5.8601,5.7803,5.6901,5.5865,5.4387,5.3693,5.3352,5.2122,5.0502,5.0379,4.8979,4.7867,6.688,6.68,6.6827,6.6742,6.6523,6.6001,6.5548,6.5009,6.4204,6.3591,6.3142,6.2867,6.2655,6.2393,6.2191,6.1007,5.9391,5.884,5.7791,5.6356,5.5856,5.531,5.4781,5.4824,5.4335,5.339,5.2764,5.2299,5.1733,5.0249,4.9531,4.961,5.0756,5.3449,5.7212,5.9626,6.2851,6.6235,6.7169,6.7303,6.7325,6.7426,6.7415,6.7314,6.7452,6.7436,6.7244,6.8,6.8158,6.7665,6.8265,6.8702,6.8527,6.8269,6.8105,6.7972,6.7077,6.6564,6.6564,6.638,6.6602,6.7501,6.7734,6.8179,6.8979,6.9095,6.9056,6.904,6.9056,6.9087,6.8774,6.7937,6.7285,6.7196,6.7104,6.6951,6.6707,6.6576,6.6238,6.5811,6.5734,6.5563,6.5111,6.4917,6.452,6.4012,6.3854,6.3715,6.3432,6.3705,6.3982,6.3329,6.3585,6.34,6.2569,6.2162,6.1849,6.149,6.1454,6.1089,6.0664,6.0386,5.9645,5.8489,5.7416,5.6559,5.5376,5.3833,5.3224,5.314,5.1259,4.9245,4.8611,4.7646,4.6619,6.836,6.8125,6.8398,6.8084,6.7582,6.6879,6.637,6.5709,6.5011,6.4376,6.4005,6.4158,6.382,6.326,6.2651,6.1015,5.9039,5.8109,5.7153,5.6076,5.4744,5.4777,5.5663,5.6054,5.5645,5.4468,5.3103,5.2339,5.2151,5.0794,5.0077,5.0449,5.2511,5.5142,5.818,6.1506,6.4695,6.7223,6.8449,6.8855,6.8903,6.8925,6.8954,6.8954,6.914,6.8908,6.8132,6.8772,6.9149,6.9223,6.9869,7.0269,7.0102,6.9362,6.88,6.8605,6.7779,6.7366,6.7366,6.6777,6.6921,6.7825,6.793,6.859,6.9381,6.9592,6.9575,6.9526,6.955,6.9373,6.9343,6.9236,6.9001,6.8848,6.8362,6.817,6.8052,6.7827,6.724,6.6339,6.6298,6.5778,6.4823,6.4898,6.4858,6.4283,6.4262,6.4449,6.4039,6.4166,6.4007,6.3474,6.3438,6.3236,6.278,6.2317,6.1885,6.1558,6.1647,6.1537,6.1031,6.0643,5.9718,5.8558,5.6916,5.6039,5.4638,5.3163,5.2301,5.1699,4.9653,4.7762,4.6967,4.609,4.539,6.8254,6.8057,6.8139,6.7836,6.7309,6.6724,6.6097,6.5508,6.4855,6.45,6.4331,6.4367,6.4245,6.3955,6.3311,6.1978,6.0191,5.8786,5.7119,5.5556,5.5274,5.5141,5.5177,5.5314,5.51,5.4606,5.3706,5.29,5.2258,5.133,5.0789,5.1353,5.3853,5.6799,5.9801,6.3161,6.6163,6.837,6.8825,6.8976,6.9016,6.8987,6.9026,6.9155,6.9723,6.996,6.9834,7.0021,7.0107,7.0035,7.0823,7.1225,7.1029,7.0244,6.9701,6.9533,6.855,6.7898,6.7975,6.7888,6.8133,6.9079,6.9893,7.0765,7.162,7.2164,7.2269,7.207,7.2318,7.2336,7.1788,7.1903,7.1104,6.9052,6.8741,6.8601,6.8248,6.769,6.7126,6.6881,6.741,6.7297,6.648,6.6362,6.6063,6.5245,6.5151,6.4938,6.4448,6.469,6.4513,6.3654,6.3449,6.309,6.26,6.2014,6.144,6.1333,6.1498,6.1239,6.0886,6.0544,5.9642,5.8022,5.6498,5.507,5.3691,5.2238,5.1071,4.9287,4.6916,4.5775,4.5341,4.4633,4.3817,6.9044,6.8798,6.8862,6.8489,6.7843,6.7396,6.6756,6.604,6.5523,6.5229,6.512,6.5149,6.5062,6.4765,6.4031,6.2753,6.1185,5.9746,5.8103,5.6308,5.5813,5.5798,5.5855,5.6146,5.6053,5.5756,5.5068,5.4251,5.339,5.2727,5.223,5.2476,5.605,5.8988,6.1262,6.5188,6.8236,6.9471,6.984,6.9988,7.0045,6.9967,6.9954,7.0134,7.0601,7.0934,7.1031,7.098,7.0931,7.096,7.1357,7.1525,7.1387,7.075,7.0355,7.0117,6.9294,6.8546,6.8604,6.8822,6.9343,7.0239,7.1339,7.2278,7.3025,7.3703,7.3701,7.3343,7.3343,7.3408,7.2916,7.3016,7.2234,7.0555,7.0246,6.9879,6.9315,6.8979,6.8645,6.8625,6.8816,6.8529,6.79,6.7188,6.7006,6.6248,6.5911,6.5494,6.5008,6.5104,6.4599,6.3931,6.3233,6.2809,6.2368,6.173,6.1036,6.1044,6.1176,6.0663,6.0128,5.9946,5.9323,5.6614,5.4708,5.3471,5.2074,4.988,4.8174,4.6109,4.4707,4.4117,4.3645,4.2816,4.2038,7.0429,7.0126,7.0209,6.9721,6.9031,6.8713,6.8062,6.7266,6.691,6.668,6.6535,6.6626,6.6377,6.5717,6.4813,6.3474,6.1881,6.0586,5.9601,5.8341,5.7219,5.6656,5.758,5.8054,5.7993,5.7586,5.6829,5.6098,5.5301,5.4355,5.3971,5.3888,5.8462,6.1618,6.2818,6.7497,7.0277,7.052,7.12,7.1536,7.1536,7.1597,7.1588,7.1484,7.1599,7.1682,7.1653,7.1562,7.1568,7.1637,7.1443,7.1299,7.1174,7.0888,7.0647,7.0604,6.9781,6.9451,6.9406,6.9833,7.0323,7.1158,7.2258,7.3052,7.3498,7.3768,7.3735,7.3232,7.3291,7.3182,7.3004,7.3055,7.2919,7.2761,7.2101,7.1769,7.1707,7.1485,7.0899,7.048,7.0271,6.9841,6.8836,6.7963,6.7331,6.6817,6.6633,6.6043,6.5504,6.5264,6.5092,6.4148,6.2874,6.2066,6.1447,6.0501,5.9892,5.9935,6.0108,5.9653,5.8672,5.831,5.7479,5.494,5.2598,5.1476,4.9993,4.7684,4.6179,4.5146,4.3907,4.2918,4.2016,4.1229,4.0755,7.0286,6.9929,6.9584,6.945,6.932,6.8834,6.8558,6.8422,6.8213,6.8079,6.8151,6.8249,6.7824,6.7245,6.5713,6.4498,6.3141,6.1198,6.0138,5.9673,5.8646,5.8165,5.8454,5.867,5.8731,5.8416,5.773,5.7106,5.6787,5.5201,5.4697,5.572,5.9424,6.2294,6.4124,6.8598,7.1204,7.1435,7.1601,7.1768,7.1771,7.1733,7.1757,7.1739,7.1718,7.1741,7.1728,7.1575,7.1559,7.1603,7.1417,7.1288,7.1192,7.085,7.0652,7.0584,7.0394,7.0381,7.0882,7.1266,7.1832,7.2601,7.3445,7.4075,7.4211,7.4672,7.4675,7.4424,7.4493,7.4422,7.3962,7.3985,7.4005,7.372,7.2934,7.2314,7.2151,7.1842,7.1606,7.1411,7.157,7.1094,7.0387,6.9662,6.9004,6.8284,6.7367,6.6439,6.5879,6.4915,6.453,6.3171,6.1936,6.1127,6.0279,5.9323,5.8773,5.8728,5.8664,5.851,5.6964,5.5444,5.4116,5.2145,4.9716,4.8184,4.6872,4.5121,4.4414,4.3784,4.2643,4.1377,4.0755,3.9997,3.9713,7.135,7.1048,7.0722,7.0367,7.0004,6.9516,6.9185,6.8884,6.8642,6.8678,6.8773,6.8742,6.8382,6.7716,6.5928,6.4701,6.3757,6.1534,6.0514,6.0397,5.9846,5.9367,5.907,5.9224,5.9501,5.9193,5.8736,5.8295,5.7833,5.6564,5.6354,5.6879,5.9573,6.2078,6.4192,6.759,7.0543,7.1473,7.1836,7.1854,7.1792,7.1825,7.1797,7.1792,7.1755,7.1725,7.1626,7.1368,7.1253,7.1253,7.1136,7.0978,7.0771,7.0524,7.0391,7.0439,7.0713,7.1161,7.1663,7.2441,7.3146,7.3597,7.4335,7.4664,7.4686,7.4969,7.4961,7.4606,7.4786,7.4619,7.4387,7.4394,7.4394,7.4124,7.3483,7.3032,7.2994,7.2733,7.2487,7.2432,7.2309,7.2129,7.1521,7.0938,7.0367,6.962,6.8255,6.7222,6.6217,6.498,6.3684,6.2445,6.1168,6.0289,5.9642,5.8818,5.7995,5.7824,5.6786,5.6724,5.49,5.2851,5.1147,4.9351,4.6964,4.5132,4.4291,4.3349,4.2517,4.1738,4.0777,4.0127,3.9473,3.8726,3.8441,7.3008,7.2677,7.2547,7.1912,7.0958,7.0591,6.9958,6.924,6.8974,6.8941,6.9006,6.8805,6.8585,6.7691,6.6234,6.4665,6.3715,6.188,6.106,6.0815,6.0547,6.0116,5.9408,6.0116,6.027,5.9881,5.9819,5.9408,5.8811,5.8603,5.7923,5.7779,5.9308,6.1636,6.419,6.6312,6.8598,7.1283,7.1906,7.1874,7.1827,7.1909,7.191,7.1834,7.1815,7.1638,7.14,7.1131,7.0902,7.0783,7.0671,7.057,7.0234,7.0117,7.0194,7.0548,7.1294,7.1693,7.1931,7.3292,7.4172,7.4137,7.4781,7.5147,7.4731,7.4667,7.4556,7.4297,7.4197,7.4206,7.409,7.409,7.4043,7.391,7.3883,7.3981,7.3995,7.3715,7.3478,7.3401,7.2669,7.2365,7.2094,7.1538,7.077,6.9994,6.8618,6.7127,6.5833,6.4428,6.3242,6.2094,6.0795,5.9467,5.8921,5.8409,5.759,5.6927,5.524,5.4192,5.2378,5.0381,4.8585,4.6688,4.4853,4.3636,4.2832,4.1888,4.0906,4.0192,3.9517,3.8991,3.8416,3.7508,3.7038,7.2991,7.2693,7.1836,7.1626,7.1678,7.0889,7.0562,7.0698,7.0505,7.0335,7.044,7.0407,6.9664,6.8528,6.7246,6.5927,6.3825,6.239,6.1602,6.0845,6.0794,6.0701,6.0332,6.0701,6.0671,6.0413,5.984,5.984,5.9845,5.8753,5.8151,5.9054,5.9143,6.1259,6.4561,6.5857,6.8417,7.1206,7.1811,7.1858,7.1871,7.1914,7.1992,7.1952,7.187,7.1563,7.1213,7.102,7.0692,7.025,7.0209,7.051,7.0832,7.0858,7.1086,7.1579,7.194,7.2472,7.3079,7.3555,7.4068,7.4522,7.4591,7.4636,7.4552,7.4372,7.4275,7.4197,7.4174,7.3971,7.3715,7.3666,7.354,7.3361,7.3283,7.3231,7.3231,7.3387,7.3298,7.298,7.2537,7.2219,7.2299,7.142,7.0675,7.004,6.8663,6.6948,6.5399,6.3858,6.2561,6.1332,5.9913,5.8573,5.8102,5.7402,5.6286,5.537,5.3766,5.2181,5.0326,4.833,4.6688,4.4939,4.3075,4.2161,4.1591,4.0473,3.9473,3.8925,3.8395,3.7796,3.7126,3.6296,3.5704,7.4293,7.4017,7.312,7.2762,7.2634,7.1782,7.1344,7.1332,7.111,7.0979,7.0946,7.0847,7.0026,6.8676,6.7376,6.5598,6.3826,6.2238,6.1328,6.0845,6.0794,6.0794,6.0794,6.0794,6.0794,6.0742,6.0399,6.0451,6.0276,5.9613,5.9039,5.907,5.8656,5.987,6.2781,6.446,6.6705,6.9679,7.1288,7.1811,7.1908,7.1953,7.1992,7.1941,7.1831,7.1549,7.1329,7.0925,7.0522,7.0196,7.0287,7.0593,7.1029,7.1327,7.1741,7.2102,7.2716,7.3019,7.3512,7.3967,7.4308,7.4577,7.4476,7.4237,7.4099,7.391,7.3777,7.3641,7.354,7.3464,7.3246,7.322,7.3098,7.299,7.2908,7.2826,7.265,7.2761,7.2807,7.2537,7.2167,7.1799,7.1428,7.107,7.0387,6.962,6.8353,6.6664,6.4811,6.3247,6.1649,6.0289,5.8767,5.773,5.7291,5.6268,5.4747,5.3587,5.2213,5.063,4.8973,4.6975,4.4988,4.3473,4.2097,4.1248,4.0517,3.9341,3.8549,3.8416,3.7929,3.6904,3.5957,3.5295,3.4815,7.6153,7.5948,7.5226,7.4507,7.3827,7.3056,7.2419,7.1929,7.1503,7.1555,7.1342,7.1006,7.0451,6.8868,6.7209,6.5371,6.3355,6.1872,6.0845,6.0845,6.0794,6.0794,6.0794,6.0794,6.0794,6.0794,6.069,6.0794,6.0742,6.0607,5.9644,5.8753,5.7828,5.9009,6.0592,6.2393,6.5161,6.8352,7.0714,7.1823,7.1953,7.1992,7.1992,7.1887,7.1768,7.1542,7.1329,7.0951,7.057,7.0404,7.0896,7.1075,7.1245,7.1557,7.2267,7.2364,7.3216,7.3598,7.3762,7.4161,7.4379,7.4327,7.4113,7.3851,7.354,7.3401,7.3272,7.3124,7.3017,7.2963,7.2826,7.2761,7.277,7.2658,7.2686,7.2516,7.2189,7.2071,7.2101,7.2041,7.1836,7.1557,7.1204,7.0793,7.0,6.9062,6.7764,6.628,6.4381,6.2685,6.1094,5.9522,5.8116,5.6189,5.548,5.518,5.3646,5.2105,5.0713,4.9224,4.7607,4.5558,4.3707,4.2603,4.1463,4.0517,3.9473,3.8329,3.7863,3.7929,3.6924,3.5412,3.4677,3.4214,3.3868,7.7773,7.7756,7.6693,7.6065,7.557,7.4556,7.3791,7.349,7.3053,7.2993,7.2887,7.2684,7.1618,7.0193,6.8779,6.6145,6.3034,6.1421,6.0855,6.0794,6.0794,6.0794,6.0794,6.0794,6.0794,6.0794,6.0794,6.0794,6.0503,6.0053,5.9592,5.9031,5.7981,5.8625,6.0652,6.2981,6.5063,6.76,7.0291,7.1749,7.1871,7.1953,7.195,7.1831,7.1711,7.1534,7.119,7.0953,7.0867,7.1098,7.1974,7.2567,7.2765,7.2795,7.3131,7.3582,7.3853,7.4011,7.3996,7.3818,7.3763,7.3604,7.3438,7.3204,7.3007,7.2953,7.2871,7.2816,7.277,7.2742,7.2336,7.2307,7.2137,7.1927,7.1738,7.1775,7.1682,7.1521,7.1521,7.149,7.1431,7.124,7.0778,7.0229,6.9386,6.8364,6.7124,6.5593,6.3798,6.2186,6.0609,5.9081,5.7559,5.54,5.3495,5.3361,5.2619,5.0851,4.9422,4.7957,4.6245,4.4165,4.2523,4.1377,4.0366,3.9407,3.8329,3.7327,3.6769,3.6567,3.5207,3.3798,3.3729,3.3572,3.2578,7.8018,7.7835,7.7214,7.6617,7.5982,7.518,7.4531,7.4111,7.3724,7.3492,7.339,7.3149,7.2441,7.0993,6.9013,6.589,6.2801,6.1629,6.1132,6.0917,6.0794,6.0794,6.0794,6.0794,6.0794,6.0794,6.0794,6.0534,6.0136,5.9736,5.9308,5.8782,5.8059,5.8471,5.9989,6.2839,6.4694,6.6772,6.9553,7.1696,7.1786,7.1871,7.1854,7.1774,7.1694,7.1598,7.181,7.1621,7.1776,7.2231,7.2969,7.3437,7.3609,7.3737,7.3891,7.4222,7.4243,7.4043,7.3899,7.3579,7.3452,7.3231,7.299,7.2761,7.2593,7.2508,7.2451,7.2248,7.216,7.2071,7.1866,7.1836,7.1713,7.1494,7.1207,7.1175,7.1171,7.0742,7.0709,7.0845,7.0778,7.0507,7.0095,6.946,6.8714,6.7646,6.6465,6.4851,6.3158,6.1517,5.986,5.8223,5.6638,5.508,5.302,5.238,5.1729,4.9987,4.81,4.6628,4.4976,4.2918,4.1354,4.0149,3.9188,3.8283,3.7528,3.6634,3.5957,3.5275,3.4402,3.3659,3.3312,3.2806,3.1877,7.8443,7.8199,7.7848,7.7281,7.6593,7.5856,7.5308,7.4869,7.4431,7.4168,7.3926,7.3721,7.319,7.1715,6.9058,6.5738,6.2152,6.1902,6.1471,6.1132,6.0855,6.0794,6.0794,6.0794,6.0794,6.0794,6.0794,6.0481,6.0031,5.9629,5.9093,5.8841,5.8684,5.8233,5.8798,6.209,6.3669,6.5651,6.8368,7.0936,7.1671,7.1819,7.1789,7.1811,7.1683,7.1988,7.2325,7.2546,7.2822,7.3261,7.3806,7.4111,7.4087,7.4296,7.44,7.4327,7.416,7.3838,7.3616,7.322,7.297,7.2761,7.265,7.2393,7.2189,7.2011,7.1921,7.1557,7.13,7.13,7.1236,7.1272,7.1139,7.0907,7.0609,7.0475,7.0474,7.0198,6.9849,6.992,6.999,6.9778,6.9273,6.913,6.8483,6.7156,6.5925,6.4285,6.2561,6.0561,5.8857,5.7134,5.569,5.4531,5.3073,5.1811,5.0851,4.9338,4.7136,4.5244,4.3559,4.182,4.0365,3.8838,3.7975,3.7126,3.6499,3.5908,3.5158,3.4471,3.4006,3.3294,3.2386,3.2035,3.1595,8.0292,8.0325,7.9469,7.901,7.8599,7.7487,7.6845,7.6405,7.5877,7.5715,7.5431,7.5262,7.4543,7.2739,6.9513,6.6012,6.3433,6.2346,6.2038,6.1656,6.1163,6.0917,6.0824,6.0794,6.0794,6.0794,6.0794,6.0794,6.0346,5.9819,5.9469,5.9278,5.9128,5.8829,5.8327,6.1408,6.3133,6.4321,6.7119,6.983,7.1522,7.1861,7.1784,7.1881,7.2211,7.2618,7.2824,7.3176,7.3735,7.432,7.4451,7.4681,7.4828,7.4489,7.4132,7.3845,7.3616,7.3528,7.3324,7.2871,7.2451,7.2248,7.1981,7.1713,7.1651,7.1458,7.1363,7.1526,7.0943,7.0541,7.0507,7.0507,7.0164,7.0025,6.9955,6.9778,6.9672,6.9165,6.8903,6.894,6.8978,6.8787,6.8405,6.8412,6.82,6.6784,6.5323,6.3698,6.1943,5.998,5.8341,5.677,5.5709,5.4573,5.3407,5.207,5.0315,4.8837,4.661,4.4261,4.2667,4.1011,3.8927,3.7575,3.6702,3.5821,3.507,3.454,3.4144,3.3729,3.3312,3.2175,3.0889,3.0835,3.1189,8.0505,8.0411,8.0258,7.9751,7.9061,7.8551,7.7857,7.7113,7.6639,7.6208,7.5901,7.5763,7.4305,7.1866,7.0018,6.7379,6.4203,6.3437,6.3096,6.2324,6.1748,6.1379,6.1286,6.0978,6.0794,6.0824,6.0794,6.0794,6.0534,6.0031,5.9499,5.9553,5.9492,5.9365,5.8736,6.1194,6.2994,6.4929,6.7678,7.0284,7.152,7.2006,7.2121,7.2314,7.3006,7.343,7.3767,7.4089,7.469,7.5187,7.5172,7.4983,7.4905,7.4438,7.3784,7.3615,7.304,7.2752,7.2705,7.2365,7.2101,7.1836,7.1589,7.1526,7.1368,7.0742,7.0507,7.0845,6.9989,6.9636,6.96,6.9565,6.9457,6.9311,6.9163,6.92,6.8903,6.8132,6.7776,6.7856,6.7935,6.7776,6.769,6.7736,6.7279,6.584,6.4547,6.3216,6.1373,5.9397,5.7986,5.6756,5.5834,5.4988,5.3825,5.2519,5.0251,4.851,4.6459,4.4222,4.2252,4.0387,3.8416,3.6384,3.512,3.4296,3.3623,3.3363,3.3242,3.2893,3.2614,3.1401,3.0392,3.0835,3.0605,8.0373,8.0159,8.0523,8.0081,7.9184,7.9071,7.8341,7.7329,7.6929,7.6445,7.5972,7.5621,7.3584,7.0781,7.0241,6.8192,6.4251,6.4573,6.404,6.314,6.2456,6.2086,6.1871,6.1471,6.1101,6.104,6.0855,6.0824,6.0638,6.0241,5.9925,5.9819,5.9978,5.9792,6.0022,6.0794,6.2107,6.4696,6.8019,7.0501,7.1961,7.2468,7.2777,7.32,7.3739,7.4307,7.4705,7.4998,7.5414,7.5376,7.5219,7.4924,7.4725,7.4109,7.3492,7.3198,7.2621,7.2034,7.1951,7.1769,7.1677,7.1363,7.094,7.0709,7.0676,6.9778,6.9275,6.9955,6.9165,6.872,6.8645,6.8569,6.8451,6.8331,6.8254,6.837,6.837,6.7656,6.7236,6.7319,6.7284,6.7071,6.6988,6.7105,6.6321,6.4899,6.3686,6.257,6.0818,5.8814,5.7679,5.6548,5.6255,5.518,5.364,5.2198,5.0179,4.8064,4.6015,4.4095,4.1998,4.0039,3.8094,3.6074,3.4264,3.3206,3.2876,3.2596,3.2386,3.2193,3.1771,3.0818,3.025,3.0463,2.9965,8.0354,8.0119,8.022,8.0023,7.9554,7.8841,7.809,7.7268,7.6961,7.6475,7.5971,7.5478,7.3466,7.0948,7.0092,6.8568,6.4899,6.4173,6.4143,6.378,6.3133,6.2794,6.2517,6.2148,6.1748,6.1625,6.1379,6.1071,6.0855,6.0905,6.0678,6.069,6.0512,6.029,6.0191,6.0499,6.2069,6.4666,6.7864,7.0594,7.2255,7.3212,7.3607,7.3893,7.4281,7.4577,7.4604,7.5119,7.5288,7.5132,7.4865,7.4564,7.4265,7.376,7.3275,7.2669,7.2153,7.1485,7.1038,7.1171,7.1107,7.0507,6.992,6.9565,6.9708,6.9419,6.9128,6.8833,6.8141,6.7668,6.7587,6.7582,6.7461,6.7454,6.7488,6.765,6.761,6.7325,6.6938,6.6896,6.6728,6.6482,6.6062,6.6062,6.5574,6.4208,6.2782,6.1628,6.004,5.8204,5.7304,5.6509,5.6533,5.5362,5.3247,5.1615,5.024,4.7683,4.51,4.3353,4.1573,3.9672,3.801,3.6542,3.494,3.3451,3.2052,3.1683,3.1401,3.1418,3.0993,3.0053,2.8732,2.8084,2.778,8.0468,8.0101,8.0258,7.992,7.9208,7.8728,7.8035,7.7329,7.6929,7.6442,7.5832,7.5335,7.3729,7.1705,7.1435,6.9996,6.7125,6.6447,6.5923,6.5045,6.4297,6.3526,6.3195,6.2879,6.2425,6.2364,6.2117,6.2025,6.2056,6.1572,6.144,6.1348,6.1123,6.0732,6.0555,6.1372,6.3306,6.5308,6.8227,7.1004,7.2592,7.39,7.4355,7.4436,7.5118,7.5322,7.5357,7.5293,7.5185,7.4865,7.4561,7.4259,7.3902,7.3479,7.2862,7.2153,7.1604,7.0872,7.0233,7.0406,7.044,6.9707,6.9015,6.8638,6.883,6.8293,6.798,6.7622,6.7216,6.6669,6.6627,6.6703,6.666,6.6643,6.677,6.6946,6.6988,6.6854,6.6812,6.6812,6.6354,6.5888,6.5415,6.4967,6.4371,6.3543,6.2124,6.0639,5.9194,5.8105,5.735,5.705,5.7104,5.5643,5.3544,5.202,5.0542,4.7425,4.4308,4.2906,4.1368,3.9908,3.8241,3.6884,3.539,3.3747,3.2263,3.0993,3.0496,3.071,3.0211,2.9338,2.781,2.621,2.5611,8.0467,8.0139,8.0141,7.9708,7.9004,7.8765,7.8118,7.7359,7.7056,7.6475,7.5763,7.5117,7.3725,7.2276,7.1798,7.0692,6.8437,6.7687,6.7414,6.6707,6.5828,6.4951,6.4381,6.3741,6.3148,6.3071,6.2449,6.2218,6.1771,6.2005,6.1981,6.1871,6.1825,6.1702,6.12,6.2593,6.4463,6.6616,6.8717,7.147,7.3098,7.4368,7.4956,7.4918,7.5257,7.5305,7.5212,7.5055,7.4825,7.4556,7.4229,7.4001,7.3665,7.3183,7.2435,7.1721,7.0995,7.0266,6.9636,6.9419,6.9419,6.8828,6.8132,6.8019,6.794,6.7243,6.7071,6.7003,6.632,6.5867,6.6042,6.6095,6.6311,6.643,6.6592,6.677,6.6854,6.6812,6.6812,6.677,6.6148,6.5459,6.4741,6.4189,6.3243,6.2508,6.1388,6.024,5.9206,5.8357,5.7926,5.7761,5.793,5.5994,5.3869,5.207,4.9992,4.6538,4.3917,4.2834,4.1348,4.0014,3.8759,3.7493,3.5926,3.401,3.2526,3.133,3.0551,3.0053,2.9122,2.7882,2.6867,2.5258,2.4079,8.0411,8.004,7.9708,7.9349,7.9004,7.8979,7.8292,7.7329,7.7113,7.6607,7.5691,7.4821,7.3447,7.1987,7.1625,7.0406,6.9009,6.8371,6.8122,6.7907,6.7215,6.699,6.5901,6.4782,6.3664,6.3377,6.245,6.1369,6.088,6.2116,6.2319,6.2699,6.3111,6.3166,6.1165,6.1294,6.3498,6.6918,6.8777,7.1246,7.3551,7.4894,7.5264,7.5059,7.4903,7.4847,7.4787,7.4464,7.4259,7.4191,7.3591,7.3364,7.3287,7.2567,7.1835,7.1119,7.0535,6.9529,6.8289,6.8132,6.8093,6.8014,6.7407,6.7195,6.6946,6.6635,6.6388,6.6491,6.5965,6.578,6.578,6.5824,6.6119,6.6335,6.6464,6.6635,6.6728,6.6812,6.6812,6.6601,6.5811,6.5024,6.4235,6.342,6.2302,6.1387,6.0494,5.9629,5.8877,5.8415,5.7974,5.7918,5.7974,5.6108,5.3865,5.1795,4.9343,4.5879,4.3614,4.2635,4.1956,4.122,3.984,3.8384,3.6809,3.5306,3.3472,3.1649,3.0392,2.8979,2.736,2.6123,2.5258,2.4449,2.3351,8.0392,8.004,7.9665,7.9326,7.8929,7.8155,7.7622,7.7243,7.6607,7.6039,7.5585,7.5006,7.4104,7.2921,7.2252,7.1376,7.0263,6.9283,6.9187,6.9041,6.7986,6.6982,6.5963,6.4761,6.3868,6.3731,6.2502,6.1376,6.187,6.2521,6.2737,6.3125,6.4398,6.4653,6.411,6.4329,6.6181,6.8244,6.9895,7.1706,7.3947,7.4916,7.5177,7.4632,7.4405,7.4358,7.4249,7.3855,7.3738,7.3715,7.3104,7.2446,7.2324,7.1642,7.0626,6.9987,6.9314,6.8531,6.7576,6.7236,6.7236,6.7112,6.7029,6.6812,6.677,6.643,6.6225,6.6009,6.5702,6.5603,6.5559,6.5736,6.5955,6.6172,6.6345,6.6558,6.6728,6.677,6.6728,6.6311,6.5713,6.4203,6.318,6.2987,6.2085,6.1144,6.0368,5.9523,5.8714,5.825,5.7892,5.7807,5.7414,5.5735,5.3865,5.1821,4.9316,4.615,4.4023,4.2731,4.2209,4.1807,4.1162,3.9806,3.8231,3.6642,3.3985,3.1449,2.9354,2.768,2.6357,2.5318,2.467,2.3796,2.2781,8.056,8.0297,7.9773,7.9464,7.9088,7.7969,7.7365,7.7024,7.621,7.5727,7.5478,7.4858,7.4026,7.3235,7.2651,7.2305,7.1222,7.0955,7.0664,7.0348,6.8528,6.7644,6.6393,6.432,6.3153,6.2987,6.1969,6.0992,6.1907,6.2442,6.2626,6.3408,6.5549,6.585,6.5659,6.5967,6.7429,6.9197,7.0693,7.1889,7.333,7.4081,7.4536,7.4056,7.3841,7.3943,7.3651,7.3454,7.3272,7.313,7.2446,7.1551,7.133,7.0557,6.9566,6.8984,6.8185,6.7582,6.7029,6.6854,6.6896,6.6854,6.6812,6.677,6.6643,6.6345,6.5801,6.5537,6.5392,6.5135,6.5045,6.5303,6.578,6.6009,6.6259,6.6473,6.6311,6.6354,6.6482,6.6019,6.5192,6.3673,6.2383,6.2284,6.2016,6.1175,6.0368,5.9523,5.8659,5.8305,5.8003,5.7863,5.7443,5.6022,5.4157,5.1962,4.9289,4.6288,4.4573,4.3189,4.2306,4.1903,4.162,4.1107,3.9056,3.6763,3.3729,3.1174,2.8609,2.6867,2.5772,2.4817,2.4079,2.329,2.2408,8.0792,8.0705,8.002,7.9686,7.9426,7.8183,7.7335,7.6705,7.611,7.5798,7.5657,7.4065,7.3397,7.3025,7.196,7.1457,7.1447,7.1897,7.1791,7.1278,6.9351,6.839,6.6314,6.3732,6.2232,6.105,6.0266,6.0148,6.141,6.2253,6.2483,6.3381,6.6024,6.6259,6.6012,6.6667,6.8252,6.9816,7.1236,7.2178,7.3025,7.3801,7.407,7.3799,7.361,7.3447,7.3162,7.298,7.2906,7.2502,7.1739,7.1397,7.0822,6.9883,6.906,6.8262,6.7373,6.7029,6.6854,6.6812,6.6643,6.6601,6.6728,6.6643,6.6473,6.6215,6.5581,6.5057,6.4773,6.4512,6.4295,6.4955,6.557,6.5834,6.6086,6.6009,6.5724,6.5767,6.5942,6.5592,6.4708,6.3578,6.2531,6.2116,6.2066,6.1379,6.0628,6.0023,5.9225,5.858,5.8305,5.8085,5.7499,5.648,5.4568,5.2322,4.9761,4.6955,4.5255,4.3838,4.2936,4.2025,4.1714,4.099,3.9313,3.6693,3.2965,2.9937,2.7405,2.5918,2.4817,2.4153,2.3351,2.2992,2.2346,8.0723,8.0685,7.9899,7.9494,7.9143,7.7723,7.6705,7.611,7.5833,7.5657,7.5334,7.437,7.3627,7.3148,7.239,7.1766,7.1751,7.1772,7.107,7.019,6.9025,6.7281,6.4978,6.2527,6.1019,6.0387,5.9777,5.9532,6.0485,6.1645,6.2969,6.4094,6.4746,6.5072,6.5764,6.6809,6.8376,7.0069,7.1409,7.2478,7.3229,7.4198,7.4262,7.4106,7.3615,7.323,7.2722,7.1951,7.1713,7.1241,6.9848,6.9205,6.9388,6.8266,6.7332,6.7325,6.6946,6.6812,6.6812,6.677,6.6643,6.6311,6.6388,6.655,6.6421,6.5999,6.5315,6.4741,6.4328,6.4096,6.4017,6.4512,6.4832,6.4967,6.5315,6.5448,6.5159,6.5248,6.5426,6.5192,6.4328,6.3578,6.258,6.2266,6.2116,6.1531,6.099,6.0442,5.9811,5.9201,5.8822,5.8659,5.7387,5.6308,5.4918,5.2863,5.0257,4.7749,4.611,4.4458,4.3097,4.2257,4.1862,4.0501,3.845,3.5261,3.1493,2.8811,2.6457,2.483,2.3722,2.3203,2.2694,2.2483,2.2346,8.0702,8.0685,8.0141,7.9456,7.8553,7.7376,7.6445,7.5868,7.5798,7.5514,7.4858,7.4104,7.3647,7.3261,7.2647,7.228,7.2326,7.2412,7.1878,7.0568,6.8087,6.6691,6.4341,6.1908,6.0716,6.0173,6.0083,6.0116,6.0754,6.1469,6.2622,6.0881,6.161,6.2222,6.2846,6.4042,6.6171,6.8569,7.0859,7.2746,7.3706,7.4375,7.4561,7.4353,7.3744,7.3116,7.2382,7.1404,7.1084,7.0805,6.9397,6.9036,6.9099,6.8097,6.6693,6.6574,6.6192,6.6105,6.6105,6.6105,6.6105,6.6095,6.6076,6.6129,6.5922,6.5537,6.4832,6.4235,6.3988,6.3847,6.3909,6.397,6.3923,6.3891,6.4341,6.4786,6.4753,6.4766,6.4708,6.4636,6.4128,6.342,6.2873,6.2612,6.2414,6.2234,6.1985,6.1633,6.0805,5.9917,5.9599,5.9439,5.7664,5.5964,5.4623,5.316,5.0498,4.8363,4.7112,4.5458,4.3584,4.2208,4.1509,3.9607,3.7211,3.3835,3.0421,2.8056,2.5834,2.4332,2.3141,2.2769,2.2558,2.2408,2.2346,8.0792,8.0775,8.041,7.9411,7.8128,7.7285,7.6627,7.6083,7.6156,7.5477,7.4626,7.3702,7.3532,7.3482,7.2959,7.2858,7.2801,7.2834,7.187,7.1441,6.8035,6.6067,6.4489,6.2499,6.0865,6.0595,6.0627,6.069,6.185,6.1819,6.01,5.6995,5.8147,5.8965,5.9352,6.1557,6.4218,6.7588,7.0452,7.2734,7.2959,7.3631,7.4451,7.4138,7.3688,7.3204,7.262,7.2192,7.1942,7.1151,7.0516,6.9914,6.9419,6.8566,6.7064,6.6357,6.608,6.5913,6.599,6.599,6.5891,6.5947,6.5902,6.579,6.556,6.5177,6.4499,6.4128,6.3894,6.3578,6.3546,6.3797,6.3844,6.375,6.3937,6.411,6.4063,6.4262,6.4617,6.4407,6.3753,6.3164,6.3116,6.2808,6.2759,6.2825,6.2873,6.258,6.1853,6.0856,6.0285,6.0075,5.8077,5.6165,5.4887,5.3187,5.0523,4.8713,4.7533,4.582,4.3558,4.2208,4.1105,3.8747,3.618,3.289,2.9716,2.7316,2.5235,2.3935,2.2918,2.2483,2.2346,2.2346,2.2346,8.0826,8.0771,7.9621,7.9054,7.8898,7.7838,7.771,7.8252,7.7737,7.6582,7.5172,7.4456,7.4133,7.4052,7.3527,7.3304,7.3021,7.2812,7.1192,6.9679,6.7206,6.5528,6.3974,6.2115,6.0865,6.0716,6.0808,6.0839,6.0874,6.0215,5.8574,5.5276,5.5807,5.6385,5.7656,6.0118,6.2828,6.7,6.8879,7.0958,7.1464,7.3501,7.4868,7.4369,7.3868,7.267,7.1952,7.1176,7.0488,6.9662,6.9527,6.9347,6.9271,6.8238,6.7937,6.7848,6.6588,6.6166,6.6119,6.5947,6.5633,6.535,6.5271,6.5368,6.5237,6.4803,6.4472,6.4146,6.3832,6.3516,6.3499,6.375,6.3905,6.3797,6.3561,6.3466,6.3356,6.3782,6.4374,6.3988,6.3309,6.3212,6.3164,6.3164,6.3148,6.326,6.3516,6.3372,6.2793,6.1922,6.0856,6.0202,5.8297,5.6565,5.5239,5.3187,5.0612,4.8428,4.7003,4.5301,4.3511,4.2208,4.0891,3.7866,3.4989,3.2044,2.9123,2.6354,2.4446,2.3354,2.2769,2.2408,2.2346,2.2346,2.2346,8.0754,8.0428,7.9325,7.9121,7.935,7.838,7.8196,7.8453,7.7845,7.6905,7.5895,7.5227,7.4801,7.4616,7.4123,7.3858,7.3402,7.2859,7.1227,6.9114,6.6945,6.5376,6.3619,6.2293,6.2116,6.1792,6.0779,6.0327,5.9791,5.7619,5.5618,5.4468,5.4771,5.5425,5.7352,5.9264,6.2178,6.7122,6.7517,6.8576,7.0035,7.2549,7.4494,7.4241,7.3569,7.2418,7.1857,7.1171,7.0574,7.0192,7.025,6.9901,6.9755,6.9199,6.8393,6.7546,6.6493,6.5756,6.5869,6.5657,6.5062,6.4742,6.5411,6.5789,6.574,6.544,6.5693,6.5381,6.4604,6.4254,6.4643,6.4967,6.4662,6.4479,6.3844,6.3419,6.2875,6.2614,6.3084,6.3212,6.2971,6.3357,6.3404,6.3595,6.3548,6.3548,6.3847,6.3468,6.3036,6.2565,6.1621,6.0172,5.8212,5.6736,5.5442,5.3187,5.0612,4.8558,4.6536,4.5165,4.3697,4.23,4.0514,3.7759,3.4875,3.1641,2.8746,2.6054,2.4224,2.3078,2.2692,2.2346,2.2346,2.2346,2.2346,8.0733,8.0199,7.9493,7.952,7.9861,7.8979,7.8602,7.8459,7.7604,7.7017,7.669,7.5991,7.5337,7.4898,7.4526,7.4594,7.399,7.2216,7.0599,6.8821,6.6699,6.5425,6.4475,6.3508,6.3134,6.2262,6.1139,6.022,5.9516,5.6954,5.5196,5.4907,5.4807,5.4679,5.703,5.8846,6.1391,6.4498,6.608,6.7502,6.9489,7.167,7.3037,7.3532,7.3322,7.2448,7.2099,7.1786,7.1323,7.1041,7.0737,7.0083,6.929,6.8559,6.7472,6.637,6.5459,6.4765,6.4547,6.459,6.4236,6.4318,6.5603,6.6128,6.59,6.6387,6.6649,6.6274,6.5493,6.5302,6.5745,6.5348,6.5,6.4832,6.4031,6.3844,6.3116,6.2302,6.2531,6.2825,6.3019,6.3404,6.3643,6.38,6.3847,6.3847,6.3705,6.318,6.2744,6.2319,6.169,5.9879,5.7772,5.6508,5.5442,5.2612,4.981,4.8191,4.6224,4.5096,4.3905,4.2208,4.0341,3.8001,3.502,3.1663,2.8849,2.617,2.4507,2.291,2.2591,2.2346,2.2346,2.2346,2.2346,8.1138,8.0727,8.0312,8.0459,8.0807,7.9849,7.9899,8.0475,7.9257,7.8318,7.7449,7.6854,7.6199,7.5425,7.4437,7.3972,7.3126,7.1413,6.9618,6.7846,6.6509,6.5545,6.4779,6.4126,6.3599,6.272,6.1377,5.9827,5.9327,5.6763,5.4739,5.4448,5.6762,5.7173,5.7869,5.989,6.2494,6.4731,6.5054,6.6078,7.0028,7.155,7.1488,7.1876,7.209,7.1688,7.1457,7.1401,7.1312,7.1052,7.0436,6.9467,6.8421,6.7239,6.6032,6.5439,6.4488,6.4228,6.4066,6.4212,6.4066,6.3691,6.4773,6.5576,6.6044,6.7275,6.7281,6.697,6.6418,6.6443,6.6367,6.4754,6.4096,6.4295,6.3937,6.4811,6.5024,6.4156,6.3768,6.3563,6.3276,6.3516,6.369,6.3753,6.3705,6.3894,6.43,6.3738,6.2499,6.2072,6.174,5.9478,5.7326,5.6337,5.5267,5.1439,4.8648,4.7202,4.5843,4.4503,4.3211,4.2018,4.0033,3.7947,3.5035,3.1701,2.9,2.6067,2.4534,2.3059,2.2603,2.2271,2.2346,2.2346,2.2346]}]]